GEFSSGP_prec_meanprecacc_132.txt.gz
Total_Precipitation_Accumulation
0.00 0.03 0.17 0.45 0.99 1.32 1.23 0.70 0.52 0.41 0.42 0.43 0.45 0.43 0.44 0.49 0.72 1.01 0.62 0.33 0.11 0.03 0.03 0.11 0.22 0.22 0.18 0.16 0.15 0.17 0.16 0.15 0.14 0.11 0.10 0.08 0.08 0.07 0.08 0.08 0.08 0.09 0.11 0.14 0.16 0.18 0.15 0.17 0.19
0.02 0.07 0.26 0.63 1.20 1.35 1.07 0.58 0.43 0.35 0.38 0.39 0.35 0.40 0.51 0.57 0.44 0.43 0.43 0.33 0.12 0.04 0.02 0.05 0.14 0.21 0.20 0.18 0.17 0.17 0.16 0.14 0.12 0.11 0.09 0.08 0.08 0.08 0.09 0.10 0.10 0.12 0.13 0.15 0.17 0.15 0.15 0.18 0.19
0.03 0.09 0.27 0.59 0.77 0.86 0.73 0.47 0.38 0.31 0.42 0.57 0.49 0.41 0.52 0.66 0.49 0.39 0.35 0.20 0.11 0.08 0.05 0.08 0.13 0.16 0.19 0.19 0.19 0.17 0.15 0.13 0.11 0.10 0.09 0.09 0.09 0.12 0.12 0.12 0.13 0.14 0.15 0.16 0.17 0.15 0.17 0.14 0.15
0.04 0.13 0.28 0.40 0.31 0.33 0.37 0.37 0.35 0.39 0.61 0.77 0.64 0.51 0.55 0.51 0.48 0.40 0.30 0.20 0.15 0.11 0.10 0.12 0.16 0.17 0.18 0.18 0.18 0.17 0.15 0.13 0.12 0.11 0.11 0.11 0.13 0.15 0.14 0.14 0.16 0.15 0.16 0.19 0.21 0.17 0.16 0.15 0.15
0.04 0.13 0.32 0.29 0.17 0.19 0.21 0.26 0.40 0.47 0.71 0.80 0.60 0.60 0.66 0.56 0.55 0.51 0.37 0.31 0.28 0.28 0.23 0.23 0.25 0.23 0.21 0.19 0.19 0.19 0.17 0.15 0.13 0.12 0.13 0.14 0.16 0.19 0.19 0.19 0.21 0.18 0.18 0.22 0.25 0.22 0.18 0.19 0.22
0.03 0.08 0.19 0.16 0.11 0.10 0.14 0.22 0.36 0.50 0.69 0.77 0.62 0.79 0.81 0.78 0.73 0.69 0.66 0.67 0.61 0.63 0.56 0.45 0.44 0.36 0.29 0.25 0.24 0.23 0.22 0.19 0.18 0.17 0.17 0.18 0.19 0.21 0.23 0.25 0.25 0.25 0.26 0.27 0.27 0.24 0.25 0.29 0.33
0.01 0.03 0.07 0.07 0.05 0.08 0.14 0.22 0.40 0.55 0.70 0.91 0.87 0.95 0.91 1.01 0.97 0.88 0.89 0.93 0.95 0.90 0.85 0.63 0.49 0.44 0.38 0.38 0.34 0.30 0.27 0.26 0.24 0.24 0.22 0.21 0.21 0.21 0.23 0.28 0.28 0.28 0.30 0.32 0.32 0.31 0.33 0.36 0.37
0.00 0.01 0.03 0.02 0.02 0.05 0.12 0.23 0.37 0.53 0.77 0.90 0.89 0.96 0.90 0.91 1.00 1.05 1.08 1.17 1.36 1.19 1.01 0.74 0.58 0.55 0.47 0.42 0.39 0.35 0.30 0.28 0.27 0.29 0.30 0.30 0.28 0.27 0.31 0.33 0.35 0.36 0.35 0.35 0.38 0.40 0.42 0.44 0.42
0.00 0.01 0.02 0.02 0.01 0.03 0.12 0.28 0.43 0.46 0.59 0.88 1.14 0.98 0.81 0.88 1.15 1.27 1.42 1.40 1.63 1.53 1.07 0.70 0.70 0.70 0.61 0.53 0.49 0.54 0.48 0.45 0.46 0.51 0.50 0.56 0.69 0.68 0.71 0.59 0.58 0.58 0.62 0.64 0.65 0.68 0.70 0.67 0.54
0.00 0.00 0.01 0.01 0.01 0.03 0.14 0.34 0.50 0.59 0.79 1.09 1.37 1.21 0.98 0.94 1.32 1.57 1.54 1.34 1.34 1.49 1.38 0.93 0.80 0.80 0.73 0.67 0.68 0.95 0.97 0.98 1.03 1.11 1.05 1.14 1.12 0.96 0.76 0.76 0.93 0.94 1.08 1.20 1.33 1.43 1.25 1.01 0.86
0.00 0.00 0.00 0.01 0.01 0.05 0.17 0.20 0.28 0.53 1.05 1.43 1.69 1.34 1.08 1.11 1.40 1.80 1.78 1.53 1.39 1.46 1.36 1.27 1.04 0.95 0.93 1.01 0.96 1.09 1.22 1.34 1.43 1.37 1.40 1.52 1.32 1.09 0.97 1.09 1.34 1.40 1.51 1.63 1.90 2.04 1.51 1.48 1.70
0.00 0.00 0.00 0.01 0.01 0.03 0.10 0.18 0.33 0.62 1.07 1.35 1.27 1.12 1.11 1.26 1.43 1.91 2.12 1.85 1.66 1.60 1.51 1.65 1.49 1.35 1.34 1.31 1.33 1.17 1.13 1.20 1.34 1.40 1.40 1.55 1.47 1.34 1.36 1.40 1.45 1.65 1.82 2.05 2.02 2.15 2.14 2.19 2.11
0.00 0.00 0.00 0.00 0.01 0.03 0.08 0.18 0.29 0.52 0.80 0.87 0.77 0.94 1.33 1.38 1.58 2.04 2.52 2.39 2.17 1.98 1.95 2.01 1.95 2.02 1.96 1.77 1.61 1.29 1.21 1.15 1.18 1.25 1.26 1.49 1.71 1.68 1.75 1.55 1.50 1.36 1.66 2.02 2.23 2.28 2.46 2.59 2.55
0.00 0.01 0.01 0.02 0.03 0.04 0.07 0.14 0.31 0.69 0.71 0.66 0.77 1.02 1.35 1.68 1.73 2.07 2.65 2.74 2.60 2.55 2.59 2.49 2.39 2.42 2.34 2.01 1.76 1.56 1.33 1.28 1.22 1.23 1.37 1.78 1.95 1.84 1.88 1.81 1.71 1.47 1.61 1.95 2.29 2.36 2.61 2.60 2.64
0.01 0.03 0.08 0.09 0.07 0.08 0.11 0.32 0.56 0.74 0.72 0.72 0.91 1.08 1.47 1.97 2.11 2.31 2.70 2.88 2.99 3.18 3.23 3.26 3.12 2.84 2.75 2.44 2.00 1.69 1.42 1.25 1.28 1.41 1.59 1.85 1.98 2.06 2.21 2.11 1.77 1.62 1.79 1.96 1.98 2.10 2.57 2.42 2.38
0.02 0.06 0.23 0.17 0.09 0.09 0.17 0.55 0.75 0.78 0.80 0.85 1.00 1.28 1.62 2.02 2.06 2.21 2.53 2.95 3.30 3.71 3.99 4.02 3.72 3.52 3.33 2.88 2.47 2.14 1.94 1.74 1.72 1.71 1.65 1.57 1.74 1.89 2.04 1.77 1.43 1.59 1.85 1.98 1.91 1.90 2.26 2.32 2.34
0.05 0.09 0.18 0.18 0.12 0.11 0.20 0.57 0.61 0.51 0.80 1.11 1.28 1.47 1.61 1.78 1.88 2.08 2.37 2.87 3.38 3.94 4.46 4.66 4.67 4.22 3.73 3.08 2.59 2.21 2.14 2.01 1.86 1.69 1.49 1.31 1.22 1.23 1.33 1.17 1.10 1.30 1.54 1.56 1.38 1.51 1.78 1.89 2.02
0.04 0.08 0.14 0.19 0.16 0.15 0.27 0.51 0.64 0.54 0.76 1.01 1.10 1.41 1.52 1.51 1.71 2.07 2.54 2.88 3.48 4.03 4.51 4.75 4.81 4.27 3.53 3.03 2.80 2.49 2.18 1.99 1.79 1.52 1.27 1.02 0.94 0.88 0.95 0.95 0.89 0.95 1.00 1.03 1.17 1.35 1.49 1.40 1.49
0.03 0.07 0.15 0.17 0.16 0.23 0.37 0.62 0.74 0.71 0.72 0.76 0.89 1.11 1.16 1.23 1.49 1.92 2.52 3.05 3.61 4.40 4.86 4.89 4.49 3.65 3.05 2.55 2.30 2.07 1.84 1.67 1.44 1.19 1.00 0.86 0.82 0.75 0.77 0.73 0.74 0.79 0.75 0.76 0.91 1.03 1.05 0.89 1.07
0.05 0.09 0.17 0.16 0.12 0.14 0.34 0.65 0.73 0.77 0.82 0.75 0.80 0.91 0.86 0.98 1.32 1.92 2.64 3.30 3.66 4.03 4.24 4.16 3.64 2.84 2.31 2.00 1.86 1.66 1.51 1.24 1.09 0.91 0.81 0.73 0.69 0.65 0.63 0.63 0.61 0.59 0.62 0.64 0.68 0.79 0.80 0.72 0.85
0.08 0.09 0.14 0.17 0.13 0.15 0.34 0.75 0.87 0.83 0.81 0.75 0.63 0.65 0.76 0.96 1.52 2.25 3.01 3.54 3.60 3.46 3.13 2.77 2.47 2.05 1.86 1.76 1.58 1.37 1.29 1.10 0.90 0.67 0.56 0.53 0.49 0.46 0.44 0.41 0.42 0.44 0.47 0.50 0.56 0.63 0.67 0.63 0.59
0.09 0.07 0.05 0.07 0.11 0.32 0.45 0.86 0.93 0.92 0.86 0.67 0.60 0.67 0.82 1.08 1.64 2.33 2.84 2.91 2.88 2.62 2.20 1.96 1.85 1.71 1.58 1.48 1.37 1.12 0.92 0.83 0.69 0.59 0.51 0.45 0.38 0.37 0.34 0.31 0.31 0.31 0.32 0.40 0.40 0.48 0.59 0.61 0.50
0.05 0.04 0.04 0.08 0.18 0.34 0.47 0.74 0.96 0.92 0.96 0.57 0.45 0.55 0.68 0.92 1.21 1.42 1.58 1.59 1.63 1.53 1.58 1.63 1.63 1.62 1.52 1.42 1.30 1.15 0.91 0.80 0.74 0.72 0.64 0.57 0.46 0.39 0.35 0.34 0.31 0.30 0.28 0.29 0.32 0.40 0.51 0.57 0.52
0.04 0.06 0.12 0.21 0.36 0.70 0.69 0.79 1.06 1.00 0.83 0.43 0.26 0.33 0.53 0.65 0.69 0.73 0.74 0.79 0.96 0.96 1.05 1.16 1.19 1.29 1.37 1.33 1.15 1.03 0.89 0.81 0.76 0.69 0.57 0.50 0.43 0.38 0.36 0.36 0.38 0.35 0.32 0.31 0.30 0.32 0.38 0.50 0.59
0.05 0.09 0.31 0.63 0.97 1.03 0.61 0.69 1.04 0.95 0.62 0.32 0.20 0.17 0.23 0.38 0.49 0.58 0.63 0.70 0.81 0.70 0.71 0.82 0.88 0.89 0.96 0.96 0.89 0.86 0.86 0.79 0.70 0.60 0.51 0.43 0.33 0.31 0.31 0.31 0.34 0.36 0.37 0.36 0.35 0.34 0.33 0.41 0.51
0.06 0.07 0.18 0.34 0.43 0.57 0.59 1.05 1.21 0.64 0.34 0.20 0.14 0.11 0.15 0.24 0.35 0.39 0.43 0.51 0.58 0.49 0.49 0.60 0.68 0.67 0.67 0.67 0.67 0.67 0.73 0.64 0.58 0.59 0.51 0.43 0.36 0.31 0.30 0.29 0.29 0.31 0.35 0.39 0.42 0.38 0.38 0.41 0.43
0.06 0.05 0.07 0.09 0.16 0.40 0.74 1.04 0.91 0.45 0.29 0.15 0.11 0.11 0.12 0.16 0.21 0.24 0.24 0.28 0.35 0.37 0.39 0.45 0.54 0.56 0.52 0.53 0.54 0.53 0.60 0.61 0.57 0.55 0.49 0.43 0.46 0.38 0.34 0.31 0.32 0.33 0.36 0.39 0.42 0.40 0.40 0.43 0.43
0.06 0.06 0.07 0.10 0.18 0.36 0.64 0.99 1.02 0.58 0.33 0.18 0.14 0.15 0.14 0.14 0.16 0.14 0.14 0.16 0.21 0.27 0.36 0.42 0.48 0.51 0.48 0.48 0.48 0.42 0.48 0.57 0.63 0.58 0.50 0.49 0.50 0.42 0.39 0.37 0.36 0.38 0.38 0.38 0.41 0.41 0.46 0.50 0.54
0.09 0.08 0.10 0.10 0.11 0.21 0.48 0.68 0.49 0.37 0.29 0.24 0.20 0.16 0.13 0.14 0.16 0.13 0.09 0.10 0.14 0.20 0.28 0.33 0.42 0.50 0.50 0.49 0.55 0.56 0.52 0.49 0.56 0.59 0.60 0.61 0.61 0.51 0.47 0.46 0.46 0.45 0.45 0.47 0.52 0.53 0.56 0.63 0.72
0.11 0.11 0.12 0.13 0.12 0.12 0.24 0.35 0.30 0.36 0.38 0.30 0.22 0.19 0.13 0.12 0.13 0.10 0.09 0.10 0.14 0.17 0.22 0.28 0.34 0.45 0.47 0.49 0.55 0.59 0.61 0.53 0.54 0.58 0.61 0.63 0.69 0.70 0.65 0.60 0.56 0.48 0.46 0.51 0.58 0.65 0.62 0.64 0.70

GEFSSGP_prec_meanprecacc_138.txt.gz
Total_Precipitation_Accumulation
0.00 0.03 0.17 0.46 1.06 1.41 1.26 0.70 0.53 0.41 0.42 0.43 0.45 0.43 0.44 0.49 0.76 1.08 0.64 0.33 0.11 0.03 0.03 0.11 0.22 0.23 0.19 0.18 0.17 0.19 0.19 0.17 0.16 0.13 0.11 0.09 0.09 0.09 0.09 0.09 0.10 0.11 0.13 0.16 0.19 0.21 0.19 0.20 0.24
0.02 0.07 0.26 0.66 1.30 1.40 1.08 0.59 0.43 0.35 0.38 0.39 0.35 0.40 0.52 0.57 0.45 0.43 0.44 0.33 0.12 0.04 0.03 0.05 0.14 0.21 0.21 0.19 0.19 0.19 0.19 0.17 0.16 0.13 0.11 0.10 0.10 0.09 0.11 0.11 0.12 0.14 0.16 0.18 0.20 0.18 0.19 0.21 0.23
0.03 0.09 0.28 0.64 0.82 0.88 0.73 0.47 0.38 0.31 0.42 0.58 0.49 0.41 0.52 0.66 0.49 0.39 0.35 0.21 0.12 0.08 0.05 0.08 0.13 0.17 0.20 0.20 0.20 0.19 0.18 0.17 0.15 0.13 0.12 0.12 0.12 0.14 0.14 0.13 0.15 0.17 0.19 0.21 0.21 0.18 0.19 0.17 0.17
0.04 0.14 0.31 0.43 0.33 0.33 0.37 0.37 0.35 0.39 0.61 0.77 0.64 0.51 0.55 0.51 0.48 0.40 0.31 0.20 0.15 0.11 0.10 0.12 0.17 0.17 0.19 0.19 0.20 0.20 0.17 0.15 0.14 0.13 0.14 0.14 0.17 0.19 0.16 0.16 0.18 0.18 0.20 0.24 0.26 0.20 0.18 0.17 0.18
0.04 0.19 0.42 0.31 0.18 0.19 0.21 0.26 0.40 0.47 0.71 0.80 0.60 0.61 0.67 0.56 0.55 0.52 0.38 0.32 0.29 0.30 0.27 0.25 0.26 0.24 0.21 0.20 0.20 0.22 0.19 0.17 0.16 0.14 0.15 0.17 0.19 0.22 0.22 0.22 0.24 0.21 0.21 0.26 0.29 0.25 0.20 0.23 0.26
0.04 0.13 0.24 0.18 0.11 0.10 0.14 0.22 0.36 0.50 0.69 0.77 0.62 0.79 0.82 0.78 0.73 0.70 0.68 0.68 0.62 0.66 0.60 0.50 0.46 0.37 0.29 0.25 0.25 0.26 0.24 0.21 0.21 0.19 0.20 0.20 0.22 0.23 0.25 0.27 0.28 0.28 0.29 0.30 0.30 0.25 0.26 0.31 0.35
0.02 0.07 0.12 0.08 0.05 0.08 0.14 0.22 0.40 0.55 0.70 0.91 0.87 0.95 0.94 1.03 0.98 0.90 0.91 0.94 0.96 0.94 0.88 0.67 0.53 0.47 0.41 0.41 0.37 0.32 0.30 0.28 0.27 0.27 0.24 0.24 0.24 0.24 0.25 0.30 0.32 0.32 0.33 0.35 0.35 0.33 0.36 0.39 0.39
0.00 0.02 0.05 0.03 0.03 0.05 0.12 0.23 0.37 0.53 0.77 0.90 0.89 0.96 0.96 0.93 1.01 1.08 1.11 1.21 1.40 1.24 1.07 0.79 0.62 0.63 0.53 0.47 0.43 0.40 0.35 0.32 0.31 0.31 0.32 0.33 0.31 0.30 0.34 0.36 0.39 0.40 0.38 0.38 0.40 0.42 0.44 0.45 0.43
0.00 0.01 0.03 0.02 0.01 0.03 0.12 0.28 0.43 0.46 0.60 0.89 1.15 0.98 0.81 0.89 1.16 1.30 1.47 1.46 1.68 1.61 1.20 0.83 0.78 0.88 0.77 0.59 0.52 0.58 0.53 0.50 0.50 0.54 0.52 0.62 0.78 0.75 0.78 0.63 0.62 0.61 0.64 0.65 0.67 0.69 0.71 0.68 0.54
0.00 0.01 0.02 0.01 0.01 0.03 0.14 0.34 0.50 0.59 0.84 1.17 1.40 1.21 0.99 0.95 1.33 1.60 1.59 1.42 1.40 1.56 1.49 1.10 0.93 0.92 0.86 0.74 0.72 0.99 1.01 1.01 1.08 1.17 1.11 1.25 1.26 1.11 0.85 0.82 0.97 0.97 1.11 1.22 1.35 1.44 1.26 1.04 0.88
0.00 0.00 0.01 0.01 0.01 0.05 0.18 0.20 0.28 0.54 1.07 1.46 1.71 1.35 1.08 1.11 1.41 1.81 1.81 1.61 1.45 1.51 1.43 1.40 1.16 1.04 1.01 1.09 1.02 1.15 1.29 1.40 1.51 1.45 1.48 1.63 1.41 1.17 1.04 1.16 1.39 1.44 1.55 1.68 1.93 2.05 1.54 1.53 1.76
0.00 0.00 0.00 0.01 0.01 0.03 0.10 0.18 0.33 0.62 1.07 1.35 1.27 1.12 1.11 1.26 1.44 1.92 2.14 1.89 1.72 1.67 1.60 1.79 1.64 1.45 1.44 1.39 1.40 1.24 1.19 1.27 1.40 1.48 1.48 1.62 1.56 1.44 1.45 1.51 1.55 1.73 1.91 2.14 2.08 2.20 2.19 2.28 2.16
0.00 0.00 0.00 0.00 0.01 0.03 0.08 0.18 0.29 0.52 0.80 0.87 0.78 0.94 1.33 1.39 1.59 2.07 2.55 2.43 2.23 2.06 2.09 2.20 2.11 2.14 2.08 1.88 1.67 1.34 1.26 1.23 1.25 1.32 1.34 1.56 1.78 1.77 1.85 1.65 1.62 1.44 1.71 2.07 2.27 2.31 2.52 2.65 2.59
0.00 0.01 0.01 0.02 0.03 0.04 0.08 0.15 0.31 0.69 0.71 0.66 0.77 1.02 1.35 1.69 1.74 2.09 2.67 2.77 2.67 2.64 2.75 2.70 2.58 2.57 2.49 2.11 1.85 1.62 1.38 1.35 1.28 1.29 1.41 1.85 2.03 1.93 1.97 1.88 1.78 1.55 1.66 1.98 2.32 2.39 2.64 2.63 2.68
0.01 0.03 0.08 0.09 0.07 0.08 0.11 0.33 0.58 0.75 0.72 0.72 0.91 1.08 1.47 1.98 2.12 2.32 2.71 2.91 3.04 3.26 3.37 3.45 3.32 3.01 2.91 2.57 2.08 1.75 1.47 1.29 1.33 1.47 1.64 1.93 2.07 2.14 2.28 2.18 1.84 1.68 1.83 2.00 2.01 2.14 2.60 2.44 2.42
0.02 0.06 0.23 0.17 0.09 0.09 0.17 0.55 0.76 0.79 0.80 0.85 1.00 1.28 1.62 2.03 2.08 2.23 2.55 2.99 3.37 3.81 4.16 4.21 3.88 3.71 3.53 3.04 2.58 2.20 1.99 1.78 1.77 1.75 1.70 1.63 1.81 1.94 2.10 1.83 1.48 1.62 1.88 2.01 1.93 1.93 2.29 2.35 2.37
0.05 0.09 0.18 0.18 0.12 0.11 0.20 0.57 0.61 0.51 0.80 1.11 1.28 1.47 1.62 1.79 1.90 2.10 2.39 2.91 3.44 4.05 4.65 4.84 4.85 4.39 3.89 3.22 2.73 2.30 2.21 2.07 1.90 1.74 1.55 1.36 1.26 1.26 1.37 1.23 1.16 1.32 1.56 1.58 1.39 1.53 1.80 1.94 2.07
0.04 0.08 0.14 0.19 0.16 0.15 0.27 0.51 0.64 0.54 0.76 1.01 1.10 1.41 1.52 1.52 1.72 2.09 2.57 2.94 3.56 4.16 4.71 4.94 4.98 4.41 3.67 3.18 2.95 2.62 2.27 2.05 1.83 1.57 1.33 1.08 0.99 0.91 1.00 0.99 0.92 0.97 1.02 1.07 1.21 1.40 1.53 1.46 1.54
0.03 0.07 0.15 0.17 0.16 0.23 0.37 0.62 0.74 0.71 0.72 0.76 0.89 1.11 1.17 1.24 1.51 1.95 2.56 3.12 3.70 4.54 5.03 5.06 4.67 3.78 3.18 2.68 2.42 2.19 1.94 1.74 1.50 1.24 1.05 0.93 0.88 0.79 0.81 0.78 0.79 0.81 0.79 0.81 0.95 1.07 1.10 0.94 1.11
0.05 0.09 0.17 0.16 0.12 0.14 0.34 0.65 0.74 0.78 0.82 0.75 0.80 0.92 0.87 0.99 1.34 1.95 2.70 3.39 3.84 4.19 4.40 4.29 3.76 2.95 2.41 2.09 1.99 1.82 1.64 1.33 1.17 0.99 0.91 0.81 0.75 0.69 0.66 0.69 0.65 0.61 0.67 0.68 0.72 0.84 0.86 0.77 0.88
0.08 0.09 0.14 0.17 0.13 0.15 0.34 0.75 0.87 0.86 0.83 0.76 0.63 0.65 0.77 0.98 1.54 2.28 3.05 3.61 3.70 3.57 3.23 2.86 2.57 2.15 1.97 1.89 1.71 1.53 1.45 1.19 0.98 0.76 0.67 0.62 0.55 0.50 0.48 0.45 0.45 0.48 0.50 0.55 0.60 0.68 0.73 0.70 0.65
0.09 0.07 0.05 0.07 0.11 0.32 0.45 0.86 0.94 0.94 0.90 0.69 0.60 0.67 0.83 1.09 1.65 2.35 2.88 2.97 2.94 2.68 2.27 2.04 1.94 1.80 1.68 1.60 1.49 1.23 1.03 0.93 0.79 0.68 0.60 0.54 0.45 0.42 0.39 0.35 0.34 0.34 0.35 0.45 0.43 0.51 0.63 0.67 0.57
0.05 0.04 0.04 0.08 0.18 0.34 0.47 0.74 0.97 0.94 1.03 0.62 0.46 0.55 0.69 0.93 1.22 1.44 1.61 1.64 1.68 1.59 1.65 1.70 1.74 1.74 1.64 1.55 1.43 1.26 1.01 0.92 0.86 0.81 0.73 0.65 0.55 0.45 0.40 0.38 0.35 0.34 0.31 0.34 0.35 0.46 0.55 0.62 0.56
0.04 0.06 0.12 0.21 0.36 0.70 0.69 0.79 1.07 1.02 0.86 0.45 0.27 0.33 0.53 0.66 0.70 0.76 0.77 0.83 1.01 1.02 1.12 1.24 1.29 1.42 1.48 1.42 1.24 1.13 1.01 0.95 0.91 0.80 0.66 0.57 0.51 0.47 0.42 0.42 0.43 0.39 0.36 0.36 0.36 0.39 0.42 0.55 0.63
0.05 0.09 0.31 0.63 0.98 1.03 0.61 0.69 1.04 0.96 0.62 0.32 0.20 0.17 0.24 0.38 0.51 0.61 0.65 0.71 0.85 0.78 0.81 0.92 0.97 0.99 1.06 1.05 0.98 0.95 0.95 0.92 0.84 0.71 0.60 0.51 0.41 0.39 0.39 0.38 0.41 0.42 0.42 0.41 0.41 0.42 0.40 0.47 0.56
0.06 0.07 0.18 0.35 0.44 0.59 0.61 1.06 1.21 0.64 0.34 0.20 0.14 0.11 0.15 0.25 0.37 0.42 0.45 0.52 0.60 0.54 0.57 0.69 0.77 0.76 0.76 0.78 0.79 0.76 0.81 0.73 0.68 0.70 0.60 0.52 0.43 0.39 0.37 0.36 0.35 0.38 0.41 0.44 0.49 0.45 0.45 0.47 0.48
0.06 0.05 0.07 0.09 0.16 0.41 0.75 1.05 0.91 0.45 0.29 0.15 0.11 0.11 0.12 0.16 0.24 0.26 0.27 0.31 0.39 0.42 0.46 0.54 0.64 0.66 0.62 0.66 0.68 0.63 0.69 0.70 0.68 0.66 0.58 0.52 0.54 0.45 0.42 0.38 0.40 0.43 0.44 0.47 0.50 0.48 0.47 0.49 0.47
0.06 0.06 0.07 0.10 0.18 0.36 0.65 1.00 1.05 0.62 0.33 0.18 0.14 0.15 0.14 0.14 0.17 0.16 0.17 0.19 0.24 0.33 0.44 0.52 0.56 0.60 0.58 0.59 0.58 0.51 0.58 0.67 0.73 0.68 0.59 0.57 0.59 0.52 0.51 0.48 0.46 0.48 0.49 0.49 0.52 0.50 0.54 0.57 0.59
0.09 0.08 0.10 0.10 0.11 0.21 0.48 0.70 0.52 0.42 0.30 0.24 0.20 0.16 0.13 0.14 0.17 0.14 0.11 0.12 0.16 0.24 0.35 0.42 0.51 0.58 0.58 0.58 0.63 0.66 0.64 0.60 0.68 0.70 0.69 0.70 0.71 0.61 0.59 0.59 0.59 0.58 0.58 0.60 0.64 0.63 0.65 0.71 0.80
0.11 0.11 0.12 0.13 0.12 0.12 0.25 0.37 0.33 0.41 0.39 0.30 0.22 0.20 0.17 0.15 0.13 0.10 0.10 0.12 0.16 0.20 0.27 0.34 0.40 0.50 0.53 0.55 0.62 0.68 0.73 0.65 0.67 0.71 0.73 0.74 0.79 0.81 0.76 0.72 0.69 0.62 0.61 0.68 0.71 0.74 0.71 0.73 0.79

GEFSSGP_prec_meanprecacc_144.txt.gz
Total_Precipitation_Accumulation
0.01 0.07 0.23 0.51 1.15 1.49 1.28 0.70 0.53 0.42 0.42 0.43 0.45 0.43 0.45 0.49 0.77 1.11 0.68 0.36 0.13 0.03 0.03 0.12 0.24 0.23 0.20 0.18 0.18 0.19 0.19 0.18 0.16 0.14 0.11 0.10 0.10 0.09 0.10 0.10 0.10 0.12 0.15 0.17 0.20 0.22 0.20 0.21 0.25
0.04 0.11 0.31 0.78 1.45 1.48 1.09 0.59 0.44 0.35 0.39 0.39 0.36 0.40 0.52 0.57 0.45 0.44 0.47 0.36 0.13 0.05 0.03 0.05 0.16 0.22 0.21 0.20 0.19 0.20 0.19 0.18 0.16 0.14 0.12 0.11 0.11 0.10 0.11 0.12 0.13 0.15 0.17 0.19 0.21 0.19 0.19 0.22 0.25
0.07 0.14 0.35 0.80 0.97 0.95 0.75 0.47 0.38 0.31 0.42 0.58 0.49 0.41 0.53 0.67 0.49 0.40 0.37 0.22 0.12 0.08 0.06 0.08 0.14 0.17 0.20 0.20 0.21 0.20 0.19 0.18 0.16 0.15 0.13 0.13 0.13 0.15 0.15 0.14 0.16 0.19 0.20 0.22 0.22 0.18 0.20 0.18 0.18
0.07 0.20 0.39 0.52 0.40 0.36 0.38 0.38 0.36 0.40 0.62 0.78 0.64 0.52 0.55 0.52 0.49 0.41 0.32 0.21 0.15 0.11 0.11 0.13 0.17 0.18 0.19 0.19 0.21 0.21 0.18 0.16 0.15 0.15 0.15 0.16 0.18 0.20 0.17 0.17 0.20 0.20 0.22 0.25 0.27 0.21 0.20 0.19 0.19
0.07 0.26 0.50 0.37 0.22 0.22 0.23 0.28 0.42 0.48 0.73 0.81 0.60 0.62 0.68 0.58 0.56 0.53 0.38 0.32 0.30 0.31 0.28 0.26 0.27 0.24 0.22 0.21 0.21 0.23 0.21 0.19 0.17 0.16 0.17 0.19 0.21 0.23 0.23 0.23 0.25 0.23 0.23 0.28 0.31 0.27 0.22 0.25 0.28
0.06 0.19 0.32 0.23 0.14 0.13 0.16 0.23 0.37 0.51 0.72 0.79 0.63 0.81 0.84 0.81 0.76 0.73 0.69 0.69 0.63 0.68 0.61 0.51 0.48 0.38 0.31 0.27 0.27 0.27 0.26 0.23 0.22 0.21 0.21 0.22 0.23 0.24 0.27 0.28 0.30 0.29 0.30 0.32 0.32 0.27 0.28 0.33 0.38
0.03 0.13 0.19 0.13 0.08 0.09 0.17 0.23 0.40 0.56 0.72 0.94 0.90 0.98 0.97 1.05 1.01 0.93 0.94 0.97 0.99 0.96 0.90 0.68 0.53 0.48 0.42 0.43 0.38 0.34 0.32 0.30 0.29 0.28 0.25 0.25 0.25 0.24 0.26 0.32 0.34 0.34 0.34 0.37 0.36 0.34 0.36 0.40 0.40
0.02 0.05 0.09 0.07 0.04 0.06 0.13 0.24 0.38 0.54 0.79 0.93 0.94 1.01 1.01 0.97 1.03 1.11 1.15 1.26 1.43 1.26 1.10 0.81 0.64 0.64 0.54 0.48 0.45 0.41 0.37 0.34 0.33 0.33 0.33 0.34 0.33 0.31 0.35 0.38 0.42 0.41 0.39 0.38 0.41 0.43 0.45 0.47 0.45
0.01 0.02 0.04 0.04 0.02 0.04 0.13 0.30 0.43 0.47 0.62 0.92 1.17 1.02 0.85 0.92 1.19 1.33 1.53 1.59 1.74 1.65 1.24 0.87 0.80 0.90 0.78 0.59 0.53 0.59 0.54 0.52 0.52 0.56 0.54 0.64 0.79 0.76 0.79 0.65 0.64 0.63 0.66 0.67 0.69 0.70 0.73 0.70 0.56
0.00 0.02 0.03 0.02 0.01 0.03 0.14 0.36 0.51 0.60 0.88 1.21 1.43 1.24 1.00 0.97 1.36 1.64 1.70 1.69 1.50 1.61 1.55 1.18 0.99 0.96 0.88 0.74 0.72 0.99 1.01 1.02 1.08 1.17 1.12 1.26 1.27 1.12 0.86 0.84 0.99 0.99 1.13 1.24 1.38 1.47 1.29 1.06 0.90
0.00 0.01 0.01 0.02 0.01 0.05 0.18 0.21 0.29 0.54 1.10 1.49 1.74 1.36 1.09 1.12 1.43 1.86 1.93 1.81 1.56 1.59 1.50 1.47 1.24 1.10 1.05 1.10 1.03 1.15 1.30 1.41 1.51 1.46 1.50 1.65 1.42 1.19 1.05 1.17 1.41 1.46 1.57 1.69 1.94 2.07 1.56 1.57 1.82
0.00 0.00 0.01 0.01 0.01 0.03 0.10 0.19 0.33 0.63 1.11 1.38 1.28 1.13 1.11 1.27 1.45 1.95 2.18 1.96 1.80 1.74 1.68 1.88 1.75 1.60 1.54 1.43 1.41 1.25 1.21 1.29 1.42 1.49 1.51 1.64 1.59 1.46 1.47 1.52 1.56 1.74 1.91 2.15 2.10 2.23 2.24 2.34 2.24
0.00 0.00 0.01 0.01 0.02 0.03 0.08 0.19 0.30 0.53 0.82 0.88 0.79 0.95 1.34 1.40 1.60 2.09 2.57 2.48 2.28 2.12 2.16 2.32 2.29 2.35 2.23 1.93 1.71 1.37 1.29 1.25 1.27 1.36 1.38 1.59 1.81 1.79 1.87 1.67 1.65 1.47 1.73 2.09 2.30 2.35 2.58 2.71 2.66
0.00 0.01 0.01 0.02 0.04 0.05 0.08 0.16 0.32 0.70 0.72 0.67 0.80 1.09 1.40 1.71 1.76 2.11 2.70 2.81 2.70 2.69 2.84 2.86 2.86 2.80 2.65 2.20 1.92 1.69 1.42 1.39 1.33 1.37 1.47 1.89 2.07 1.95 1.99 1.91 1.81 1.58 1.69 2.00 2.34 2.42 2.69 2.68 2.74
0.01 0.03 0.08 0.09 0.07 0.08 0.11 0.34 0.58 0.76 0.73 0.74 0.96 1.17 1.58 2.05 2.16 2.35 2.74 2.95 3.09 3.34 3.50 3.62 3.54 3.20 3.08 2.69 2.17 1.83 1.54 1.34 1.39 1.56 1.70 1.98 2.13 2.20 2.32 2.23 1.89 1.72 1.86 2.03 2.04 2.17 2.63 2.49 2.49
0.02 0.06 0.23 0.17 0.09 0.09 0.17 0.56 0.77 0.80 0.83 0.89 1.10 1.42 1.72 2.13 2.13 2.28 2.58 3.02 3.42 3.89 4.25 4.34 4.06 3.86 3.69 3.21 2.72 2.34 2.08 1.84 1.83 1.85 1.76 1.69 1.89 2.03 2.13 1.86 1.51 1.66 1.91 2.04 1.97 1.98 2.34 2.40 2.44
0.05 0.09 0.18 0.18 0.12 0.11 0.20 0.57 0.62 0.53 0.86 1.21 1.41 1.59 1.71 1.85 1.94 2.13 2.42 2.95 3.51 4.15 4.78 5.01 5.06 4.55 4.03 3.37 2.89 2.46 2.32 2.14 1.98 1.80 1.61 1.42 1.31 1.30 1.39 1.25 1.18 1.33 1.58 1.60 1.43 1.57 1.84 1.98 2.12
0.04 0.08 0.14 0.19 0.16 0.16 0.27 0.51 0.64 0.55 0.82 1.12 1.18 1.47 1.57 1.56 1.75 2.11 2.60 2.98 3.64 4.28 4.87 5.12 5.17 4.61 3.83 3.33 3.10 2.76 2.43 2.18 1.93 1.63 1.38 1.13 1.05 0.96 1.02 1.01 0.93 0.98 1.04 1.09 1.24 1.43 1.56 1.49 1.59
0.03 0.07 0.15 0.17 0.16 0.23 0.37 0.62 0.75 0.72 0.75 0.86 0.99 1.18 1.22 1.26 1.53 1.97 2.59 3.15 3.77 4.65 5.16 5.20 4.82 4.01 3.37 2.82 2.55 2.31 2.09 1.89 1.61 1.32 1.10 0.97 0.93 0.83 0.85 0.81 0.81 0.82 0.80 0.82 0.97 1.09 1.13 0.98 1.16
0.05 0.09 0.17 0.16 0.12 0.14 0.34 0.65 0.74 0.80 0.85 0.83 0.88 0.98 0.91 1.03 1.36 1.98 2.73 3.43 3.90 4.27 4.52 4.45 3.90 3.10 2.59 2.22 2.12 1.94 1.75 1.43 1.26 1.10 0.99 0.85 0.78 0.72 0.69 0.73 0.67 0.63 0.69 0.70 0.74 0.85 0.88 0.80 0.90
0.08 0.09 0.14 0.17 0.13 0.15 0.35 0.76 0.88 0.86 0.84 0.82 0.69 0.69 0.80 1.00 1.57 2.31 3.08 3.66 3.75 3.65 3.35 2.98 2.66 2.26 2.10 1.99 1.81 1.63 1.55 1.30 1.08 0.86 0.75 0.66 0.58 0.52 0.50 0.49 0.48 0.50 0.52 0.56 0.62 0.70 0.76 0.72 0.67
0.09 0.07 0.05 0.07 0.11 0.32 0.45 0.87 0.95 0.96 0.93 0.77 0.67 0.72 0.87 1.13 1.68 2.38 2.91 3.00 2.98 2.74 2.35 2.11 2.00 1.89 1.78 1.68 1.55 1.28 1.08 1.03 0.88 0.73 0.66 0.59 0.49 0.45 0.42 0.39 0.39 0.38 0.37 0.46 0.44 0.53 0.65 0.68 0.58
0.05 0.04 0.04 0.08 0.18 0.34 0.47 0.74 0.98 0.96 1.06 0.68 0.50 0.59 0.72 0.96 1.24 1.45 1.63 1.67 1.72 1.64 1.70 1.75 1.80 1.80 1.71 1.61 1.49 1.32 1.06 1.00 0.95 0.88 0.81 0.72 0.61 0.50 0.44 0.43 0.39 0.37 0.33 0.35 0.37 0.47 0.56 0.63 0.58
0.04 0.06 0.12 0.21 0.36 0.70 0.69 0.80 1.08 1.04 0.89 0.49 0.30 0.36 0.55 0.69 0.75 0.82 0.86 0.88 1.06 1.07 1.17 1.30 1.35 1.48 1.55 1.48 1.31 1.19 1.05 1.00 0.97 0.86 0.73 0.63 0.57 0.53 0.48 0.47 0.48 0.43 0.40 0.39 0.38 0.41 0.45 0.57 0.65
0.05 0.09 0.31 0.63 0.98 1.03 0.61 0.70 1.06 0.98 0.64 0.35 0.22 0.19 0.26 0.41 0.58 0.69 0.74 0.78 0.89 0.82 0.86 0.98 1.04 1.06 1.13 1.12 1.04 0.99 1.00 0.96 0.89 0.77 0.66 0.56 0.44 0.42 0.42 0.42 0.44 0.46 0.47 0.46 0.45 0.45 0.44 0.49 0.58
0.06 0.07 0.18 0.35 0.45 0.60 0.63 1.09 1.28 0.70 0.39 0.23 0.16 0.13 0.17 0.28 0.44 0.52 0.50 0.56 0.63 0.59 0.63 0.75 0.85 0.85 0.86 0.88 0.87 0.84 0.88 0.79 0.74 0.78 0.68 0.58 0.48 0.42 0.40 0.39 0.39 0.42 0.47 0.49 0.54 0.50 0.50 0.51 0.52
0.06 0.05 0.07 0.09 0.16 0.42 0.77 1.08 0.96 0.54 0.37 0.21 0.16 0.14 0.15 0.20 0.30 0.36 0.31 0.33 0.42 0.48 0.52 0.60 0.72 0.77 0.74 0.77 0.78 0.72 0.76 0.77 0.75 0.72 0.64 0.56 0.58 0.50 0.47 0.44 0.47 0.50 0.53 0.55 0.59 0.56 0.54 0.54 0.52
0.06 0.06 0.07 0.10 0.18 0.37 0.67 1.05 1.17 0.82 0.43 0.24 0.22 0.22 0.20 0.19 0.22 0.22 0.23 0.24 0.28 0.38 0.49 0.57 0.65 0.71 0.69 0.70 0.70 0.60 0.68 0.75 0.81 0.74 0.64 0.60 0.63 0.56 0.56 0.54 0.53 0.56 0.57 0.57 0.61 0.60 0.64 0.66 0.66
0.09 0.08 0.10 0.10 0.11 0.21 0.50 0.74 0.60 0.56 0.36 0.30 0.28 0.25 0.22 0.20 0.21 0.19 0.17 0.17 0.20 0.27 0.40 0.50 0.61 0.67 0.68 0.67 0.71 0.76 0.74 0.67 0.74 0.75 0.74 0.74 0.77 0.67 0.66 0.66 0.67 0.67 0.68 0.70 0.74 0.74 0.77 0.82 0.91
0.11 0.11 0.12 0.13 0.12 0.12 0.26 0.38 0.36 0.50 0.45 0.37 0.32 0.31 0.31 0.21 0.18 0.19 0.19 0.17 0.20 0.23 0.30 0.38 0.47 0.58 0.62 0.64 0.72 0.77 0.80 0.71 0.73 0.75 0.79 0.81 0.87 0.92 0.86 0.80 0.78 0.73 0.74 0.81 0.84 0.87 0.83 0.83 0.88

GEFSSGP_prec_meanprecacc_150.txt.gz
Total_Precipitation_Accumulation
0.01 0.07 0.24 0.52 1.15 1.49 1.29 0.71 0.53 0.42 0.42 0.43 0.45 0.43 0.45 0.50 0.78 1.12 0.69 0.36 0.13 0.04 0.05 0.15 0.28 0.25 0.21 0.19 0.18 0.19 0.19 0.18 0.17 0.14 0.11 0.10 0.10 0.10 0.10 0.11 0.12 0.14 0.16 0.19 0.23 0.23 0.22 0.24 0.28
0.04 0.11 0.32 0.79 1.45 1.49 1.10 0.60 0.45 0.36 0.39 0.39 0.36 0.40 0.52 0.57 0.45 0.44 0.48 0.36 0.13 0.05 0.03 0.06 0.19 0.24 0.22 0.20 0.20 0.20 0.20 0.18 0.16 0.14 0.12 0.11 0.11 0.11 0.12 0.13 0.14 0.17 0.19 0.20 0.23 0.21 0.22 0.25 0.29
0.07 0.15 0.35 0.80 0.98 0.96 0.76 0.48 0.41 0.32 0.43 0.58 0.49 0.41 0.53 0.67 0.50 0.40 0.37 0.22 0.12 0.09 0.07 0.10 0.17 0.19 0.21 0.21 0.22 0.21 0.19 0.18 0.16 0.15 0.13 0.14 0.13 0.16 0.16 0.16 0.18 0.21 0.23 0.24 0.25 0.21 0.24 0.22 0.23
0.08 0.21 0.39 0.52 0.41 0.38 0.39 0.40 0.40 0.43 0.63 0.78 0.64 0.52 0.56 0.53 0.49 0.42 0.32 0.21 0.15 0.12 0.11 0.14 0.19 0.20 0.21 0.22 0.22 0.22 0.19 0.17 0.16 0.15 0.15 0.17 0.20 0.22 0.19 0.19 0.23 0.23 0.24 0.27 0.29 0.23 0.22 0.22 0.24
0.07 0.26 0.51 0.37 0.22 0.23 0.24 0.29 0.44 0.50 0.74 0.82 0.61 0.62 0.68 0.60 0.57 0.54 0.39 0.33 0.30 0.32 0.29 0.27 0.29 0.26 0.25 0.24 0.24 0.24 0.22 0.20 0.18 0.16 0.18 0.21 0.22 0.25 0.26 0.26 0.28 0.25 0.26 0.30 0.34 0.29 0.25 0.31 0.37
0.06 0.20 0.32 0.23 0.14 0.13 0.17 0.24 0.38 0.51 0.73 0.79 0.64 0.81 0.84 0.83 0.80 0.75 0.70 0.71 0.65 0.69 0.62 0.54 0.50 0.41 0.34 0.30 0.30 0.30 0.28 0.24 0.23 0.22 0.22 0.23 0.25 0.26 0.29 0.31 0.33 0.31 0.33 0.35 0.34 0.30 0.31 0.38 0.43
0.04 0.14 0.19 0.13 0.08 0.10 0.17 0.24 0.41 0.56 0.73 0.94 0.90 0.98 0.98 1.06 1.04 0.97 0.95 0.98 1.01 0.98 0.92 0.71 0.57 0.51 0.45 0.45 0.41 0.37 0.34 0.32 0.31 0.30 0.26 0.26 0.26 0.26 0.28 0.35 0.38 0.36 0.37 0.39 0.39 0.37 0.40 0.43 0.45
0.02 0.05 0.09 0.07 0.04 0.06 0.14 0.24 0.38 0.54 0.79 0.94 0.95 1.01 1.01 0.98 1.04 1.12 1.16 1.28 1.45 1.28 1.12 0.84 0.68 0.68 0.56 0.51 0.49 0.44 0.39 0.36 0.36 0.35 0.35 0.35 0.35 0.34 0.38 0.42 0.45 0.43 0.41 0.41 0.44 0.47 0.49 0.51 0.50
0.01 0.02 0.04 0.04 0.02 0.04 0.13 0.30 0.43 0.47 0.62 0.93 1.17 1.02 0.85 0.92 1.20 1.35 1.56 1.63 1.77 1.67 1.26 0.89 0.85 0.95 0.82 0.62 0.56 0.62 0.56 0.54 0.55 0.59 0.58 0.66 0.80 0.77 0.80 0.67 0.66 0.65 0.68 0.69 0.72 0.74 0.77 0.75 0.61
0.00 0.02 0.03 0.02 0.01 0.03 0.14 0.36 0.51 0.60 0.88 1.22 1.43 1.24 1.00 0.97 1.37 1.68 1.76 1.80 1.54 1.63 1.58 1.21 1.01 0.99 0.92 0.77 0.75 1.02 1.03 1.03 1.09 1.19 1.13 1.26 1.28 1.13 0.87 0.86 1.02 1.02 1.15 1.26 1.42 1.53 1.33 1.08 0.93
0.00 0.01 0.01 0.02 0.01 0.05 0.18 0.21 0.29 0.54 1.10 1.50 1.74 1.36 1.09 1.13 1.44 1.89 1.99 1.87 1.59 1.61 1.53 1.51 1.27 1.12 1.08 1.14 1.07 1.19 1.32 1.42 1.52 1.47 1.50 1.66 1.42 1.19 1.06 1.19 1.45 1.48 1.59 1.70 1.96 2.09 1.58 1.59 1.85
0.00 0.00 0.01 0.01 0.01 0.03 0.11 0.19 0.33 0.63 1.11 1.38 1.29 1.13 1.12 1.28 1.46 1.96 2.22 2.01 1.85 1.78 1.71 1.94 1.80 1.63 1.56 1.47 1.46 1.30 1.24 1.31 1.43 1.50 1.51 1.65 1.59 1.46 1.47 1.53 1.57 1.75 1.92 2.16 2.11 2.24 2.25 2.36 2.26
0.00 0.00 0.01 0.01 0.02 0.03 0.08 0.19 0.30 0.53 0.82 0.88 0.79 0.95 1.34 1.41 1.62 2.11 2.61 2.54 2.37 2.19 2.22 2.40 2.38 2.41 2.26 1.96 1.75 1.42 1.33 1.27 1.28 1.36 1.39 1.60 1.82 1.80 1.87 1.67 1.65 1.47 1.73 2.10 2.32 2.36 2.60 2.73 2.68
0.00 0.01 0.01 0.02 0.04 0.05 0.08 0.16 0.32 0.70 0.72 0.67 0.80 1.10 1.41 1.73 1.80 2.16 2.76 2.88 2.80 2.78 2.93 2.93 2.94 2.88 2.71 2.24 1.95 1.73 1.46 1.43 1.35 1.38 1.48 1.91 2.08 1.96 2.01 1.92 1.81 1.58 1.70 2.02 2.35 2.43 2.70 2.70 2.76
0.01 0.03 0.08 0.09 0.07 0.08 0.11 0.34 0.58 0.76 0.73 0.74 0.96 1.17 1.59 2.10 2.25 2.44 2.82 3.02 3.18 3.44 3.60 3.73 3.66 3.31 3.18 2.77 2.21 1.87 1.59 1.39 1.44 1.58 1.72 2.00 2.15 2.22 2.34 2.25 1.90 1.73 1.88 2.05 2.06 2.20 2.66 2.52 2.52
0.02 0.06 0.23 0.17 0.09 0.10 0.17 0.56 0.77 0.80 0.83 0.90 1.11 1.42 1.73 2.16 2.18 2.37 2.65 3.10 3.53 4.01 4.38 4.51 4.27 4.04 3.81 3.31 2.79 2.41 2.16 1.94 1.91 1.90 1.80 1.72 1.91 2.04 2.15 1.89 1.54 1.68 1.92 2.07 2.00 2.01 2.37 2.44 2.49
0.05 0.09 0.18 0.18 0.12 0.11 0.20 0.57 0.62 0.53 0.87 1.21 1.42 1.60 1.72 1.87 1.97 2.16 2.45 3.01 3.63 4.31 4.97 5.29 5.43 4.86 4.21 3.52 3.01 2.61 2.48 2.31 2.10 1.87 1.66 1.46 1.34 1.32 1.41 1.28 1.20 1.35 1.60 1.64 1.46 1.59 1.87 2.02 2.17
0.04 0.08 0.14 0.19 0.16 0.16 0.27 0.51 0.64 0.56 0.83 1.13 1.19 1.47 1.58 1.58 1.77 2.14 2.63 3.04 3.77 4.48 5.13 5.48 5.59 4.91 4.03 3.51 3.27 2.93 2.62 2.34 2.04 1.70 1.44 1.19 1.10 0.99 1.05 1.05 0.97 1.01 1.05 1.11 1.25 1.44 1.58 1.53 1.63
0.03 0.07 0.15 0.17 0.16 0.23 0.37 0.62 0.75 0.73 0.77 0.89 1.00 1.19 1.23 1.28 1.55 2.00 2.62 3.22 3.90 4.88 5.43 5.48 5.10 4.21 3.53 2.99 2.73 2.46 2.21 1.98 1.69 1.37 1.15 1.03 0.99 0.89 0.90 0.86 0.84 0.85 0.82 0.83 0.98 1.10 1.14 1.01 1.18
0.05 0.09 0.17 0.16 0.12 0.14 0.34 0.65 0.75 0.81 0.86 0.84 0.89 0.99 0.92 1.04 1.38 2.01 2.78 3.52 4.02 4.45 4.70 4.62 4.09 3.26 2.74 2.38 2.29 2.09 1.86 1.50 1.33 1.16 1.03 0.90 0.84 0.78 0.75 0.77 0.71 0.67 0.72 0.72 0.75 0.87 0.90 0.82 0.93
0.08 0.09 0.14 0.17 0.13 0.15 0.35 0.76 0.88 0.87 0.85 0.82 0.71 0.71 0.81 1.02 1.59 2.36 3.16 3.77 3.89 3.80 3.51 3.13 2.81 2.41 2.25 2.18 2.00 1.78 1.67 1.39 1.14 0.91 0.81 0.73 0.64 0.57 0.55 0.53 0.52 0.54 0.55 0.58 0.64 0.72 0.79 0.74 0.69
0.09 0.07 0.05 0.07 0.11 0.32 0.45 0.87 0.96 0.96 0.94 0.78 0.68 0.75 0.90 1.15 1.70 2.42 2.97 3.10 3.10 2.87 2.50 2.23 2.12 2.03 1.92 1.83 1.69 1.38 1.15 1.08 0.93 0.81 0.74 0.67 0.55 0.49 0.46 0.43 0.41 0.41 0.40 0.48 0.47 0.57 0.69 0.71 0.61
0.05 0.04 0.04 0.08 0.18 0.34 0.47 0.75 0.99 0.97 1.07 0.68 0.51 0.61 0.74 0.98 1.27 1.50 1.71 1.78 1.84 1.76 1.82 1.85 1.90 1.91 1.81 1.72 1.60 1.41 1.14 1.06 1.01 0.97 0.92 0.81 0.67 0.56 0.48 0.46 0.42 0.40 0.35 0.38 0.42 0.51 0.61 0.68 0.62
0.04 0.06 0.12 0.21 0.36 0.70 0.69 0.80 1.08 1.04 0.89 0.50 0.32 0.37 0.57 0.72 0.78 0.87 0.93 0.96 1.15 1.17 1.26 1.38 1.44 1.55 1.63 1.57 1.39 1.28 1.14 1.08 1.05 0.95 0.82 0.70 0.63 0.59 0.51 0.50 0.52 0.47 0.43 0.40 0.40 0.45 0.49 0.60 0.68
0.05 0.09 0.31 0.63 0.98 1.03 0.61 0.70 1.06 0.98 0.65 0.35 0.23 0.21 0.28 0.43 0.62 0.74 0.80 0.83 0.97 0.90 0.91 1.04 1.12 1.13 1.20 1.19 1.11 1.07 1.08 1.04 0.96 0.85 0.74 0.62 0.49 0.46 0.45 0.45 0.47 0.49 0.50 0.49 0.48 0.48 0.47 0.52 0.60
0.06 0.07 0.18 0.35 0.45 0.60 0.63 1.09 1.28 0.70 0.39 0.24 0.17 0.15 0.20 0.32 0.49 0.57 0.55 0.62 0.70 0.63 0.67 0.80 0.90 0.91 0.92 0.94 0.95 0.92 0.96 0.85 0.80 0.85 0.75 0.63 0.52 0.46 0.45 0.44 0.42 0.45 0.50 0.53 0.59 0.55 0.54 0.57 0.56
0.06 0.05 0.07 0.09 0.16 0.42 0.77 1.08 0.97 0.54 0.37 0.21 0.17 0.16 0.18 0.24 0.35 0.40 0.34 0.37 0.46 0.52 0.56 0.64 0.77 0.82 0.78 0.81 0.84 0.80 0.85 0.85 0.83 0.81 0.72 0.60 0.61 0.53 0.51 0.49 0.52 0.56 0.59 0.63 0.66 0.61 0.58 0.60 0.56
0.06 0.06 0.07 0.10 0.18 0.37 0.67 1.05 1.17 0.82 0.44 0.25 0.23 0.24 0.23 0.22 0.26 0.26 0.27 0.26 0.32 0.42 0.52 0.61 0.70 0.75 0.73 0.75 0.76 0.66 0.75 0.82 0.88 0.82 0.72 0.64 0.67 0.60 0.61 0.60 0.59 0.63 0.63 0.63 0.67 0.65 0.70 0.73 0.72
0.09 0.08 0.10 0.10 0.11 0.21 0.50 0.74 0.60 0.56 0.36 0.31 0.29 0.29 0.24 0.22 0.24 0.22 0.20 0.21 0.25 0.31 0.43 0.53 0.66 0.71 0.71 0.72 0.79 0.84 0.83 0.74 0.80 0.80 0.79 0.79 0.81 0.72 0.73 0.73 0.74 0.73 0.74 0.78 0.82 0.82 0.87 0.94 1.03
0.11 0.11 0.12 0.13 0.12 0.12 0.26 0.38 0.36 0.50 0.45 0.38 0.34 0.34 0.34 0.23 0.21 0.23 0.22 0.20 0.24 0.27 0.33 0.42 0.52 0.63 0.67 0.70 0.80 0.86 0.91 0.82 0.80 0.81 0.83 0.85 0.91 0.96 0.93 0.87 0.86 0.81 0.84 0.93 0.95 0.97 0.94 0.93 0.96

GEFSSGP_prec_meanprecacc_156.txt.gz
Total_Precipitation_Accumulation
0.01 0.07 0.24 0.52 1.15 1.49 1.29 0.71 0.53 0.42 0.42 0.43 0.45 0.43 0.45 0.50 0.78 1.13 0.70 0.37 0.14 0.04 0.05 0.17 0.30 0.26 0.22 0.21 0.20 0.21 0.21 0.19 0.18 0.15 0.13 0.11 0.11 0.10 0.12 0.13 0.15 0.17 0.20 0.23 0.26 0.27 0.25 0.26 0.33
0.04 0.11 0.32 0.79 1.45 1.49 1.10 0.60 0.46 0.36 0.39 0.39 0.36 0.40 0.52 0.58 0.45 0.44 0.49 0.37 0.14 0.05 0.03 0.07 0.21 0.25 0.23 0.21 0.21 0.22 0.21 0.18 0.17 0.15 0.12 0.12 0.12 0.12 0.14 0.16 0.18 0.21 0.23 0.22 0.25 0.23 0.25 0.29 0.34
0.07 0.15 0.35 0.80 0.98 0.96 0.76 0.48 0.41 0.32 0.43 0.58 0.49 0.41 0.53 0.68 0.51 0.41 0.38 0.22 0.13 0.10 0.07 0.11 0.19 0.21 0.22 0.23 0.23 0.22 0.20 0.18 0.17 0.15 0.13 0.14 0.15 0.18 0.19 0.20 0.22 0.25 0.25 0.26 0.27 0.24 0.27 0.26 0.29
0.08 0.21 0.40 0.52 0.41 0.38 0.39 0.40 0.40 0.43 0.63 0.78 0.64 0.52 0.56 0.53 0.50 0.42 0.32 0.21 0.16 0.13 0.12 0.15 0.21 0.22 0.23 0.24 0.24 0.22 0.20 0.18 0.16 0.16 0.16 0.18 0.21 0.25 0.24 0.26 0.27 0.25 0.26 0.31 0.34 0.28 0.28 0.29 0.29
0.07 0.27 0.51 0.37 0.22 0.23 0.24 0.29 0.44 0.50 0.74 0.82 0.61 0.62 0.68 0.60 0.58 0.54 0.39 0.34 0.31 0.33 0.31 0.29 0.30 0.28 0.27 0.26 0.27 0.25 0.23 0.21 0.18 0.17 0.19 0.22 0.24 0.29 0.31 0.32 0.32 0.28 0.28 0.33 0.38 0.33 0.31 0.38 0.44
0.06 0.20 0.32 0.23 0.14 0.13 0.17 0.24 0.38 0.51 0.73 0.79 0.64 0.81 0.85 0.84 0.81 0.75 0.71 0.72 0.66 0.72 0.64 0.57 0.54 0.44 0.38 0.33 0.32 0.32 0.30 0.26 0.25 0.23 0.23 0.24 0.27 0.29 0.34 0.35 0.36 0.34 0.34 0.38 0.39 0.34 0.37 0.44 0.50
0.04 0.14 0.19 0.13 0.08 0.10 0.17 0.24 0.41 0.56 0.73 0.94 0.90 0.98 0.98 1.06 1.04 0.97 0.95 0.99 1.02 1.00 0.95 0.75 0.63 0.57 0.49 0.50 0.44 0.39 0.37 0.35 0.34 0.33 0.29 0.29 0.28 0.29 0.32 0.39 0.41 0.37 0.39 0.42 0.44 0.42 0.47 0.50 0.51
0.02 0.05 0.09 0.07 0.04 0.06 0.14 0.24 0.38 0.54 0.79 0.94 0.95 1.01 1.01 0.98 1.04 1.12 1.17 1.28 1.47 1.30 1.15 0.88 0.74 0.76 0.62 0.56 0.54 0.49 0.41 0.39 0.39 0.39 0.38 0.38 0.37 0.37 0.41 0.45 0.48 0.45 0.43 0.45 0.51 0.53 0.54 0.55 0.55
0.01 0.02 0.04 0.04 0.02 0.04 0.13 0.30 0.43 0.47 0.62 0.93 1.17 1.02 0.85 0.92 1.20 1.36 1.57 1.65 1.79 1.69 1.28 0.91 0.88 0.98 0.84 0.66 0.62 0.69 0.61 0.58 0.58 0.63 0.61 0.70 0.87 0.81 0.83 0.70 0.69 0.67 0.70 0.73 0.79 0.80 0.81 0.78 0.67
0.00 0.02 0.03 0.02 0.01 0.03 0.14 0.36 0.51 0.60 0.88 1.22 1.43 1.24 1.00 0.97 1.38 1.69 1.77 1.82 1.56 1.65 1.60 1.24 1.04 1.01 0.94 0.81 0.83 1.11 1.09 1.08 1.14 1.23 1.17 1.32 1.34 1.18 0.90 0.90 1.07 1.05 1.18 1.30 1.47 1.57 1.36 1.11 0.96
0.00 0.01 0.01 0.02 0.01 0.05 0.18 0.21 0.29 0.54 1.10 1.50 1.74 1.36 1.09 1.13 1.44 1.90 2.01 1.89 1.60 1.62 1.54 1.53 1.29 1.14 1.10 1.18 1.13 1.25 1.39 1.49 1.58 1.52 1.55 1.71 1.46 1.23 1.09 1.23 1.50 1.53 1.63 1.73 1.98 2.10 1.59 1.60 1.89
0.00 0.00 0.01 0.01 0.01 0.03 0.11 0.19 0.33 0.63 1.11 1.38 1.29 1.13 1.12 1.28 1.47 1.98 2.23 2.02 1.86 1.79 1.72 1.96 1.83 1.67 1.61 1.53 1.52 1.36 1.30 1.37 1.48 1.56 1.56 1.69 1.63 1.50 1.52 1.58 1.61 1.79 1.97 2.21 2.13 2.26 2.28 2.39 2.30
0.00 0.00 0.01 0.01 0.02 0.03 0.08 0.19 0.30 0.53 0.82 0.88 0.79 0.95 1.34 1.41 1.63 2.13 2.63 2.56 2.38 2.20 2.24 2.43 2.42 2.47 2.32 2.02 1.81 1.47 1.39 1.32 1.33 1.41 1.44 1.65 1.86 1.84 1.92 1.72 1.69 1.50 1.76 2.13 2.36 2.40 2.63 2.78 2.72
0.00 0.01 0.01 0.02 0.04 0.05 0.08 0.16 0.32 0.70 0.72 0.67 0.80 1.10 1.41 1.74 1.82 2.18 2.79 2.91 2.82 2.80 2.96 2.97 3.00 2.97 2.78 2.30 2.00 1.79 1.53 1.49 1.39 1.43 1.53 1.96 2.13 2.02 2.05 1.96 1.86 1.63 1.74 2.06 2.41 2.48 2.74 2.74 2.80
0.01 0.03 0.08 0.09 0.07 0.08 0.11 0.34 0.58 0.76 0.73 0.74 0.96 1.17 1.59 2.10 2.26 2.45 2.85 3.08 3.24 3.49 3.66 3.79 3.71 3.39 3.26 2.84 2.25 1.92 1.65 1.45 1.49 1.64 1.76 2.05 2.20 2.28 2.39 2.29 1.95 1.79 1.93 2.11 2.14 2.26 2.69 2.55 2.55
0.02 0.06 0.23 0.17 0.09 0.10 0.17 0.56 0.77 0.80 0.83 0.90 1.12 1.43 1.73 2.17 2.19 2.38 2.68 3.15 3.61 4.06 4.43 4.58 4.34 4.12 3.89 3.39 2.84 2.46 2.20 1.98 1.95 1.97 1.86 1.76 1.96 2.09 2.19 1.93 1.59 1.74 1.98 2.13 2.07 2.06 2.42 2.49 2.53
0.05 0.09 0.18 0.18 0.12 0.11 0.20 0.57 0.62 0.53 0.87 1.24 1.46 1.61 1.72 1.88 1.97 2.17 2.46 3.04 3.68 4.36 5.03 5.38 5.52 4.95 4.30 3.59 3.06 2.66 2.53 2.36 2.16 1.94 1.72 1.50 1.39 1.37 1.46 1.33 1.26 1.42 1.68 1.72 1.52 1.65 1.93 2.07 2.23
0.04 0.08 0.14 0.19 0.16 0.16 0.27 0.51 0.64 0.56 0.83 1.18 1.22 1.48 1.59 1.59 1.78 2.15 2.64 3.05 3.80 4.54 5.22 5.59 5.69 5.04 4.16 3.59 3.33 3.00 2.67 2.40 2.11 1.78 1.53 1.25 1.17 1.06 1.13 1.12 1.03 1.08 1.14 1.19 1.34 1.54 1.65 1.58 1.68
0.03 0.07 0.15 0.17 0.16 0.23 0.37 0.62 0.75 0.73 0.77 0.89 1.01 1.20 1.23 1.29 1.55 2.01 2.64 3.24 3.96 4.97 5.57 5.64 5.24 4.38 3.69 3.07 2.79 2.51 2.26 2.04 1.75 1.43 1.20 1.09 1.06 0.97 1.02 0.95 0.95 0.95 0.90 0.92 1.04 1.17 1.22 1.06 1.23
0.05 0.09 0.17 0.16 0.12 0.14 0.34 0.65 0.75 0.81 0.86 0.84 0.89 0.99 0.93 1.05 1.39 2.02 2.80 3.56 4.10 4.57 4.86 4.82 4.32 3.48 2.92 2.49 2.37 2.16 1.92 1.56 1.41 1.23 1.09 0.96 0.91 0.85 0.83 0.88 0.80 0.76 0.82 0.82 0.85 0.97 0.98 0.87 0.97
0.08 0.09 0.14 0.17 0.13 0.15 0.35 0.76 0.88 0.87 0.85 0.82 0.71 0.72 0.82 1.02 1.60 2.37 3.18 3.85 4.06 4.01 3.76 3.36 3.03 2.61 2.43 2.31 2.09 1.88 1.77 1.48 1.23 0.99 0.88 0.80 0.73 0.66 0.63 0.62 0.59 0.62 0.63 0.67 0.74 0.82 0.89 0.84 0.76
0.09 0.07 0.05 0.07 0.11 0.32 0.45 0.87 0.96 0.96 0.94 0.78 0.68 0.75 0.91 1.16 1.71 2.43 2.99 3.17 3.22 3.07 2.70 2.40 2.27 2.17 2.04 1.94 1.78 1.46 1.24 1.16 1.01 0.90 0.84 0.76 0.65 0.58 0.55 0.51 0.50 0.48 0.45 0.56 0.54 0.63 0.78 0.82 0.69
0.05 0.04 0.04 0.08 0.18 0.34 0.47 0.75 0.99 0.97 1.07 0.68 0.51 0.61 0.75 1.00 1.28 1.51 1.74 1.83 1.93 1.90 1.93 1.93 1.97 2.02 1.89 1.80 1.70 1.51 1.22 1.15 1.11 1.07 1.03 0.92 0.77 0.66 0.56 0.52 0.49 0.47 0.41 0.45 0.48 0.57 0.68 0.75 0.69
0.04 0.06 0.12 0.21 0.36 0.70 0.69 0.80 1.08 1.04 0.89 0.50 0.32 0.37 0.57 0.72 0.79 0.88 0.95 1.00 1.20 1.25 1.33 1.45 1.51 1.62 1.70 1.64 1.47 1.36 1.22 1.18 1.17 1.08 0.91 0.79 0.73 0.68 0.60 0.57 0.60 0.54 0.49 0.47 0.47 0.52 0.56 0.69 0.77
0.05 0.09 0.31 0.63 0.98 1.03 0.61 0.70 1.06 0.98 0.65 0.35 0.23 0.21 0.28 0.44 0.62 0.75 0.81 0.85 0.99 0.96 1.01 1.11 1.18 1.19 1.27 1.25 1.16 1.14 1.17 1.15 1.06 0.97 0.86 0.73 0.57 0.53 0.56 0.53 0.56 0.56 0.57 0.57 0.57 0.58 0.54 0.61 0.70
0.06 0.07 0.18 0.35 0.45 0.60 0.63 1.09 1.28 0.70 0.39 0.24 0.17 0.15 0.20 0.32 0.49 0.57 0.56 0.63 0.72 0.67 0.73 0.84 0.95 0.96 0.97 0.99 1.00 0.98 1.05 0.96 0.90 0.94 0.87 0.74 0.60 0.54 0.54 0.52 0.49 0.52 0.58 0.60 0.68 0.63 0.63 0.64 0.63
0.06 0.05 0.07 0.09 0.16 0.42 0.77 1.08 0.97 0.54 0.37 0.21 0.17 0.16 0.18 0.25 0.36 0.41 0.35 0.39 0.48 0.54 0.59 0.66 0.80 0.86 0.83 0.86 0.90 0.86 0.92 0.93 0.93 0.90 0.83 0.71 0.70 0.60 0.58 0.57 0.60 0.63 0.67 0.70 0.75 0.69 0.66 0.68 0.62
0.06 0.06 0.07 0.10 0.18 0.37 0.67 1.05 1.17 0.82 0.44 0.25 0.23 0.25 0.23 0.23 0.26 0.26 0.27 0.27 0.34 0.44 0.55 0.64 0.73 0.79 0.78 0.81 0.82 0.70 0.79 0.88 0.97 0.93 0.82 0.76 0.77 0.67 0.69 0.67 0.66 0.70 0.68 0.68 0.74 0.72 0.77 0.80 0.78
0.09 0.08 0.10 0.10 0.11 0.21 0.50 0.74 0.60 0.56 0.36 0.31 0.29 0.29 0.25 0.23 0.24 0.22 0.20 0.22 0.26 0.33 0.45 0.55 0.69 0.75 0.75 0.77 0.84 0.88 0.87 0.78 0.85 0.87 0.86 0.85 0.88 0.79 0.79 0.81 0.82 0.81 0.81 0.84 0.88 0.87 0.92 1.01 1.13
0.11 0.11 0.12 0.13 0.12 0.12 0.26 0.38 0.36 0.50 0.45 0.38 0.34 0.34 0.34 0.23 0.21 0.23 0.23 0.22 0.25 0.28 0.33 0.42 0.54 0.66 0.70 0.74 0.84 0.90 0.94 0.85 0.83 0.85 0.89 0.91 0.98 1.02 0.98 0.93 0.93 0.87 0.89 0.99 1.02 1.03 1.01 1.01 1.06

GEFSSGP_prec_meanprecacc_162.txt.gz
Total_Precipitation_Accumulation
0.02 0.07 0.24 0.52 1.17 1.51 1.29 0.71 0.53 0.42 0.42 0.44 0.45 0.43 0.45 0.52 0.83 1.19 0.73 0.38 0.14 0.04 0.05 0.17 0.31 0.28 0.24 0.23 0.23 0.25 0.25 0.22 0.21 0.18 0.14 0.13 0.12 0.13 0.15 0.17 0.18 0.20 0.24 0.28 0.31 0.32 0.29 0.30 0.36
0.04 0.11 0.32 0.79 1.46 1.49 1.10 0.60 0.46 0.36 0.39 0.39 0.36 0.40 0.52 0.58 0.46 0.45 0.51 0.37 0.14 0.05 0.03 0.07 0.21 0.26 0.24 0.23 0.24 0.25 0.24 0.21 0.20 0.17 0.14 0.14 0.15 0.15 0.19 0.20 0.21 0.24 0.28 0.29 0.30 0.26 0.29 0.34 0.38
0.07 0.15 0.35 0.81 0.98 0.96 0.76 0.48 0.41 0.32 0.43 0.58 0.49 0.41 0.53 0.68 0.51 0.42 0.39 0.22 0.13 0.10 0.07 0.11 0.19 0.21 0.23 0.24 0.25 0.25 0.23 0.22 0.20 0.18 0.16 0.17 0.18 0.21 0.25 0.26 0.26 0.28 0.29 0.30 0.30 0.27 0.31 0.30 0.33
0.08 0.21 0.40 0.52 0.42 0.38 0.39 0.40 0.40 0.43 0.63 0.78 0.65 0.52 0.56 0.54 0.51 0.43 0.32 0.22 0.16 0.13 0.12 0.15 0.22 0.22 0.24 0.25 0.26 0.25 0.23 0.21 0.19 0.18 0.19 0.21 0.24 0.29 0.29 0.32 0.32 0.29 0.29 0.34 0.37 0.32 0.32 0.32 0.33
0.08 0.27 0.51 0.37 0.23 0.23 0.24 0.29 0.44 0.51 0.74 0.82 0.61 0.62 0.69 0.62 0.58 0.54 0.39 0.34 0.32 0.34 0.31 0.29 0.31 0.28 0.27 0.27 0.28 0.27 0.25 0.23 0.21 0.19 0.21 0.24 0.27 0.32 0.35 0.36 0.36 0.32 0.32 0.37 0.41 0.36 0.34 0.41 0.46
0.07 0.20 0.33 0.24 0.14 0.13 0.17 0.24 0.38 0.51 0.73 0.79 0.64 0.81 0.86 0.85 0.81 0.76 0.71 0.72 0.67 0.72 0.65 0.58 0.55 0.45 0.39 0.34 0.33 0.33 0.32 0.28 0.27 0.26 0.25 0.26 0.29 0.32 0.38 0.39 0.40 0.37 0.38 0.42 0.42 0.38 0.41 0.47 0.51
0.05 0.14 0.20 0.14 0.08 0.10 0.17 0.24 0.41 0.56 0.73 0.94 0.90 0.99 0.99 1.07 1.05 0.97 0.95 0.99 1.03 1.01 0.96 0.76 0.64 0.57 0.50 0.51 0.46 0.41 0.39 0.37 0.36 0.36 0.32 0.31 0.31 0.32 0.35 0.42 0.44 0.41 0.42 0.46 0.47 0.45 0.49 0.51 0.52
0.02 0.06 0.10 0.07 0.05 0.06 0.14 0.24 0.38 0.54 0.79 0.94 0.95 1.01 1.02 0.98 1.04 1.13 1.17 1.29 1.49 1.33 1.16 0.89 0.75 0.78 0.64 0.58 0.55 0.51 0.44 0.41 0.41 0.41 0.41 0.41 0.40 0.40 0.44 0.48 0.51 0.47 0.46 0.49 0.55 0.56 0.55 0.56 0.56
0.01 0.03 0.05 0.05 0.03 0.04 0.13 0.30 0.44 0.47 0.62 0.93 1.17 1.02 0.85 0.93 1.20 1.38 1.59 1.68 1.83 1.73 1.31 0.94 0.89 1.01 0.88 0.68 0.62 0.71 0.64 0.60 0.61 0.65 0.64 0.77 0.99 0.87 0.89 0.73 0.71 0.69 0.72 0.75 0.82 0.82 0.83 0.79 0.67
0.01 0.02 0.03 0.02 0.01 0.03 0.14 0.36 0.51 0.60 0.91 1.24 1.44 1.24 1.00 0.97 1.39 1.72 1.80 1.85 1.59 1.68 1.63 1.28 1.07 1.03 0.97 0.83 0.86 1.17 1.15 1.13 1.23 1.29 1.24 1.48 1.48 1.30 0.95 0.92 1.09 1.07 1.20 1.32 1.50 1.60 1.39 1.14 0.98
0.00 0.01 0.01 0.02 0.01 0.05 0.18 0.21 0.29 0.55 1.12 1.52 1.75 1.36 1.09 1.13 1.45 1.93 2.05 1.93 1.63 1.64 1.57 1.57 1.33 1.17 1.14 1.24 1.19 1.33 1.49 1.59 1.70 1.63 1.66 1.85 1.57 1.30 1.14 1.27 1.53 1.55 1.66 1.78 2.01 2.15 1.65 1.66 1.93
0.00 0.00 0.01 0.01 0.01 0.03 0.11 0.19 0.33 0.63 1.11 1.39 1.29 1.13 1.12 1.28 1.47 1.99 2.25 2.07 1.91 1.82 1.75 2.00 1.87 1.71 1.68 1.59 1.58 1.44 1.37 1.44 1.57 1.65 1.65 1.80 1.75 1.60 1.60 1.69 1.71 1.88 2.06 2.30 2.20 2.34 2.35 2.43 2.31
0.00 0.00 0.01 0.01 0.02 0.03 0.08 0.19 0.30 0.53 0.82 0.88 0.79 0.95 1.34 1.41 1.64 2.14 2.65 2.59 2.43 2.24 2.29 2.49 2.47 2.52 2.39 2.11 1.87 1.51 1.44 1.38 1.40 1.49 1.52 1.73 1.93 1.93 2.02 1.83 1.81 1.59 1.82 2.20 2.44 2.48 2.69 2.83 2.75
0.00 0.01 0.01 0.02 0.04 0.05 0.08 0.17 0.33 0.70 0.72 0.67 0.80 1.10 1.41 1.74 1.82 2.19 2.81 2.96 2.90 2.86 3.04 3.06 3.06 3.03 2.85 2.37 2.07 1.83 1.56 1.54 1.45 1.47 1.57 2.00 2.19 2.10 2.14 2.05 1.94 1.69 1.79 2.13 2.48 2.56 2.81 2.80 2.86
0.01 0.03 0.08 0.09 0.07 0.08 0.12 0.38 0.60 0.76 0.73 0.74 0.96 1.17 1.59 2.10 2.26 2.46 2.86 3.11 3.30 3.56 3.75 3.87 3.79 3.46 3.33 2.91 2.29 1.94 1.68 1.49 1.53 1.68 1.80 2.08 2.24 2.34 2.45 2.36 2.00 1.84 1.98 2.16 2.19 2.33 2.75 2.61 2.61
0.02 0.06 0.23 0.17 0.09 0.10 0.18 0.62 0.79 0.80 0.83 0.90 1.12 1.43 1.73 2.17 2.19 2.39 2.69 3.16 3.65 4.12 4.53 4.69 4.42 4.19 3.98 3.51 2.93 2.50 2.22 2.01 1.99 2.00 1.90 1.78 1.99 2.11 2.24 1.98 1.63 1.78 2.03 2.18 2.13 2.11 2.48 2.55 2.59
0.05 0.09 0.18 0.18 0.12 0.11 0.21 0.59 0.63 0.53 0.87 1.24 1.46 1.61 1.72 1.88 1.97 2.17 2.46 3.04 3.70 4.42 5.14 5.50 5.65 5.04 4.42 3.74 3.21 2.77 2.59 2.41 2.20 1.98 1.78 1.55 1.41 1.38 1.49 1.39 1.32 1.45 1.72 1.78 1.57 1.72 2.00 2.14 2.30
0.04 0.08 0.14 0.19 0.16 0.16 0.27 0.53 0.65 0.56 0.83 1.18 1.22 1.48 1.59 1.59 1.78 2.15 2.64 3.06 3.83 4.61 5.32 5.69 5.79 5.14 4.31 3.79 3.51 3.14 2.77 2.46 2.16 1.83 1.59 1.30 1.20 1.08 1.16 1.16 1.06 1.11 1.19 1.25 1.41 1.63 1.73 1.67 1.75
0.03 0.07 0.15 0.17 0.16 0.23 0.37 0.63 0.75 0.73 0.77 0.90 1.01 1.20 1.23 1.29 1.55 2.01 2.64 3.25 4.00 5.06 5.67 5.73 5.32 4.49 3.85 3.30 2.99 2.67 2.37 2.12 1.81 1.47 1.24 1.11 1.08 1.00 1.07 1.01 1.01 0.99 0.96 0.98 1.10 1.25 1.31 1.15 1.29
0.05 0.09 0.17 0.16 0.12 0.14 0.34 0.65 0.75 0.81 0.86 0.84 0.89 0.99 0.93 1.05 1.40 2.03 2.81 3.58 4.15 4.68 4.98 4.93 4.40 3.58 3.06 2.68 2.56 2.33 2.07 1.67 1.49 1.30 1.17 1.00 0.94 0.89 0.88 0.94 0.84 0.82 0.90 0.88 0.91 1.04 1.07 0.95 1.04
0.08 0.09 0.14 0.17 0.13 0.15 0.35 0.76 0.89 0.88 0.85 0.82 0.71 0.72 0.82 1.02 1.60 2.38 3.19 3.88 4.11 4.08 3.84 3.48 3.17 2.76 2.61 2.50 2.27 2.04 1.92 1.61 1.36 1.11 0.98 0.87 0.78 0.70 0.68 0.68 0.65 0.68 0.68 0.74 0.81 0.88 0.98 0.94 0.85
0.09 0.07 0.05 0.07 0.11 0.32 0.45 0.88 0.98 0.99 0.96 0.78 0.68 0.75 0.91 1.16 1.71 2.44 3.01 3.20 3.26 3.11 2.76 2.52 2.43 2.35 2.23 2.12 1.98 1.64 1.36 1.27 1.14 1.01 0.94 0.85 0.73 0.65 0.61 0.57 0.56 0.55 0.51 0.65 0.59 0.69 0.85 0.91 0.78
0.05 0.04 0.04 0.08 0.18 0.34 0.47 0.75 1.00 1.00 1.08 0.69 0.52 0.61 0.75 1.00 1.29 1.52 1.75 1.88 1.98 1.95 1.99 2.02 2.10 2.16 2.03 1.95 1.88 1.70 1.37 1.29 1.26 1.21 1.18 1.04 0.87 0.75 0.62 0.60 0.58 0.56 0.48 0.53 0.56 0.68 0.76 0.82 0.76
0.04 0.06 0.12 0.21 0.36 0.71 0.69 0.80 1.08 1.06 0.90 0.50 0.32 0.37 0.57 0.72 0.79 0.89 0.97 1.05 1.25 1.28 1.37 1.52 1.60 1.71 1.80 1.75 1.59 1.50 1.36 1.35 1.36 1.25 1.07 0.91 0.86 0.80 0.68 0.65 0.71 0.64 0.60 0.59 0.58 0.63 0.66 0.79 0.86
0.05 0.09 0.31 0.63 0.98 1.04 0.62 0.70 1.07 0.98 0.65 0.35 0.23 0.21 0.28 0.45 0.63 0.76 0.85 0.90 1.03 0.99 1.04 1.16 1.24 1.27 1.36 1.35 1.27 1.24 1.29 1.28 1.19 1.09 0.98 0.85 0.69 0.65 0.68 0.64 0.68 0.66 0.69 0.66 0.67 0.70 0.64 0.70 0.80
0.06 0.07 0.18 0.35 0.45 0.60 0.63 1.10 1.28 0.70 0.39 0.24 0.17 0.15 0.20 0.35 0.52 0.61 0.61 0.66 0.74 0.70 0.78 0.89 1.00 1.04 1.06 1.10 1.11 1.09 1.15 1.07 1.01 1.06 0.98 0.85 0.70 0.65 0.64 0.61 0.59 0.62 0.66 0.69 0.82 0.74 0.73 0.75 0.73
0.06 0.05 0.07 0.09 0.16 0.42 0.77 1.09 0.98 0.55 0.37 0.21 0.17 0.16 0.18 0.26 0.38 0.43 0.36 0.39 0.49 0.57 0.64 0.71 0.86 0.95 0.93 0.98 1.01 0.98 1.03 1.05 1.06 1.04 0.95 0.81 0.79 0.70 0.69 0.65 0.71 0.76 0.78 0.81 0.89 0.82 0.78 0.81 0.74
0.06 0.06 0.07 0.10 0.18 0.37 0.67 1.07 1.19 0.82 0.44 0.25 0.23 0.25 0.23 0.23 0.27 0.29 0.28 0.27 0.34 0.46 0.59 0.69 0.80 0.88 0.90 0.94 0.93 0.79 0.91 0.99 1.10 1.06 0.96 0.88 0.89 0.79 0.80 0.78 0.79 0.85 0.84 0.83 0.90 0.87 0.91 0.95 0.92
0.09 0.08 0.10 0.10 0.11 0.21 0.51 0.75 0.61 0.57 0.37 0.31 0.29 0.29 0.25 0.23 0.25 0.25 0.22 0.23 0.26 0.34 0.48 0.59 0.74 0.81 0.83 0.87 0.94 0.99 0.98 0.89 0.95 0.99 0.98 0.98 0.99 0.90 0.89 0.90 0.94 0.93 0.94 0.98 1.04 1.01 1.06 1.16 1.28
0.11 0.11 0.12 0.13 0.12 0.13 0.26 0.39 0.37 0.52 0.46 0.38 0.35 0.35 0.34 0.23 0.21 0.23 0.25 0.24 0.26 0.29 0.36 0.45 0.58 0.70 0.76 0.83 0.93 1.00 1.05 0.95 0.91 0.94 0.99 1.03 1.09 1.12 1.07 1.01 1.01 0.96 0.98 1.11 1.16 1.19 1.19 1.19 1.22

GEFSSGP_prec_meanprecacc_168.txt.gz
Total_Precipitation_Accumulation
0.04 0.10 0.27 0.54 1.19 1.52 1.30 0.72 0.54 0.42 0.42 0.44 0.45 0.43 0.46 0.53 0.85 1.21 0.77 0.40 0.14 0.05 0.05 0.18 0.33 0.29 0.25 0.24 0.24 0.27 0.27 0.25 0.22 0.19 0.16 0.14 0.14 0.15 0.17 0.19 0.20 0.23 0.27 0.31 0.33 0.35 0.32 0.32 0.39
0.07 0.13 0.34 0.81 1.48 1.49 1.11 0.60 0.46 0.36 0.40 0.40 0.36 0.40 0.52 0.58 0.46 0.46 0.54 0.39 0.14 0.05 0.03 0.07 0.22 0.27 0.25 0.24 0.25 0.27 0.26 0.23 0.22 0.19 0.16 0.16 0.17 0.18 0.22 0.22 0.23 0.28 0.30 0.31 0.31 0.28 0.31 0.36 0.41
0.08 0.16 0.36 0.82 0.99 0.96 0.76 0.49 0.41 0.33 0.43 0.59 0.50 0.42 0.53 0.69 0.52 0.43 0.41 0.23 0.13 0.10 0.07 0.11 0.20 0.22 0.23 0.25 0.26 0.26 0.24 0.22 0.21 0.19 0.18 0.20 0.22 0.25 0.27 0.28 0.29 0.31 0.32 0.32 0.32 0.29 0.34 0.34 0.37
0.09 0.22 0.41 0.53 0.42 0.38 0.39 0.40 0.40 0.44 0.64 0.79 0.65 0.53 0.58 0.54 0.51 0.43 0.33 0.22 0.16 0.13 0.12 0.16 0.22 0.23 0.24 0.26 0.26 0.25 0.23 0.21 0.20 0.19 0.21 0.24 0.27 0.32 0.31 0.33 0.35 0.33 0.34 0.38 0.40 0.35 0.34 0.35 0.37
0.09 0.28 0.54 0.40 0.23 0.23 0.24 0.29 0.45 0.51 0.76 0.84 0.61 0.64 0.71 0.63 0.59 0.55 0.40 0.34 0.32 0.34 0.31 0.29 0.31 0.29 0.27 0.27 0.28 0.27 0.26 0.24 0.22 0.21 0.23 0.27 0.30 0.35 0.37 0.39 0.39 0.35 0.35 0.41 0.45 0.40 0.37 0.44 0.50
0.09 0.22 0.36 0.27 0.16 0.14 0.17 0.24 0.38 0.51 0.74 0.80 0.65 0.82 0.87 0.86 0.82 0.76 0.72 0.74 0.68 0.73 0.65 0.58 0.55 0.45 0.39 0.34 0.34 0.33 0.33 0.29 0.28 0.27 0.27 0.29 0.32 0.35 0.39 0.41 0.42 0.39 0.41 0.46 0.44 0.41 0.45 0.50 0.55
0.07 0.17 0.23 0.16 0.10 0.11 0.18 0.24 0.41 0.56 0.73 0.95 0.91 1.00 1.00 1.09 1.06 0.98 0.96 1.01 1.04 1.02 0.96 0.76 0.64 0.57 0.50 0.51 0.46 0.41 0.39 0.38 0.37 0.38 0.34 0.34 0.33 0.34 0.36 0.44 0.46 0.42 0.43 0.48 0.49 0.47 0.52 0.54 0.54
0.04 0.08 0.13 0.09 0.05 0.08 0.15 0.24 0.38 0.55 0.80 0.95 0.95 1.02 1.03 0.99 1.05 1.14 1.19 1.32 1.52 1.35 1.18 0.90 0.75 0.78 0.64 0.58 0.56 0.51 0.44 0.43 0.42 0.42 0.43 0.44 0.43 0.42 0.46 0.49 0.52 0.48 0.47 0.50 0.57 0.57 0.56 0.57 0.58
0.02 0.05 0.07 0.06 0.03 0.05 0.14 0.30 0.44 0.48 0.63 0.93 1.18 1.02 0.86 0.93 1.21 1.39 1.62 1.72 1.87 1.76 1.34 0.97 0.90 1.01 0.88 0.69 0.63 0.72 0.65 0.62 0.62 0.67 0.67 0.80 1.00 0.89 0.90 0.75 0.73 0.70 0.72 0.77 0.84 0.84 0.84 0.81 0.70
0.02 0.04 0.05 0.03 0.02 0.04 0.14 0.36 0.52 0.61 0.94 1.25 1.44 1.24 1.01 0.98 1.39 1.73 1.82 1.89 1.63 1.71 1.67 1.32 1.09 1.04 1.00 0.85 0.87 1.18 1.15 1.14 1.24 1.31 1.25 1.49 1.50 1.32 0.97 0.95 1.13 1.09 1.21 1.34 1.51 1.62 1.41 1.16 1.01
0.01 0.01 0.02 0.02 0.02 0.05 0.18 0.21 0.30 0.56 1.14 1.54 1.75 1.37 1.10 1.14 1.46 1.94 2.08 1.96 1.67 1.67 1.61 1.62 1.39 1.21 1.16 1.25 1.19 1.34 1.49 1.60 1.72 1.64 1.67 1.87 1.59 1.33 1.16 1.30 1.57 1.59 1.69 1.79 2.03 2.17 1.68 1.68 1.97
0.01 0.01 0.01 0.01 0.01 0.03 0.11 0.19 0.34 0.64 1.12 1.40 1.29 1.13 1.12 1.29 1.48 2.00 2.28 2.10 1.95 1.89 1.82 2.07 1.96 1.75 1.71 1.61 1.60 1.46 1.39 1.45 1.59 1.67 1.67 1.82 1.78 1.63 1.63 1.73 1.76 1.92 2.09 2.33 2.23 2.37 2.39 2.46 2.34
0.00 0.00 0.01 0.01 0.02 0.03 0.08 0.20 0.31 0.54 0.83 0.89 0.79 0.95 1.34 1.42 1.65 2.16 2.68 2.63 2.48 2.32 2.39 2.57 2.54 2.58 2.44 2.15 1.92 1.56 1.48 1.41 1.42 1.51 1.53 1.75 1.96 1.97 2.05 1.89 1.87 1.65 1.86 2.24 2.49 2.54 2.74 2.87 2.79
0.00 0.01 0.01 0.03 0.04 0.05 0.09 0.18 0.35 0.74 0.75 0.68 0.80 1.10 1.42 1.76 1.84 2.23 2.87 3.03 2.96 2.93 3.12 3.15 3.15 3.10 2.90 2.42 2.14 1.90 1.62 1.58 1.47 1.49 1.58 2.02 2.22 2.13 2.18 2.10 2.00 1.76 1.83 2.17 2.51 2.60 2.87 2.85 2.89
0.01 0.03 0.09 0.09 0.07 0.08 0.13 0.40 0.62 0.80 0.76 0.75 0.97 1.17 1.61 2.12 2.28 2.50 2.90 3.13 3.33 3.60 3.79 3.95 3.87 3.55 3.40 2.97 2.37 2.00 1.74 1.53 1.58 1.72 1.82 2.10 2.26 2.37 2.48 2.38 2.05 1.89 2.01 2.19 2.23 2.37 2.81 2.65 2.64
0.02 0.06 0.23 0.18 0.09 0.10 0.19 0.63 0.80 0.82 0.85 0.91 1.13 1.43 1.74 2.18 2.21 2.41 2.71 3.19 3.69 4.17 4.58 4.75 4.48 4.27 4.05 3.56 3.00 2.59 2.30 2.08 2.06 2.04 1.93 1.80 2.00 2.13 2.26 1.99 1.66 1.80 2.05 2.21 2.16 2.14 2.51 2.58 2.63
0.05 0.09 0.19 0.18 0.12 0.11 0.21 0.60 0.63 0.54 0.88 1.25 1.47 1.62 1.73 1.89 1.98 2.19 2.48 3.07 3.74 4.47 5.20 5.57 5.73 5.12 4.50 3.81 3.29 2.89 2.69 2.49 2.29 2.03 1.82 1.57 1.43 1.40 1.51 1.40 1.34 1.47 1.75 1.81 1.61 1.75 2.02 2.17 2.33
0.04 0.08 0.14 0.19 0.16 0.16 0.28 0.54 0.66 0.57 0.85 1.21 1.25 1.50 1.60 1.60 1.79 2.16 2.66 3.09 3.88 4.66 5.37 5.75 5.87 5.24 4.41 3.89 3.62 3.27 2.91 2.61 2.26 1.89 1.64 1.33 1.22 1.09 1.18 1.17 1.08 1.13 1.21 1.27 1.45 1.67 1.76 1.69 1.79
0.04 0.07 0.15 0.17 0.17 0.23 0.38 0.64 0.76 0.75 0.79 0.94 1.04 1.24 1.26 1.30 1.57 2.03 2.66 3.28 4.05 5.12 5.75 5.81 5.40 4.59 3.96 3.44 3.15 2.80 2.55 2.36 1.96 1.58 1.33 1.16 1.11 1.02 1.09 1.03 1.02 1.01 0.99 1.00 1.13 1.28 1.34 1.18 1.34
0.05 0.09 0.17 0.16 0.13 0.15 0.35 0.68 0.79 0.83 0.89 0.88 0.94 1.04 0.95 1.08 1.43 2.05 2.83 3.60 4.19 4.72 5.05 5.02 4.52 3.70 3.18 2.79 2.68 2.43 2.19 1.87 1.64 1.41 1.28 1.07 0.99 0.92 0.90 0.96 0.86 0.83 0.92 0.90 0.95 1.07 1.09 0.98 1.08
0.08 0.09 0.14 0.17 0.13 0.15 0.36 0.79 0.94 0.90 0.90 0.87 0.75 0.76 0.85 1.06 1.63 2.41 3.22 3.92 4.16 4.14 3.90 3.53 3.24 2.87 2.73 2.59 2.36 2.13 2.03 1.74 1.49 1.23 1.10 0.94 0.82 0.74 0.71 0.71 0.68 0.70 0.70 0.76 0.84 0.91 1.00 0.96 0.88
0.09 0.07 0.05 0.07 0.11 0.32 0.45 0.89 1.01 1.02 1.01 0.85 0.73 0.79 0.95 1.22 1.76 2.49 3.06 3.23 3.30 3.15 2.83 2.61 2.52 2.44 2.32 2.20 2.07 1.73 1.48 1.38 1.22 1.09 1.02 0.92 0.79 0.71 0.67 0.60 0.60 0.61 0.57 0.69 0.63 0.73 0.88 0.93 0.80
0.05 0.04 0.04 0.08 0.18 0.34 0.47 0.76 1.06 1.03 1.10 0.72 0.56 0.66 0.80 1.04 1.33 1.57 1.79 1.91 2.02 1.99 2.05 2.08 2.17 2.24 2.09 2.02 1.96 1.80 1.49 1.42 1.37 1.31 1.28 1.13 0.95 0.81 0.67 0.65 0.65 0.64 0.54 0.58 0.61 0.73 0.80 0.85 0.78
0.04 0.06 0.12 0.21 0.36 0.71 0.70 0.81 1.11 1.07 0.91 0.52 0.36 0.41 0.60 0.75 0.82 0.92 1.01 1.12 1.34 1.36 1.41 1.55 1.63 1.76 1.87 1.85 1.69 1.60 1.47 1.49 1.49 1.39 1.21 1.02 0.93 0.85 0.74 0.72 0.78 0.71 0.66 0.65 0.63 0.68 0.71 0.82 0.88
0.05 0.09 0.31 0.63 0.98 1.04 0.62 0.71 1.10 1.00 0.67 0.37 0.26 0.24 0.31 0.47 0.64 0.80 0.91 1.02 1.20 1.10 1.08 1.18 1.27 1.32 1.43 1.42 1.37 1.36 1.41 1.41 1.30 1.20 1.09 0.93 0.77 0.74 0.76 0.74 0.78 0.75 0.78 0.72 0.73 0.74 0.67 0.74 0.83
0.06 0.07 0.18 0.35 0.45 0.61 0.64 1.11 1.32 0.73 0.43 0.29 0.22 0.19 0.22 0.37 0.54 0.64 0.64 0.74 0.83 0.75 0.81 0.91 1.03 1.10 1.13 1.16 1.19 1.18 1.23 1.16 1.10 1.14 1.07 0.92 0.78 0.73 0.71 0.68 0.68 0.71 0.75 0.75 0.89 0.81 0.79 0.81 0.78
0.06 0.05 0.07 0.09 0.16 0.43 0.78 1.12 1.05 0.61 0.42 0.28 0.23 0.21 0.21 0.28 0.42 0.47 0.37 0.41 0.52 0.62 0.68 0.73 0.88 0.99 0.99 1.05 1.07 1.03 1.07 1.10 1.14 1.13 1.04 0.90 0.88 0.80 0.78 0.75 0.80 0.83 0.85 0.89 0.99 0.93 0.89 0.93 0.83
0.06 0.06 0.07 0.10 0.18 0.37 0.69 1.11 1.27 0.92 0.51 0.33 0.31 0.31 0.28 0.26 0.30 0.31 0.29 0.29 0.36 0.49 0.65 0.73 0.83 0.91 0.94 0.99 0.98 0.82 0.94 1.04 1.17 1.12 1.03 0.93 0.96 0.87 0.89 0.87 0.87 0.93 0.91 0.91 1.01 1.00 1.05 1.09 1.06
0.09 0.08 0.10 0.10 0.11 0.21 0.53 0.79 0.66 0.65 0.47 0.44 0.39 0.36 0.33 0.29 0.31 0.28 0.24 0.24 0.27 0.36 0.52 0.65 0.77 0.84 0.87 0.91 0.98 1.03 1.02 0.93 1.02 1.06 1.04 1.06 1.06 0.97 0.96 0.97 1.02 1.00 1.02 1.07 1.14 1.09 1.15 1.26 1.40
0.11 0.11 0.12 0.13 0.12 0.13 0.26 0.41 0.40 0.57 0.54 0.49 0.46 0.45 0.43 0.31 0.26 0.26 0.28 0.30 0.30 0.30 0.38 0.49 0.60 0.73 0.79 0.87 0.98 1.05 1.10 1.00 0.97 0.99 1.06 1.10 1.15 1.18 1.14 1.08 1.08 1.02 1.04 1.17 1.24 1.27 1.29 1.31 1.34

GEFSSGP_prec_meanprecacc_174.txt.gz
Total_Precipitation_Accumulation
0.04 0.10 0.27 0.55 1.19 1.52 1.30 0.72 0.54 0.42 0.43 0.44 0.45 0.44 0.47 0.54 0.86 1.22 0.78 0.42 0.15 0.05 0.06 0.22 0.37 0.31 0.26 0.24 0.25 0.27 0.28 0.26 0.23 0.20 0.17 0.16 0.15 0.16 0.19 0.22 0.24 0.27 0.32 0.36 0.39 0.41 0.38 0.38 0.45
0.07 0.13 0.34 0.82 1.49 1.50 1.12 0.61 0.46 0.36 0.40 0.40 0.36 0.40 0.53 0.59 0.46 0.46 0.55 0.42 0.15 0.06 0.04 0.08 0.25 0.29 0.26 0.25 0.26 0.27 0.26 0.24 0.22 0.20 0.17 0.17 0.20 0.22 0.25 0.25 0.27 0.32 0.34 0.34 0.35 0.32 0.37 0.43 0.50
0.09 0.16 0.36 0.82 0.99 0.96 0.77 0.50 0.42 0.33 0.43 0.59 0.50 0.42 0.53 0.69 0.52 0.43 0.42 0.25 0.14 0.10 0.07 0.12 0.22 0.23 0.24 0.25 0.27 0.26 0.25 0.23 0.21 0.20 0.19 0.21 0.24 0.28 0.32 0.32 0.32 0.35 0.35 0.34 0.35 0.34 0.41 0.41 0.49
0.09 0.22 0.41 0.53 0.42 0.38 0.40 0.40 0.41 0.44 0.64 0.79 0.65 0.53 0.58 0.55 0.51 0.43 0.34 0.23 0.17 0.13 0.12 0.17 0.23 0.24 0.25 0.27 0.27 0.26 0.24 0.22 0.20 0.21 0.22 0.25 0.29 0.34 0.35 0.36 0.37 0.36 0.38 0.42 0.44 0.40 0.41 0.41 0.44
0.10 0.28 0.54 0.40 0.23 0.24 0.24 0.29 0.45 0.51 0.76 0.84 0.61 0.64 0.72 0.64 0.59 0.55 0.41 0.35 0.32 0.35 0.32 0.30 0.32 0.29 0.28 0.28 0.29 0.28 0.27 0.25 0.24 0.22 0.24 0.28 0.32 0.38 0.40 0.41 0.42 0.38 0.38 0.43 0.47 0.44 0.44 0.54 0.59
0.09 0.22 0.36 0.27 0.16 0.14 0.17 0.25 0.39 0.51 0.74 0.80 0.65 0.82 0.88 0.88 0.83 0.77 0.72 0.76 0.70 0.74 0.66 0.58 0.55 0.45 0.39 0.35 0.35 0.34 0.34 0.30 0.30 0.29 0.29 0.31 0.34 0.37 0.41 0.43 0.45 0.42 0.43 0.48 0.47 0.45 0.51 0.57 0.63
0.07 0.17 0.23 0.16 0.10 0.11 0.18 0.24 0.42 0.57 0.73 0.95 0.91 1.00 1.01 1.11 1.08 1.00 0.97 1.03 1.06 1.04 0.98 0.78 0.66 0.59 0.51 0.52 0.47 0.42 0.40 0.39 0.38 0.39 0.35 0.35 0.35 0.35 0.38 0.46 0.49 0.44 0.45 0.50 0.52 0.51 0.58 0.61 0.62
0.04 0.08 0.13 0.09 0.05 0.08 0.15 0.24 0.39 0.55 0.80 0.95 0.95 1.02 1.03 1.00 1.06 1.15 1.21 1.33 1.53 1.38 1.22 0.93 0.78 0.79 0.65 0.59 0.57 0.52 0.45 0.44 0.43 0.44 0.44 0.46 0.45 0.44 0.48 0.52 0.55 0.50 0.48 0.52 0.60 0.61 0.60 0.63 0.65
0.03 0.05 0.07 0.06 0.03 0.05 0.14 0.30 0.44 0.48 0.63 0.93 1.18 1.02 0.86 0.93 1.22 1.41 1.64 1.74 1.89 1.78 1.37 1.00 0.93 1.02 0.89 0.70 0.65 0.74 0.67 0.63 0.64 0.69 0.69 0.82 1.01 0.89 0.91 0.76 0.76 0.71 0.74 0.78 0.86 0.88 0.87 0.84 0.75
0.02 0.04 0.05 0.03 0.02 0.04 0.14 0.36 0.52 0.61 0.94 1.25 1.44 1.24 1.01 0.99 1.41 1.75 1.84 1.91 1.65 1.72 1.67 1.35 1.12 1.05 1.01 0.86 0.88 1.18 1.16 1.15 1.25 1.31 1.26 1.50 1.50 1.33 0.98 0.96 1.16 1.13 1.24 1.36 1.55 1.67 1.45 1.18 1.03
0.01 0.01 0.02 0.02 0.02 0.05 0.18 0.22 0.30 0.56 1.14 1.54 1.75 1.37 1.11 1.17 1.49 1.97 2.10 1.98 1.70 1.71 1.62 1.64 1.42 1.22 1.17 1.26 1.21 1.35 1.50 1.61 1.73 1.65 1.68 1.87 1.60 1.33 1.17 1.30 1.59 1.62 1.71 1.81 2.05 2.19 1.69 1.70 1.98
0.01 0.01 0.01 0.01 0.01 0.03 0.11 0.19 0.34 0.64 1.12 1.40 1.29 1.13 1.13 1.31 1.51 2.03 2.32 2.15 2.01 1.95 1.86 2.09 1.98 1.77 1.72 1.62 1.62 1.47 1.40 1.46 1.60 1.69 1.69 1.84 1.79 1.64 1.64 1.73 1.76 1.92 2.09 2.34 2.25 2.40 2.41 2.48 2.36
0.01 0.01 0.01 0.01 0.02 0.03 0.08 0.20 0.31 0.54 0.83 0.89 0.79 0.95 1.34 1.42 1.66 2.17 2.70 2.69 2.56 2.39 2.44 2.61 2.59 2.61 2.46 2.19 1.96 1.60 1.52 1.44 1.45 1.53 1.55 1.77 1.98 1.98 2.07 1.90 1.88 1.66 1.88 2.25 2.50 2.56 2.75 2.89 2.81
0.00 0.01 0.01 0.03 0.04 0.05 0.09 0.18 0.35 0.74 0.75 0.68 0.80 1.10 1.43 1.76 1.85 2.25 2.89 3.09 3.03 3.00 3.20 3.24 3.23 3.17 2.95 2.48 2.22 1.97 1.69 1.65 1.52 1.52 1.61 2.04 2.24 2.16 2.21 2.13 2.03 1.78 1.86 2.19 2.53 2.61 2.88 2.87 2.92
0.01 0.03 0.09 0.09 0.07 0.09 0.13 0.40 0.62 0.80 0.76 0.75 0.97 1.18 1.61 2.13 2.29 2.52 2.92 3.19 3.41 3.67 3.88 4.09 3.99 3.66 3.51 3.07 2.47 2.06 1.80 1.60 1.64 1.76 1.85 2.13 2.29 2.40 2.51 2.41 2.07 1.91 2.04 2.22 2.24 2.39 2.83 2.67 2.67
0.02 0.06 0.23 0.18 0.09 0.10 0.19 0.63 0.80 0.82 0.85 0.92 1.14 1.45 1.76 2.20 2.24 2.44 2.75 3.25 3.76 4.23 4.66 4.88 4.58 4.38 4.21 3.72 3.12 2.69 2.41 2.19 2.14 2.11 1.98 1.85 2.04 2.16 2.29 2.03 1.69 1.83 2.08 2.23 2.18 2.18 2.56 2.63 2.67
0.05 0.09 0.19 0.18 0.12 0.11 0.21 0.60 0.63 0.54 0.89 1.26 1.49 1.66 1.77 1.92 2.02 2.22 2.52 3.12 3.80 4.53 5.29 5.67 5.82 5.26 4.76 4.08 3.53 3.06 2.81 2.58 2.37 2.11 1.89 1.65 1.48 1.43 1.54 1.43 1.37 1.50 1.77 1.84 1.63 1.77 2.05 2.20 2.37
0.04 0.08 0.14 0.19 0.16 0.16 0.28 0.55 0.66 0.57 0.86 1.22 1.27 1.54 1.64 1.63 1.82 2.19 2.68 3.13 3.92 4.71 5.43 5.82 5.98 5.39 4.58 4.17 3.96 3.49 3.05 2.72 2.37 2.01 1.75 1.42 1.26 1.12 1.21 1.21 1.10 1.15 1.23 1.29 1.46 1.70 1.79 1.71 1.80
0.04 0.07 0.16 0.18 0.17 0.23 0.38 0.64 0.76 0.75 0.81 0.96 1.06 1.26 1.29 1.34 1.61 2.06 2.68 3.31 4.09 5.16 5.81 5.90 5.51 4.74 4.14 3.62 3.30 2.93 2.67 2.46 2.06 1.69 1.44 1.26 1.18 1.08 1.14 1.07 1.04 1.03 1.00 1.01 1.15 1.31 1.38 1.21 1.36
0.05 0.09 0.17 0.16 0.13 0.15 0.35 0.68 0.79 0.84 0.90 0.89 0.95 1.06 0.98 1.12 1.48 2.08 2.84 3.64 4.24 4.78 5.12 5.11 4.66 3.88 3.36 2.97 2.83 2.54 2.30 1.99 1.75 1.51 1.38 1.16 1.09 1.01 0.97 1.01 0.90 0.86 0.94 0.93 0.97 1.11 1.14 1.02 1.11
0.08 0.09 0.14 0.17 0.13 0.16 0.36 0.80 0.95 0.91 0.91 0.88 0.77 0.78 0.88 1.08 1.65 2.43 3.25 3.97 4.21 4.20 3.97 3.66 3.43 3.04 2.89 2.73 2.48 2.23 2.14 1.87 1.61 1.33 1.19 1.02 0.91 0.84 0.80 0.78 0.74 0.75 0.73 0.78 0.87 0.96 1.05 1.00 0.91
0.09 0.07 0.05 0.07 0.11 0.32 0.45 0.90 1.02 1.03 1.01 0.86 0.75 0.81 0.98 1.24 1.78 2.51 3.08 3.29 3.35 3.21 2.89 2.71 2.63 2.51 2.41 2.28 2.13 1.79 1.55 1.46 1.31 1.17 1.11 1.02 0.91 0.85 0.78 0.69 0.67 0.67 0.61 0.72 0.66 0.76 0.91 0.96 0.81
0.05 0.04 0.04 0.08 0.18 0.34 0.47 0.76 1.06 1.04 1.11 0.74 0.59 0.69 0.82 1.06 1.35 1.59 1.82 1.97 2.07 2.04 2.09 2.13 2.23 2.30 2.15 2.07 2.01 1.85 1.55 1.49 1.46 1.41 1.38 1.26 1.09 0.92 0.76 0.73 0.70 0.70 0.58 0.62 0.65 0.77 0.83 0.87 0.80
0.04 0.06 0.12 0.21 0.36 0.71 0.70 0.81 1.12 1.08 0.92 0.54 0.38 0.43 0.62 0.76 0.83 0.94 1.04 1.16 1.38 1.40 1.46 1.59 1.69 1.81 1.91 1.88 1.72 1.64 1.53 1.56 1.57 1.47 1.30 1.12 1.02 0.91 0.80 0.78 0.84 0.77 0.71 0.70 0.68 0.71 0.74 0.85 0.91
0.05 0.09 0.31 0.63 0.98 1.04 0.62 0.71 1.10 1.01 0.68 0.40 0.28 0.26 0.33 0.50 0.67 0.82 0.94 1.05 1.23 1.14 1.12 1.21 1.31 1.34 1.46 1.46 1.40 1.40 1.46 1.46 1.36 1.25 1.14 0.99 0.82 0.77 0.79 0.77 0.81 0.80 0.83 0.78 0.79 0.79 0.72 0.78 0.87
0.06 0.07 0.18 0.35 0.45 0.61 0.64 1.11 1.32 0.73 0.43 0.30 0.25 0.22 0.25 0.40 0.57 0.66 0.67 0.76 0.86 0.79 0.83 0.93 1.05 1.12 1.16 1.20 1.22 1.22 1.27 1.20 1.15 1.20 1.11 0.95 0.80 0.75 0.74 0.72 0.71 0.76 0.80 0.79 0.94 0.88 0.86 0.88 0.85
0.06 0.05 0.07 0.09 0.16 0.43 0.78 1.12 1.06 0.61 0.43 0.29 0.25 0.23 0.24 0.31 0.44 0.49 0.40 0.44 0.55 0.64 0.70 0.74 0.90 1.01 1.02 1.09 1.11 1.07 1.11 1.14 1.18 1.17 1.06 0.92 0.91 0.83 0.82 0.79 0.85 0.88 0.88 0.92 1.04 1.01 0.97 1.02 0.91
0.06 0.06 0.07 0.10 0.18 0.37 0.69 1.11 1.28 0.92 0.52 0.34 0.32 0.33 0.31 0.29 0.33 0.35 0.33 0.32 0.39 0.51 0.66 0.75 0.85 0.93 0.96 1.03 1.01 0.85 0.97 1.08 1.20 1.15 1.05 0.96 0.99 0.91 0.93 0.91 0.92 0.99 0.96 0.96 1.07 1.08 1.13 1.17 1.12
0.09 0.08 0.10 0.10 0.11 0.21 0.53 0.79 0.67 0.66 0.48 0.45 0.41 0.38 0.36 0.32 0.34 0.32 0.27 0.27 0.29 0.37 0.55 0.67 0.78 0.86 0.88 0.94 1.00 1.05 1.04 0.96 1.04 1.07 1.06 1.08 1.09 1.01 1.00 1.02 1.06 1.06 1.09 1.15 1.21 1.14 1.20 1.31 1.45
0.11 0.11 0.12 0.13 0.12 0.13 0.26 0.41 0.40 0.58 0.55 0.50 0.47 0.47 0.45 0.33 0.29 0.29 0.31 0.32 0.32 0.32 0.42 0.52 0.61 0.74 0.80 0.89 1.01 1.07 1.13 1.02 1.00 1.01 1.08 1.13 1.18 1.21 1.17 1.13 1.12 1.05 1.08 1.23 1.28 1.31 1.33 1.35 1.38

GEFSSGP_prec_meanprecacc_180.txt.gz
Total_Precipitation_Accumulation
0.04 0.10 0.27 0.55 1.19 1.52 1.30 0.72 0.54 0.42 0.43 0.44 0.46 0.44 0.47 0.55 0.86 1.22 0.80 0.43 0.16 0.06 0.08 0.25 0.40 0.34 0.29 0.28 0.28 0.30 0.30 0.28 0.25 0.22 0.19 0.20 0.20 0.21 0.24 0.27 0.30 0.34 0.38 0.42 0.43 0.45 0.42 0.43 0.51
0.07 0.14 0.34 0.82 1.49 1.50 1.12 0.61 0.46 0.36 0.40 0.40 0.36 0.41 0.53 0.59 0.46 0.47 0.56 0.43 0.16 0.06 0.05 0.09 0.27 0.31 0.28 0.28 0.29 0.30 0.29 0.26 0.24 0.23 0.21 0.22 0.27 0.29 0.32 0.32 0.34 0.38 0.39 0.38 0.39 0.37 0.42 0.49 0.56
0.09 0.16 0.36 0.82 0.99 0.96 0.77 0.50 0.42 0.33 0.43 0.59 0.50 0.42 0.54 0.69 0.52 0.44 0.42 0.25 0.14 0.10 0.08 0.13 0.24 0.25 0.26 0.27 0.28 0.29 0.27 0.25 0.23 0.23 0.23 0.26 0.29 0.35 0.38 0.37 0.36 0.38 0.39 0.38 0.40 0.40 0.47 0.47 0.55
0.09 0.22 0.41 0.53 0.42 0.38 0.40 0.40 0.41 0.44 0.64 0.79 0.65 0.53 0.58 0.55 0.51 0.44 0.34 0.23 0.17 0.13 0.13 0.18 0.26 0.26 0.27 0.28 0.28 0.27 0.25 0.24 0.23 0.24 0.26 0.30 0.34 0.39 0.40 0.40 0.41 0.40 0.43 0.47 0.51 0.47 0.47 0.48 0.50
0.10 0.28 0.54 0.40 0.23 0.24 0.24 0.30 0.45 0.51 0.76 0.84 0.61 0.64 0.72 0.65 0.59 0.55 0.41 0.35 0.32 0.35 0.33 0.31 0.35 0.32 0.30 0.29 0.30 0.30 0.29 0.28 0.26 0.26 0.28 0.32 0.36 0.42 0.45 0.47 0.46 0.41 0.42 0.47 0.54 0.51 0.50 0.59 0.64
0.09 0.22 0.36 0.27 0.16 0.14 0.17 0.25 0.39 0.51 0.74 0.80 0.65 0.82 0.89 0.90 0.85 0.78 0.72 0.77 0.71 0.74 0.67 0.61 0.58 0.48 0.41 0.36 0.36 0.36 0.36 0.33 0.32 0.32 0.33 0.34 0.38 0.41 0.46 0.48 0.49 0.46 0.46 0.51 0.52 0.51 0.56 0.62 0.67
0.07 0.17 0.23 0.16 0.10 0.11 0.18 0.24 0.42 0.57 0.73 0.95 0.91 1.00 1.01 1.13 1.10 1.01 0.98 1.04 1.09 1.06 0.99 0.80 0.68 0.61 0.53 0.54 0.49 0.44 0.42 0.42 0.41 0.42 0.40 0.38 0.39 0.39 0.43 0.50 0.54 0.48 0.48 0.54 0.58 0.57 0.63 0.66 0.66
0.04 0.08 0.13 0.09 0.05 0.08 0.15 0.24 0.39 0.55 0.80 0.95 0.95 1.02 1.03 1.01 1.07 1.16 1.22 1.35 1.55 1.41 1.23 0.93 0.78 0.81 0.67 0.61 0.59 0.54 0.48 0.47 0.46 0.47 0.47 0.49 0.48 0.47 0.52 0.56 0.61 0.55 0.54 0.58 0.66 0.67 0.67 0.68 0.69
0.03 0.05 0.07 0.06 0.03 0.05 0.14 0.30 0.44 0.48 0.63 0.93 1.18 1.02 0.86 0.94 1.22 1.41 1.66 1.75 1.90 1.80 1.38 1.01 0.93 1.03 0.91 0.72 0.67 0.77 0.70 0.67 0.67 0.73 0.72 0.86 1.07 0.94 0.96 0.79 0.80 0.76 0.79 0.84 0.92 0.92 0.93 0.89 0.80
0.02 0.04 0.05 0.03 0.02 0.04 0.14 0.36 0.52 0.61 0.94 1.25 1.44 1.24 1.01 1.00 1.42 1.76 1.86 1.93 1.67 1.73 1.68 1.36 1.12 1.06 1.02 0.87 0.92 1.24 1.21 1.20 1.30 1.36 1.29 1.55 1.56 1.38 1.01 0.99 1.20 1.17 1.29 1.41 1.59 1.70 1.47 1.21 1.06
0.01 0.01 0.02 0.02 0.02 0.05 0.18 0.22 0.30 0.56 1.14 1.54 1.75 1.37 1.11 1.17 1.50 1.98 2.11 2.00 1.72 1.72 1.63 1.65 1.44 1.24 1.20 1.29 1.24 1.39 1.55 1.65 1.77 1.69 1.71 1.92 1.63 1.37 1.20 1.36 1.64 1.67 1.75 1.84 2.07 2.21 1.72 1.72 2.02
0.01 0.01 0.01 0.01 0.01 0.03 0.11 0.19 0.34 0.64 1.12 1.40 1.29 1.14 1.14 1.33 1.52 2.04 2.33 2.17 2.03 1.97 1.88 2.12 2.01 1.80 1.75 1.67 1.67 1.52 1.44 1.48 1.63 1.72 1.71 1.87 1.83 1.68 1.67 1.77 1.80 1.96 2.13 2.37 2.28 2.43 2.44 2.50 2.39
0.01 0.01 0.01 0.01 0.02 0.03 0.08 0.20 0.31 0.54 0.83 0.89 0.79 0.95 1.35 1.43 1.67 2.19 2.73 2.72 2.59 2.42 2.46 2.64 2.62 2.65 2.50 2.24 2.00 1.65 1.56 1.47 1.48 1.57 1.58 1.79 2.01 2.02 2.12 1.94 1.92 1.69 1.89 2.26 2.53 2.59 2.79 2.92 2.83
0.00 0.01 0.01 0.03 0.04 0.05 0.09 0.18 0.35 0.74 0.75 0.68 0.80 1.10 1.43 1.78 1.88 2.27 2.93 3.14 3.09 3.04 3.23 3.27 3.26 3.21 2.99 2.54 2.27 2.02 1.73 1.71 1.58 1.57 1.64 2.07 2.26 2.20 2.27 2.18 2.07 1.81 1.88 2.21 2.57 2.65 2.92 2.91 2.95
0.01 0.03 0.09 0.09 0.07 0.09 0.13 0.41 0.62 0.80 0.76 0.75 0.97 1.19 1.64 2.17 2.34 2.57 2.98 3.28 3.50 3.72 3.92 4.14 4.04 3.70 3.58 3.17 2.55 2.11 1.84 1.65 1.70 1.83 1.91 2.17 2.32 2.44 2.56 2.47 2.14 1.96 2.08 2.26 2.29 2.45 2.89 2.72 2.70
0.02 0.06 0.23 0.18 0.09 0.10 0.19 0.64 0.80 0.82 0.85 0.92 1.15 1.47 1.79 2.23 2.27 2.49 2.83 3.34 3.90 4.30 4.72 4.95 4.63 4.42 4.29 3.86 3.28 2.79 2.48 2.26 2.21 2.18 2.05 1.90 2.09 2.21 2.35 2.09 1.76 1.90 2.14 2.30 2.25 2.25 2.64 2.71 2.74
0.05 0.09 0.19 0.18 0.12 0.11 0.21 0.60 0.63 0.54 0.89 1.27 1.50 1.67 1.80 1.95 2.04 2.24 2.56 3.21 3.93 4.62 5.37 5.76 5.90 5.33 4.85 4.20 3.73 3.25 2.92 2.67 2.44 2.17 1.96 1.71 1.54 1.48 1.60 1.51 1.46 1.56 1.84 1.91 1.68 1.84 2.13 2.28 2.44
0.04 0.08 0.14 0.19 0.16 0.16 0.28 0.55 0.66 0.58 0.86 1.22 1.27 1.55 1.66 1.66 1.84 2.20 2.70 3.17 4.00 4.80 5.52 5.89 6.05 5.46 4.64 4.25 4.13 3.74 3.19 2.81 2.44 2.08 1.84 1.49 1.33 1.19 1.29 1.28 1.16 1.20 1.30 1.36 1.54 1.79 1.88 1.80 1.87
0.04 0.07 0.16 0.18 0.17 0.23 0.38 0.64 0.76 0.75 0.81 0.96 1.07 1.27 1.32 1.35 1.62 2.07 2.69 3.32 4.12 5.22 5.86 5.94 5.60 4.86 4.25 3.72 3.41 3.06 2.78 2.55 2.13 1.76 1.50 1.33 1.25 1.15 1.24 1.14 1.11 1.08 1.06 1.08 1.21 1.39 1.46 1.28 1.42
0.05 0.09 0.17 0.16 0.13 0.15 0.35 0.68 0.79 0.84 0.90 0.90 0.95 1.06 0.99 1.13 1.48 2.08 2.85 3.64 4.25 4.80 5.14 5.17 4.74 3.97 3.45 3.07 2.93 2.62 2.39 2.08 1.83 1.60 1.47 1.24 1.16 1.08 1.04 1.09 0.97 0.92 1.01 0.99 1.05 1.21 1.24 1.10 1.18
0.08 0.09 0.14 0.17 0.13 0.16 0.36 0.80 0.95 0.91 0.91 0.88 0.77 0.78 0.89 1.09 1.66 2.44 3.26 3.99 4.23 4.22 4.00 3.71 3.48 3.08 2.94 2.79 2.55 2.30 2.22 1.97 1.73 1.46 1.30 1.09 0.96 0.89 0.85 0.83 0.80 0.83 0.78 0.85 0.96 1.05 1.17 1.12 0.98
0.09 0.07 0.05 0.07 0.11 0.32 0.45 0.90 1.02 1.03 1.02 0.86 0.75 0.81 0.98 1.24 1.78 2.52 3.09 3.31 3.38 3.24 2.92 2.75 2.67 2.56 2.46 2.34 2.18 1.85 1.61 1.55 1.42 1.30 1.22 1.10 0.97 0.91 0.84 0.73 0.74 0.75 0.67 0.80 0.73 0.82 1.00 1.06 0.90
0.05 0.04 0.04 0.08 0.18 0.34 0.47 0.76 1.06 1.04 1.11 0.74 0.59 0.69 0.82 1.06 1.36 1.60 1.83 1.99 2.09 2.07 2.13 2.17 2.27 2.34 2.20 2.13 2.05 1.91 1.62 1.56 1.55 1.51 1.50 1.37 1.18 1.00 0.82 0.79 0.80 0.78 0.65 0.69 0.74 0.85 0.91 0.95 0.90
0.04 0.06 0.12 0.21 0.36 0.71 0.70 0.81 1.12 1.08 0.92 0.55 0.38 0.43 0.62 0.77 0.84 0.94 1.04 1.16 1.39 1.43 1.50 1.62 1.72 1.85 1.94 1.92 1.77 1.69 1.60 1.63 1.65 1.55 1.38 1.19 1.09 0.99 0.86 0.84 0.92 0.86 0.81 0.78 0.77 0.78 0.81 0.92 1.00
0.05 0.09 0.31 0.63 0.98 1.04 0.62 0.71 1.10 1.01 0.68 0.40 0.28 0.27 0.33 0.50 0.67 0.82 0.94 1.06 1.24 1.16 1.14 1.25 1.35 1.38 1.49 1.49 1.44 1.45 1.52 1.52 1.42 1.32 1.21 1.07 0.88 0.83 0.86 0.84 0.89 0.88 0.91 0.86 0.89 0.88 0.80 0.86 0.97
0.06 0.07 0.18 0.35 0.45 0.61 0.64 1.11 1.32 0.73 0.43 0.30 0.25 0.23 0.25 0.40 0.57 0.66 0.67 0.76 0.88 0.82 0.86 0.96 1.09 1.15 1.17 1.21 1.25 1.25 1.32 1.25 1.19 1.25 1.18 1.03 0.86 0.80 0.79 0.78 0.77 0.81 0.86 0.85 1.04 0.98 0.95 0.96 0.94
0.06 0.05 0.07 0.09 0.16 0.43 0.78 1.12 1.06 0.61 0.43 0.29 0.25 0.23 0.24 0.31 0.44 0.49 0.41 0.44 0.57 0.66 0.72 0.76 0.94 1.04 1.04 1.11 1.13 1.08 1.14 1.18 1.24 1.23 1.11 0.97 0.96 0.87 0.87 0.85 0.91 0.94 0.94 0.97 1.12 1.09 1.05 1.11 1.01
0.06 0.06 0.07 0.10 0.18 0.37 0.69 1.11 1.28 0.93 0.52 0.34 0.32 0.33 0.31 0.29 0.33 0.36 0.34 0.33 0.40 0.52 0.67 0.76 0.88 0.96 0.98 1.06 1.03 0.87 0.99 1.11 1.24 1.19 1.09 1.02 1.04 0.96 0.99 0.99 1.00 1.05 1.02 1.01 1.13 1.16 1.21 1.25 1.19
0.09 0.08 0.10 0.10 0.11 0.21 0.53 0.79 0.67 0.66 0.48 0.45 0.41 0.39 0.36 0.32 0.34 0.32 0.28 0.27 0.29 0.38 0.56 0.68 0.81 0.89 0.91 0.97 1.03 1.06 1.06 0.98 1.07 1.11 1.10 1.12 1.14 1.07 1.07 1.10 1.14 1.12 1.15 1.21 1.29 1.21 1.26 1.37 1.51
0.11 0.11 0.12 0.13 0.12 0.13 0.26 0.41 0.40 0.58 0.55 0.50 0.47 0.47 0.45 0.33 0.29 0.30 0.31 0.33 0.32 0.33 0.43 0.54 0.64 0.78 0.84 0.91 1.02 1.09 1.13 1.04 1.02 1.05 1.12 1.17 1.24 1.28 1.23 1.19 1.20 1.13 1.14 1.28 1.34 1.36 1.38 1.40 1.42

GEFSSGP_prec_meanprecacc_186.txt.gz
Total_Precipitation_Accumulation
0.04 0.10 0.27 0.55 1.20 1.53 1.30 0.72 0.54 0.42 0.43 0.44 0.46 0.44 0.48 0.57 0.89 1.26 0.84 0.46 0.17 0.08 0.10 0.26 0.42 0.36 0.32 0.31 0.32 0.34 0.33 0.32 0.29 0.26 0.24 0.26 0.26 0.27 0.30 0.34 0.38 0.44 0.48 0.51 0.49 0.51 0.47 0.48 0.56
0.07 0.14 0.34 0.82 1.49 1.50 1.12 0.61 0.46 0.36 0.40 0.40 0.36 0.41 0.53 0.59 0.47 0.49 0.59 0.44 0.16 0.07 0.07 0.10 0.28 0.33 0.31 0.31 0.33 0.33 0.31 0.29 0.28 0.27 0.25 0.27 0.33 0.37 0.39 0.37 0.39 0.45 0.46 0.44 0.45 0.42 0.46 0.52 0.59
0.09 0.16 0.36 0.83 0.99 0.97 0.78 0.50 0.42 0.33 0.43 0.59 0.50 0.42 0.54 0.70 0.53 0.45 0.43 0.25 0.14 0.10 0.08 0.14 0.25 0.27 0.28 0.29 0.31 0.31 0.29 0.28 0.27 0.28 0.28 0.32 0.36 0.43 0.46 0.44 0.42 0.43 0.44 0.44 0.46 0.44 0.51 0.51 0.58
0.09 0.22 0.41 0.53 0.42 0.38 0.40 0.40 0.41 0.44 0.64 0.79 0.65 0.53 0.59 0.56 0.51 0.44 0.34 0.23 0.17 0.14 0.13 0.18 0.27 0.28 0.28 0.29 0.29 0.30 0.29 0.28 0.28 0.30 0.32 0.36 0.38 0.45 0.47 0.47 0.47 0.45 0.48 0.53 0.56 0.51 0.52 0.53 0.53
0.10 0.28 0.54 0.40 0.24 0.24 0.24 0.30 0.45 0.51 0.76 0.84 0.61 0.65 0.74 0.66 0.59 0.55 0.41 0.36 0.33 0.36 0.34 0.31 0.36 0.33 0.31 0.30 0.31 0.32 0.32 0.32 0.33 0.32 0.34 0.38 0.41 0.48 0.51 0.53 0.54 0.49 0.48 0.53 0.59 0.56 0.54 0.62 0.67
0.09 0.22 0.37 0.27 0.16 0.14 0.17 0.25 0.39 0.52 0.74 0.81 0.66 0.85 0.91 0.91 0.85 0.78 0.73 0.77 0.72 0.75 0.69 0.61 0.59 0.49 0.42 0.38 0.38 0.38 0.39 0.37 0.37 0.36 0.38 0.38 0.43 0.45 0.49 0.53 0.56 0.53 0.52 0.55 0.57 0.57 0.60 0.65 0.70
0.07 0.17 0.23 0.16 0.10 0.11 0.18 0.24 0.42 0.57 0.73 0.95 0.91 1.01 1.03 1.15 1.11 1.01 0.98 1.04 1.10 1.07 1.00 0.81 0.68 0.62 0.54 0.55 0.51 0.46 0.45 0.44 0.44 0.45 0.42 0.41 0.42 0.43 0.46 0.54 0.59 0.52 0.52 0.56 0.60 0.59 0.65 0.68 0.69
0.04 0.08 0.13 0.09 0.05 0.08 0.15 0.24 0.39 0.55 0.80 0.95 0.95 1.02 1.04 1.02 1.07 1.16 1.22 1.36 1.57 1.44 1.25 0.95 0.80 0.83 0.69 0.62 0.60 0.56 0.50 0.49 0.48 0.49 0.50 0.51 0.52 0.50 0.55 0.60 0.67 0.62 0.60 0.61 0.67 0.69 0.69 0.71 0.71
0.03 0.06 0.07 0.06 0.03 0.05 0.14 0.30 0.44 0.48 0.65 0.96 1.18 1.03 0.86 0.94 1.22 1.43 1.70 1.78 1.94 1.82 1.41 1.03 0.95 1.06 0.94 0.77 0.68 0.79 0.72 0.70 0.72 0.77 0.76 0.96 1.23 1.02 1.02 0.83 0.86 0.83 0.85 0.87 0.94 0.96 0.96 0.92 0.81
0.02 0.04 0.05 0.03 0.02 0.04 0.14 0.37 0.52 0.62 0.96 1.28 1.45 1.24 1.01 1.00 1.42 1.78 1.90 1.98 1.71 1.76 1.70 1.39 1.14 1.09 1.07 0.93 0.95 1.32 1.28 1.25 1.40 1.45 1.37 1.68 1.71 1.52 1.09 1.04 1.24 1.22 1.34 1.44 1.63 1.74 1.51 1.25 1.10
0.01 0.02 0.02 0.02 0.02 0.05 0.18 0.22 0.30 0.56 1.14 1.54 1.75 1.37 1.11 1.17 1.51 2.00 2.14 2.05 1.77 1.75 1.65 1.68 1.47 1.28 1.25 1.36 1.30 1.45 1.63 1.71 1.85 1.79 1.80 2.02 1.71 1.44 1.26 1.42 1.70 1.72 1.81 1.90 2.12 2.29 1.78 1.78 2.08
0.01 0.01 0.01 0.01 0.01 0.03 0.11 0.19 0.34 0.64 1.12 1.40 1.29 1.14 1.14 1.33 1.53 2.07 2.39 2.23 2.12 2.01 1.90 2.13 2.02 1.83 1.81 1.74 1.74 1.57 1.49 1.53 1.69 1.79 1.76 1.93 1.91 1.75 1.74 1.86 1.90 2.07 2.23 2.47 2.35 2.52 2.51 2.55 2.41
0.01 0.01 0.01 0.01 0.02 0.03 0.09 0.20 0.31 0.54 0.83 0.89 0.79 0.96 1.35 1.44 1.69 2.20 2.76 2.76 2.67 2.48 2.50 2.66 2.63 2.67 2.55 2.29 2.06 1.67 1.59 1.51 1.52 1.62 1.62 1.83 2.07 2.08 2.19 2.01 2.01 1.79 1.95 2.30 2.59 2.64 2.84 2.97 2.86
0.00 0.01 0.01 0.03 0.04 0.05 0.09 0.19 0.35 0.74 0.75 0.68 0.80 1.10 1.43 1.79 1.90 2.29 2.95 3.19 3.14 3.11 3.27 3.29 3.29 3.24 3.05 2.61 2.34 2.06 1.75 1.74 1.61 1.61 1.69 2.13 2.34 2.28 2.35 2.24 2.14 1.87 1.91 2.24 2.61 2.69 2.97 2.96 2.98
0.01 0.03 0.09 0.10 0.07 0.09 0.14 0.42 0.62 0.80 0.76 0.75 0.97 1.19 1.64 2.17 2.35 2.60 3.01 3.31 3.55 3.79 3.96 4.16 4.07 3.74 3.64 3.26 2.63 2.17 1.88 1.68 1.74 1.87 1.95 2.22 2.38 2.52 2.66 2.56 2.19 2.00 2.11 2.30 2.32 2.48 2.93 2.77 2.75
0.02 0.07 0.24 0.20 0.09 0.10 0.20 0.65 0.80 0.82 0.85 0.92 1.15 1.47 1.79 2.24 2.28 2.51 2.87 3.38 3.96 4.35 4.76 4.97 4.65 4.46 4.36 3.96 3.39 2.89 2.55 2.32 2.27 2.23 2.08 1.94 2.15 2.27 2.43 2.17 1.82 1.95 2.18 2.33 2.29 2.30 2.69 2.78 2.80
0.06 0.09 0.19 0.19 0.12 0.12 0.22 0.61 0.63 0.54 0.89 1.27 1.50 1.67 1.81 1.95 2.05 2.25 2.58 3.24 4.00 4.66 5.41 5.80 5.96 5.40 4.91 4.28 3.82 3.35 3.00 2.75 2.51 2.22 2.01 1.75 1.59 1.52 1.67 1.59 1.54 1.62 1.90 1.95 1.72 1.91 2.21 2.37 2.52
0.05 0.08 0.14 0.19 0.16 0.16 0.28 0.55 0.66 0.58 0.86 1.22 1.27 1.55 1.67 1.66 1.84 2.21 2.71 3.19 4.04 4.84 5.56 5.94 6.10 5.53 4.72 4.33 4.21 3.85 3.30 2.89 2.51 2.14 1.91 1.56 1.40 1.24 1.36 1.36 1.23 1.25 1.37 1.44 1.61 1.88 1.97 1.90 1.97
0.04 0.08 0.16 0.18 0.17 0.23 0.39 0.65 0.77 0.76 0.81 0.96 1.07 1.27 1.32 1.36 1.62 2.07 2.70 3.34 4.14 5.24 5.90 5.99 5.65 4.92 4.36 3.83 3.52 3.17 2.89 2.65 2.21 1.83 1.59 1.41 1.31 1.23 1.33 1.22 1.20 1.14 1.14 1.16 1.28 1.48 1.56 1.37 1.50
0.05 0.09 0.17 0.16 0.13 0.15 0.36 0.71 0.81 0.84 0.90 0.90 0.96 1.06 0.99 1.14 1.49 2.09 2.86 3.65 4.27 4.81 5.17 5.21 4.79 4.03 3.52 3.16 3.05 2.73 2.48 2.15 1.92 1.69 1.58 1.33 1.22 1.15 1.11 1.20 1.05 0.99 1.10 1.07 1.14 1.33 1.37 1.20 1.26
0.08 0.09 0.14 0.17 0.13 0.16 0.36 0.84 1.01 0.94 0.91 0.88 0.77 0.79 0.89 1.09 1.66 2.45 3.28 4.01 4.26 4.24 4.03 3.75 3.54 3.14 3.00 2.88 2.65 2.40 2.31 2.03 1.83 1.57 1.40 1.18 1.02 0.93 0.90 0.89 0.87 0.91 0.84 0.95 1.07 1.18 1.33 1.28 1.08
0.09 0.07 0.05 0.07 0.12 0.33 0.46 0.91 1.05 1.05 1.02 0.86 0.75 0.81 0.98 1.24 1.79 2.53 3.10 3.33 3.42 3.29 2.96 2.79 2.72 2.61 2.53 2.42 2.26 1.93 1.70 1.63 1.51 1.39 1.32 1.20 1.05 0.97 0.89 0.78 0.80 0.82 0.73 0.92 0.80 0.93 1.14 1.22 1.04
0.05 0.04 0.04 0.08 0.18 0.34 0.48 0.77 1.07 1.05 1.12 0.74 0.60 0.70 0.82 1.06 1.36 1.60 1.83 2.00 2.11 2.11 2.17 2.21 2.32 2.40 2.27 2.20 2.12 1.98 1.71 1.66 1.64 1.58 1.59 1.47 1.29 1.08 0.88 0.86 0.89 0.88 0.74 0.78 0.83 0.97 1.01 1.06 1.01
0.04 0.06 0.12 0.21 0.36 0.71 0.70 0.81 1.14 1.10 0.95 0.57 0.39 0.43 0.62 0.77 0.84 0.94 1.04 1.18 1.42 1.46 1.55 1.68 1.78 1.90 2.01 1.99 1.83 1.76 1.68 1.72 1.75 1.65 1.47 1.28 1.18 1.09 0.96 0.95 1.06 0.99 0.93 0.87 0.86 0.89 0.92 1.06 1.15
0.05 0.09 0.31 0.63 0.98 1.04 0.62 0.72 1.11 1.01 0.69 0.41 0.31 0.27 0.33 0.50 0.67 0.82 0.94 1.07 1.26 1.19 1.20 1.33 1.41 1.44 1.55 1.55 1.49 1.51 1.59 1.60 1.51 1.42 1.32 1.17 0.98 0.95 0.98 0.95 1.03 1.00 1.02 0.97 1.02 1.02 0.93 1.01 1.11
0.06 0.07 0.18 0.35 0.46 0.62 0.64 1.12 1.34 0.74 0.43 0.31 0.27 0.23 0.25 0.40 0.57 0.66 0.67 0.77 0.89 0.84 0.91 1.01 1.14 1.20 1.22 1.27 1.30 1.30 1.39 1.32 1.27 1.35 1.27 1.13 0.94 0.87 0.86 0.87 0.88 0.92 0.96 0.94 1.17 1.08 1.07 1.08 1.04
0.06 0.05 0.07 0.09 0.17 0.43 0.79 1.13 1.08 0.62 0.43 0.29 0.25 0.23 0.24 0.31 0.44 0.50 0.41 0.45 0.58 0.68 0.74 0.79 0.96 1.07 1.07 1.16 1.20 1.15 1.20 1.25 1.31 1.31 1.20 1.05 1.05 0.94 0.95 0.94 1.02 1.07 1.06 1.08 1.24 1.21 1.16 1.23 1.11
0.06 0.06 0.07 0.10 0.18 0.37 0.70 1.13 1.30 0.94 0.52 0.34 0.33 0.34 0.32 0.29 0.33 0.36 0.34 0.33 0.41 0.54 0.69 0.78 0.89 0.98 1.01 1.10 1.08 0.92 1.04 1.16 1.31 1.26 1.17 1.10 1.12 1.04 1.07 1.08 1.10 1.16 1.12 1.12 1.26 1.27 1.32 1.35 1.28
0.09 0.08 0.10 0.10 0.11 0.21 0.54 0.80 0.69 0.68 0.49 0.46 0.42 0.39 0.36 0.32 0.35 0.33 0.28 0.27 0.30 0.39 0.58 0.71 0.82 0.91 0.94 1.00 1.06 1.10 1.09 1.01 1.12 1.17 1.16 1.19 1.21 1.14 1.14 1.18 1.23 1.20 1.23 1.32 1.41 1.31 1.35 1.46 1.60
0.11 0.11 0.12 0.13 0.12 0.13 0.27 0.43 0.42 0.60 0.57 0.51 0.48 0.47 0.45 0.33 0.29 0.30 0.32 0.33 0.33 0.34 0.45 0.56 0.67 0.80 0.86 0.93 1.05 1.12 1.17 1.07 1.07 1.10 1.18 1.23 1.30 1.34 1.29 1.25 1.27 1.19 1.21 1.37 1.42 1.42 1.44 1.46 1.48

GEFSSGP_prec_meanprecacc_192.txt.gz
Total_Precipitation_Accumulation
0.05 0.11 0.28 0.56 1.23 1.54 1.31 0.73 0.54 0.42 0.43 0.45 0.46 0.45 0.49 0.58 0.90 1.29 0.92 0.53 0.18 0.10 0.13 0.28 0.44 0.37 0.33 0.33 0.34 0.37 0.35 0.33 0.32 0.31 0.27 0.28 0.29 0.30 0.32 0.37 0.42 0.49 0.53 0.56 0.54 0.56 0.52 0.53 0.60
0.08 0.14 0.35 0.84 1.51 1.50 1.12 0.62 0.47 0.37 0.40 0.40 0.36 0.41 0.53 0.60 0.47 0.52 0.64 0.49 0.17 0.08 0.07 0.11 0.29 0.34 0.31 0.32 0.35 0.37 0.35 0.33 0.31 0.32 0.28 0.31 0.36 0.40 0.42 0.40 0.43 0.49 0.51 0.48 0.48 0.45 0.49 0.55 0.62
0.09 0.17 0.38 0.85 1.00 0.98 0.78 0.50 0.42 0.33 0.44 0.59 0.50 0.42 0.54 0.71 0.54 0.48 0.47 0.28 0.15 0.10 0.08 0.14 0.26 0.27 0.28 0.30 0.33 0.34 0.33 0.31 0.29 0.32 0.30 0.34 0.38 0.46 0.49 0.47 0.44 0.45 0.47 0.47 0.49 0.46 0.53 0.53 0.61
0.10 0.22 0.42 0.55 0.43 0.39 0.41 0.41 0.41 0.44 0.65 0.80 0.66 0.54 0.59 0.56 0.52 0.45 0.36 0.24 0.18 0.15 0.14 0.19 0.27 0.28 0.29 0.30 0.30 0.32 0.31 0.31 0.31 0.34 0.34 0.37 0.40 0.47 0.48 0.50 0.49 0.47 0.50 0.55 0.58 0.53 0.55 0.56 0.57
0.10 0.28 0.55 0.41 0.24 0.24 0.25 0.30 0.46 0.52 0.76 0.86 0.63 0.66 0.77 0.68 0.61 0.56 0.42 0.37 0.33 0.37 0.35 0.32 0.36 0.34 0.32 0.31 0.32 0.33 0.33 0.33 0.35 0.37 0.36 0.40 0.44 0.50 0.53 0.56 0.56 0.50 0.49 0.55 0.61 0.59 0.58 0.66 0.72
0.09 0.22 0.37 0.28 0.17 0.14 0.18 0.25 0.40 0.53 0.75 0.83 0.69 0.89 0.96 0.94 0.87 0.80 0.75 0.79 0.72 0.75 0.69 0.61 0.59 0.49 0.43 0.38 0.38 0.39 0.40 0.38 0.39 0.41 0.41 0.41 0.46 0.50 0.54 0.57 0.58 0.54 0.53 0.56 0.59 0.60 0.62 0.68 0.76
0.08 0.17 0.24 0.16 0.11 0.12 0.18 0.25 0.43 0.60 0.75 0.97 0.95 1.04 1.07 1.19 1.13 1.03 1.00 1.07 1.12 1.08 1.01 0.81 0.68 0.62 0.55 0.56 0.52 0.47 0.47 0.46 0.45 0.49 0.45 0.43 0.45 0.46 0.48 0.56 0.61 0.54 0.55 0.59 0.62 0.62 0.67 0.70 0.73
0.05 0.09 0.14 0.09 0.05 0.09 0.16 0.25 0.39 0.58 0.82 0.96 0.97 1.04 1.06 1.06 1.10 1.19 1.26 1.40 1.61 1.47 1.28 0.97 0.81 0.84 0.70 0.63 0.61 0.57 0.51 0.51 0.51 0.53 0.53 0.54 0.56 0.54 0.57 0.62 0.70 0.64 0.62 0.63 0.69 0.72 0.71 0.72 0.74
0.03 0.06 0.08 0.07 0.03 0.06 0.15 0.31 0.45 0.49 0.66 0.99 1.20 1.04 0.87 0.96 1.25 1.47 1.76 1.85 2.01 1.87 1.45 1.07 0.99 1.08 0.97 0.78 0.69 0.81 0.74 0.71 0.74 0.81 0.80 0.99 1.25 1.03 1.03 0.86 0.91 0.87 0.87 0.89 0.96 0.98 0.99 0.94 0.84
0.03 0.05 0.06 0.03 0.02 0.04 0.15 0.37 0.53 0.64 0.97 1.29 1.46 1.25 1.02 1.02 1.44 1.81 1.95 2.05 1.77 1.82 1.76 1.45 1.20 1.14 1.15 1.00 0.99 1.34 1.29 1.26 1.41 1.46 1.39 1.70 1.74 1.56 1.11 1.08 1.32 1.29 1.38 1.47 1.65 1.77 1.54 1.27 1.12
0.02 0.03 0.02 0.02 0.02 0.06 0.19 0.22 0.31 0.57 1.15 1.54 1.76 1.38 1.13 1.19 1.53 2.03 2.21 2.12 1.84 1.81 1.71 1.76 1.57 1.38 1.34 1.45 1.38 1.49 1.66 1.73 1.87 1.80 1.83 2.05 1.74 1.49 1.30 1.45 1.75 1.76 1.84 1.93 2.16 2.33 1.82 1.82 2.12
0.02 0.02 0.01 0.01 0.02 0.04 0.11 0.20 0.34 0.64 1.13 1.40 1.30 1.14 1.15 1.35 1.55 2.10 2.44 2.32 2.18 2.08 1.97 2.21 2.10 1.93 1.90 1.82 1.82 1.62 1.54 1.58 1.72 1.82 1.80 1.97 1.96 1.83 1.81 1.91 1.95 2.11 2.26 2.50 2.39 2.56 2.55 2.60 2.45
0.01 0.01 0.01 0.01 0.02 0.04 0.09 0.20 0.32 0.55 0.83 0.90 0.80 0.96 1.36 1.46 1.71 2.23 2.79 2.80 2.71 2.53 2.58 2.74 2.74 2.79 2.62 2.35 2.13 1.75 1.68 1.58 1.57 1.65 1.67 1.89 2.15 2.17 2.28 2.10 2.11 1.89 2.00 2.35 2.63 2.67 2.88 3.01 2.89
0.01 0.01 0.02 0.03 0.05 0.06 0.10 0.21 0.38 0.75 0.76 0.68 0.81 1.11 1.44 1.81 1.92 2.31 2.98 3.24 3.18 3.15 3.32 3.33 3.33 3.32 3.11 2.67 2.42 2.13 1.82 1.81 1.67 1.65 1.75 2.19 2.40 2.35 2.44 2.33 2.28 1.98 1.98 2.29 2.64 2.72 3.00 2.99 3.01
0.01 0.04 0.09 0.10 0.08 0.10 0.14 0.45 0.65 0.81 0.78 0.76 0.98 1.20 1.65 2.19 2.37 2.64 3.05 3.36 3.59 3.83 4.00 4.19 4.10 3.77 3.68 3.30 2.68 2.22 1.92 1.73 1.79 1.91 1.99 2.26 2.42 2.56 2.71 2.64 2.29 2.07 2.17 2.35 2.37 2.51 2.96 2.80 2.77
0.02 0.07 0.24 0.20 0.10 0.11 0.21 0.67 0.81 0.83 0.87 0.93 1.16 1.47 1.81 2.27 2.31 2.55 2.90 3.42 3.99 4.38 4.79 5.00 4.67 4.50 4.39 4.00 3.44 2.93 2.60 2.37 2.32 2.29 2.13 1.97 2.18 2.31 2.48 2.25 1.90 2.00 2.23 2.38 2.35 2.35 2.73 2.82 2.84
0.06 0.10 0.20 0.20 0.13 0.13 0.24 0.63 0.65 0.56 0.90 1.28 1.51 1.68 1.82 1.98 2.06 2.26 2.60 3.28 4.04 4.71 5.44 5.82 5.98 5.43 4.95 4.35 3.91 3.41 3.05 2.79 2.55 2.27 2.04 1.78 1.61 1.55 1.71 1.65 1.60 1.67 1.93 1.98 1.75 1.97 2.25 2.42 2.56
0.05 0.09 0.15 0.20 0.17 0.17 0.30 0.57 0.68 0.59 0.88 1.24 1.29 1.56 1.68 1.67 1.85 2.22 2.73 3.23 4.09 4.90 5.60 5.97 6.12 5.56 4.77 4.41 4.29 3.91 3.34 2.92 2.55 2.18 1.95 1.59 1.43 1.27 1.41 1.40 1.28 1.31 1.41 1.47 1.64 1.92 2.01 1.94 2.01
0.04 0.09 0.16 0.18 0.17 0.24 0.41 0.66 0.78 0.78 0.83 0.98 1.09 1.29 1.33 1.37 1.63 2.09 2.73 3.37 4.17 5.27 5.92 6.01 5.67 4.94 4.38 3.88 3.57 3.22 2.93 2.69 2.25 1.87 1.64 1.46 1.36 1.27 1.37 1.26 1.26 1.20 1.20 1.21 1.33 1.53 1.61 1.42 1.55
0.05 0.09 0.17 0.17 0.13 0.16 0.38 0.72 0.82 0.87 0.94 0.93 1.00 1.09 1.00 1.15 1.49 2.10 2.87 3.68 4.30 4.84 5.19 5.24 4.81 4.05 3.54 3.20 3.09 2.78 2.52 2.18 1.95 1.73 1.63 1.39 1.27 1.19 1.14 1.23 1.08 1.05 1.15 1.10 1.17 1.37 1.41 1.24 1.32
0.08 0.09 0.14 0.18 0.15 0.17 0.37 0.85 1.02 0.97 0.96 0.95 0.85 0.84 0.92 1.11 1.67 2.45 3.29 4.02 4.29 4.28 4.06 3.79 3.57 3.17 3.02 2.91 2.69 2.43 2.35 2.07 1.87 1.61 1.45 1.23 1.07 0.98 0.94 0.92 0.90 0.95 0.88 0.98 1.10 1.21 1.37 1.33 1.14
0.09 0.07 0.05 0.07 0.13 0.34 0.47 0.93 1.09 1.10 1.06 0.94 0.90 0.92 1.02 1.27 1.80 2.53 3.10 3.34 3.44 3.32 3.02 2.85 2.76 2.64 2.56 2.45 2.29 1.97 1.73 1.67 1.54 1.42 1.36 1.24 1.09 1.02 0.95 0.82 0.85 0.86 0.77 0.96 0.83 0.95 1.17 1.27 1.09
0.05 0.04 0.04 0.08 0.19 0.35 0.49 0.79 1.14 1.12 1.19 0.81 0.68 0.78 0.87 1.08 1.37 1.61 1.84 2.01 2.13 2.13 2.27 2.32 2.37 2.45 2.32 2.24 2.16 2.02 1.75 1.69 1.68 1.62 1.63 1.50 1.32 1.13 0.93 0.91 0.96 0.94 0.79 0.83 0.87 1.02 1.06 1.11 1.05
0.04 0.06 0.12 0.22 0.37 0.71 0.70 0.83 1.17 1.15 0.99 0.62 0.44 0.48 0.67 0.79 0.85 0.95 1.06 1.19 1.43 1.48 1.65 1.79 1.83 1.95 2.06 2.04 1.89 1.82 1.74 1.78 1.78 1.69 1.51 1.31 1.22 1.13 1.02 1.02 1.14 1.07 0.99 0.91 0.90 0.93 0.97 1.11 1.20
0.05 0.09 0.31 0.63 0.99 1.05 0.62 0.72 1.12 1.03 0.72 0.46 0.35 0.31 0.36 0.52 0.68 0.83 0.96 1.08 1.27 1.19 1.23 1.39 1.45 1.48 1.60 1.60 1.55 1.58 1.65 1.67 1.56 1.45 1.35 1.20 1.00 0.97 1.02 1.02 1.11 1.10 1.10 1.03 1.08 1.08 1.00 1.09 1.18
0.06 0.07 0.18 0.35 0.46 0.62 0.65 1.13 1.36 0.79 0.50 0.35 0.30 0.26 0.27 0.42 0.59 0.70 0.70 0.77 0.89 0.85 0.92 1.03 1.17 1.23 1.26 1.32 1.35 1.35 1.44 1.37 1.32 1.39 1.31 1.17 0.97 0.89 0.89 0.92 0.95 0.98 1.03 1.01 1.24 1.15 1.15 1.16 1.11
0.06 0.05 0.07 0.10 0.17 0.44 0.81 1.16 1.12 0.67 0.51 0.34 0.28 0.26 0.27 0.33 0.47 0.53 0.45 0.46 0.59 0.69 0.75 0.80 0.97 1.08 1.09 1.20 1.24 1.18 1.23 1.28 1.35 1.36 1.25 1.09 1.09 0.98 0.98 0.99 1.08 1.15 1.16 1.17 1.31 1.27 1.21 1.28 1.14
0.07 0.07 0.08 0.10 0.19 0.40 0.73 1.16 1.37 0.99 0.56 0.39 0.37 0.36 0.34 0.32 0.37 0.39 0.36 0.34 0.42 0.55 0.70 0.79 0.90 1.01 1.04 1.13 1.11 0.94 1.06 1.19 1.34 1.30 1.21 1.16 1.19 1.11 1.13 1.14 1.18 1.24 1.21 1.20 1.33 1.33 1.37 1.40 1.32
0.09 0.09 0.10 0.11 0.12 0.23 0.56 0.84 0.72 0.71 0.55 0.53 0.50 0.43 0.39 0.34 0.37 0.36 0.32 0.29 0.31 0.41 0.59 0.72 0.84 0.93 0.96 1.02 1.09 1.13 1.12 1.05 1.16 1.20 1.20 1.25 1.27 1.19 1.19 1.24 1.30 1.28 1.32 1.40 1.48 1.37 1.41 1.50 1.63
0.11 0.11 0.12 0.14 0.12 0.13 0.27 0.44 0.44 0.62 0.60 0.59 0.58 0.52 0.48 0.35 0.32 0.32 0.33 0.35 0.35 0.36 0.47 0.58 0.69 0.82 0.89 0.97 1.08 1.14 1.22 1.14 1.11 1.15 1.22 1.27 1.36 1.41 1.35 1.34 1.35 1.26 1.28 1.44 1.50 1.48 1.49 1.50 1.52

GEFSSGP_prec_meanprecacc_198.txt.gz
Total_Precipitation_Accumulation
0.05 0.11 0.29 0.57 1.23 1.54 1.31 0.74 0.55 0.43 0.44 0.45 0.47 0.45 0.49 0.58 0.91 1.29 0.93 0.56 0.20 0.10 0.15 0.33 0.48 0.39 0.36 0.37 0.39 0.41 0.38 0.36 0.35 0.34 0.31 0.32 0.33 0.35 0.38 0.43 0.48 0.55 0.58 0.61 0.60 0.62 0.57 0.58 0.67
0.08 0.15 0.35 0.84 1.52 1.52 1.13 0.63 0.47 0.37 0.40 0.40 0.36 0.41 0.54 0.60 0.48 0.52 0.66 0.51 0.18 0.08 0.08 0.12 0.32 0.36 0.34 0.35 0.38 0.40 0.39 0.35 0.33 0.35 0.31 0.34 0.39 0.44 0.47 0.45 0.48 0.54 0.56 0.53 0.54 0.49 0.53 0.59 0.67
0.10 0.18 0.38 0.85 1.01 0.99 0.80 0.51 0.43 0.34 0.44 0.59 0.50 0.42 0.54 0.71 0.54 0.49 0.48 0.29 0.16 0.10 0.08 0.15 0.27 0.29 0.31 0.33 0.35 0.37 0.36 0.35 0.33 0.36 0.33 0.37 0.42 0.51 0.55 0.52 0.49 0.50 0.51 0.51 0.53 0.50 0.57 0.57 0.66
0.10 0.23 0.42 0.55 0.43 0.40 0.42 0.41 0.43 0.46 0.65 0.80 0.66 0.54 0.60 0.57 0.52 0.46 0.37 0.25 0.18 0.15 0.14 0.20 0.29 0.30 0.30 0.32 0.32 0.33 0.33 0.33 0.35 0.40 0.39 0.41 0.43 0.51 0.52 0.55 0.54 0.51 0.53 0.59 0.63 0.57 0.60 0.62 0.64
0.10 0.28 0.55 0.41 0.24 0.24 0.25 0.30 0.46 0.53 0.77 0.86 0.63 0.66 0.78 0.70 0.62 0.57 0.43 0.38 0.33 0.37 0.35 0.33 0.37 0.35 0.33 0.32 0.34 0.34 0.35 0.35 0.38 0.41 0.41 0.45 0.48 0.54 0.56 0.61 0.61 0.54 0.55 0.61 0.67 0.65 0.65 0.73 0.80
0.09 0.22 0.37 0.28 0.17 0.14 0.18 0.26 0.41 0.54 0.75 0.84 0.70 0.89 0.97 0.97 0.89 0.81 0.76 0.80 0.73 0.76 0.69 0.62 0.60 0.51 0.45 0.40 0.40 0.40 0.42 0.39 0.42 0.44 0.44 0.47 0.51 0.54 0.58 0.61 0.62 0.59 0.57 0.62 0.65 0.67 0.69 0.76 0.83
0.08 0.18 0.24 0.16 0.11 0.12 0.19 0.25 0.43 0.61 0.76 0.98 0.95 1.05 1.09 1.24 1.16 1.05 1.02 1.09 1.13 1.09 1.02 0.82 0.69 0.63 0.56 0.59 0.54 0.49 0.48 0.47 0.47 0.51 0.48 0.46 0.49 0.49 0.50 0.58 0.64 0.58 0.59 0.63 0.67 0.67 0.74 0.76 0.80
0.05 0.09 0.14 0.09 0.05 0.09 0.16 0.25 0.39 0.59 0.83 0.97 0.97 1.05 1.09 1.11 1.14 1.22 1.31 1.44 1.63 1.49 1.30 0.98 0.81 0.85 0.72 0.64 0.63 0.59 0.53 0.53 0.53 0.56 0.55 0.57 0.59 0.57 0.60 0.65 0.74 0.68 0.66 0.68 0.75 0.78 0.78 0.81 0.83
0.03 0.06 0.08 0.07 0.03 0.06 0.15 0.31 0.45 0.50 0.67 0.99 1.20 1.04 0.90 1.00 1.31 1.54 1.86 1.93 2.05 1.90 1.48 1.10 1.02 1.10 0.98 0.80 0.71 0.84 0.78 0.74 0.77 0.84 0.84 1.01 1.26 1.05 1.05 0.89 0.98 0.92 0.92 0.95 1.03 1.06 1.09 1.04 0.91
0.03 0.06 0.06 0.03 0.02 0.04 0.15 0.37 0.53 0.64 0.98 1.31 1.47 1.27 1.05 1.05 1.49 1.85 2.01 2.11 1.82 1.86 1.81 1.48 1.24 1.17 1.20 1.03 1.01 1.39 1.35 1.28 1.43 1.49 1.43 1.73 1.75 1.57 1.13 1.12 1.38 1.34 1.43 1.52 1.72 1.85 1.63 1.33 1.16
0.02 0.03 0.02 0.03 0.02 0.06 0.19 0.22 0.31 0.57 1.19 1.57 1.77 1.39 1.15 1.22 1.55 2.05 2.23 2.15 1.88 1.87 1.76 1.81 1.63 1.46 1.42 1.51 1.41 1.53 1.71 1.75 1.89 1.83 1.86 2.07 1.75 1.50 1.33 1.49 1.80 1.81 1.89 1.96 2.20 2.36 1.84 1.83 2.14
0.02 0.02 0.01 0.02 0.02 0.04 0.11 0.20 0.35 0.66 1.15 1.41 1.30 1.15 1.16 1.36 1.58 2.12 2.46 2.33 2.20 2.13 2.01 2.25 2.16 2.03 2.03 1.89 1.87 1.67 1.60 1.62 1.75 1.85 1.83 1.99 1.97 1.84 1.83 1.95 1.99 2.15 2.30 2.53 2.41 2.57 2.56 2.61 2.46
0.01 0.01 0.01 0.01 0.02 0.04 0.09 0.20 0.33 0.56 0.84 0.91 0.81 0.97 1.37 1.47 1.73 2.25 2.81 2.82 2.72 2.56 2.62 2.78 2.80 2.86 2.68 2.42 2.20 1.81 1.74 1.65 1.62 1.68 1.69 1.90 2.16 2.19 2.30 2.11 2.13 1.93 2.05 2.39 2.65 2.68 2.89 3.04 2.90
0.01 0.01 0.02 0.03 0.05 0.06 0.10 0.21 0.38 0.75 0.76 0.69 0.81 1.12 1.45 1.82 1.94 2.34 3.02 3.28 3.22 3.19 3.36 3.36 3.39 3.40 3.18 2.76 2.51 2.22 1.92 1.90 1.73 1.69 1.77 2.21 2.42 2.37 2.45 2.35 2.30 2.01 2.02 2.33 2.67 2.74 3.02 3.01 3.03
0.01 0.04 0.10 0.10 0.08 0.10 0.15 0.45 0.65 0.82 0.78 0.77 0.98 1.21 1.66 2.20 2.41 2.68 3.09 3.40 3.63 3.87 4.04 4.22 4.14 3.83 3.76 3.39 2.75 2.29 2.01 1.83 1.87 1.97 2.03 2.28 2.44 2.59 2.74 2.66 2.31 2.09 2.19 2.38 2.40 2.53 2.98 2.83 2.80
0.02 0.07 0.24 0.20 0.10 0.12 0.22 0.67 0.81 0.84 0.87 0.94 1.16 1.49 1.82 2.28 2.34 2.59 2.95 3.47 4.05 4.44 4.84 5.03 4.70 4.55 4.46 4.08 3.50 2.98 2.67 2.44 2.39 2.36 2.19 2.01 2.21 2.33 2.52 2.29 1.94 2.01 2.24 2.40 2.37 2.38 2.76 2.86 2.88
0.06 0.10 0.20 0.20 0.13 0.13 0.24 0.64 0.65 0.56 0.91 1.29 1.53 1.69 1.83 1.98 2.08 2.30 2.65 3.35 4.15 4.78 5.48 5.87 6.02 5.50 5.05 4.44 3.97 3.46 3.13 2.90 2.64 2.34 2.09 1.81 1.63 1.58 1.76 1.71 1.64 1.69 1.95 1.99 1.77 2.00 2.28 2.44 2.59
0.05 0.09 0.16 0.20 0.17 0.17 0.30 0.57 0.68 0.60 0.89 1.25 1.30 1.57 1.68 1.68 1.86 2.25 2.77 3.28 4.15 4.94 5.64 6.01 6.17 5.62 4.86 4.49 4.38 4.00 3.43 3.01 2.63 2.24 1.99 1.63 1.46 1.31 1.44 1.45 1.33 1.35 1.45 1.50 1.67 1.95 2.03 1.96 2.04
0.04 0.09 0.16 0.18 0.18 0.24 0.41 0.66 0.78 0.78 0.84 0.99 1.10 1.30 1.34 1.38 1.65 2.11 2.74 3.40 4.21 5.31 5.96 6.05 5.70 4.98 4.43 3.93 3.63 3.30 3.01 2.75 2.31 1.92 1.68 1.51 1.41 1.32 1.41 1.30 1.29 1.24 1.26 1.26 1.38 1.59 1.65 1.45 1.59
0.05 0.09 0.17 0.17 0.14 0.16 0.38 0.72 0.82 0.88 0.95 0.95 1.01 1.10 1.02 1.17 1.51 2.11 2.89 3.70 4.32 4.87 5.23 5.27 4.84 4.07 3.57 3.22 3.12 2.83 2.58 2.23 2.01 1.76 1.66 1.42 1.32 1.25 1.19 1.29 1.12 1.08 1.18 1.15 1.24 1.43 1.45 1.28 1.37
0.08 0.09 0.15 0.18 0.15 0.17 0.38 0.86 1.03 0.98 0.97 0.97 0.87 0.85 0.94 1.14 1.69 2.47 3.30 4.04 4.33 4.36 4.15 3.84 3.60 3.19 3.05 2.94 2.74 2.49 2.39 2.10 1.90 1.64 1.48 1.26 1.11 1.04 0.99 0.98 0.95 0.98 0.91 1.01 1.15 1.26 1.41 1.37 1.18
0.09 0.07 0.05 0.07 0.13 0.34 0.47 0.94 1.09 1.11 1.07 0.95 0.91 0.93 1.04 1.30 1.84 2.56 3.12 3.35 3.48 3.41 3.12 2.90 2.78 2.67 2.59 2.49 2.33 2.01 1.78 1.71 1.57 1.45 1.40 1.29 1.14 1.07 1.01 0.88 0.91 0.91 0.82 1.01 0.88 1.00 1.21 1.30 1.12
0.06 0.04 0.04 0.08 0.19 0.35 0.49 0.79 1.14 1.13 1.20 0.81 0.69 0.80 0.89 1.10 1.40 1.64 1.86 2.02 2.14 2.17 2.32 2.35 2.40 2.50 2.38 2.32 2.24 2.08 1.80 1.74 1.72 1.66 1.67 1.55 1.38 1.18 0.98 0.95 1.00 1.00 0.87 0.89 0.92 1.07 1.11 1.15 1.09
0.04 0.06 0.13 0.22 0.37 0.71 0.70 0.83 1.17 1.16 0.99 0.62 0.44 0.49 0.69 0.80 0.87 0.97 1.08 1.20 1.43 1.48 1.67 1.82 1.88 2.01 2.13 2.11 1.98 1.92 1.83 1.83 1.83 1.72 1.55 1.36 1.26 1.17 1.05 1.05 1.16 1.12 1.05 0.98 0.96 0.99 1.04 1.17 1.25
0.05 0.09 0.31 0.64 0.99 1.05 0.62 0.73 1.12 1.04 0.72 0.46 0.37 0.33 0.38 0.54 0.69 0.84 0.97 1.08 1.27 1.20 1.25 1.43 1.48 1.51 1.63 1.64 1.60 1.66 1.76 1.78 1.62 1.50 1.40 1.25 1.05 1.01 1.07 1.06 1.15 1.14 1.15 1.10 1.15 1.15 1.07 1.15 1.23
0.06 0.07 0.18 0.35 0.46 0.62 0.65 1.13 1.36 0.80 0.50 0.35 0.31 0.27 0.28 0.43 0.60 0.71 0.70 0.78 0.90 0.86 0.93 1.05 1.19 1.25 1.29 1.36 1.40 1.40 1.50 1.47 1.40 1.45 1.36 1.21 1.01 0.93 0.94 0.98 1.00 1.03 1.07 1.06 1.29 1.20 1.21 1.23 1.16
0.06 0.05 0.07 0.10 0.17 0.44 0.81 1.16 1.13 0.68 0.51 0.34 0.29 0.26 0.27 0.33 0.48 0.53 0.46 0.47 0.59 0.69 0.75 0.80 0.98 1.10 1.11 1.22 1.28 1.23 1.29 1.34 1.39 1.41 1.32 1.15 1.14 1.04 1.05 1.05 1.14 1.19 1.20 1.22 1.38 1.34 1.28 1.34 1.19
0.07 0.07 0.08 0.10 0.19 0.40 0.73 1.17 1.38 1.00 0.57 0.39 0.38 0.37 0.35 0.32 0.37 0.39 0.37 0.35 0.43 0.55 0.71 0.80 0.91 1.01 1.04 1.13 1.12 0.98 1.13 1.24 1.36 1.34 1.27 1.21 1.24 1.16 1.21 1.22 1.27 1.32 1.28 1.27 1.40 1.40 1.44 1.46 1.36
0.09 0.09 0.10 0.11 0.12 0.23 0.56 0.84 0.73 0.72 0.55 0.53 0.50 0.44 0.40 0.35 0.37 0.36 0.32 0.30 0.32 0.41 0.60 0.73 0.85 0.94 0.97 1.03 1.11 1.16 1.15 1.07 1.18 1.24 1.24 1.28 1.31 1.23 1.25 1.31 1.37 1.34 1.38 1.47 1.56 1.44 1.49 1.56 1.68
0.11 0.11 0.12 0.14 0.12 0.13 0.27 0.44 0.44 0.62 0.61 0.59 0.58 0.53 0.49 0.35 0.32 0.33 0.33 0.35 0.35 0.36 0.47 0.59 0.71 0.83 0.90 0.98 1.10 1.16 1.24 1.16 1.13 1.17 1.24 1.30 1.40 1.44 1.38 1.39 1.41 1.31 1.33 1.50 1.58 1.56 1.56 1.57 1.58

GEFSSGP_prec_meanprecacc_204.txt.gz
Total_Precipitation_Accumulation
0.05 0.11 0.29 0.57 1.23 1.54 1.31 0.74 0.55 0.43 0.44 0.46 0.47 0.46 0.51 0.60 0.91 1.30 0.94 0.57 0.21 0.12 0.18 0.38 0.54 0.45 0.42 0.44 0.45 0.47 0.42 0.40 0.41 0.41 0.38 0.42 0.42 0.44 0.47 0.53 0.56 0.65 0.76 0.78 0.72 0.74 0.66 0.67 0.74
0.08 0.15 0.35 0.84 1.52 1.52 1.14 0.63 0.47 0.37 0.41 0.40 0.36 0.41 0.54 0.61 0.48 0.53 0.67 0.53 0.19 0.09 0.10 0.14 0.36 0.41 0.39 0.42 0.43 0.45 0.44 0.40 0.39 0.42 0.39 0.42 0.48 0.52 0.55 0.52 0.55 0.62 0.67 0.64 0.64 0.58 0.62 0.66 0.74
0.10 0.18 0.38 0.85 1.01 0.99 0.80 0.51 0.43 0.34 0.44 0.59 0.50 0.42 0.54 0.72 0.55 0.49 0.49 0.30 0.17 0.11 0.10 0.17 0.32 0.34 0.35 0.40 0.41 0.42 0.41 0.41 0.39 0.42 0.40 0.45 0.50 0.60 0.64 0.60 0.56 0.57 0.59 0.60 0.62 0.59 0.66 0.65 0.74
0.10 0.23 0.42 0.55 0.43 0.40 0.42 0.42 0.43 0.46 0.65 0.80 0.66 0.54 0.60 0.58 0.53 0.46 0.37 0.26 0.19 0.16 0.15 0.22 0.34 0.34 0.36 0.38 0.38 0.38 0.37 0.39 0.41 0.46 0.46 0.49 0.51 0.63 0.63 0.64 0.63 0.60 0.62 0.69 0.73 0.67 0.71 0.71 0.72
0.10 0.28 0.55 0.41 0.24 0.24 0.26 0.31 0.46 0.53 0.77 0.86 0.63 0.67 0.78 0.71 0.62 0.57 0.43 0.38 0.35 0.38 0.36 0.35 0.43 0.41 0.40 0.38 0.39 0.39 0.40 0.40 0.43 0.46 0.46 0.51 0.54 0.63 0.65 0.67 0.68 0.62 0.63 0.70 0.79 0.76 0.76 0.82 0.88
0.09 0.22 0.37 0.28 0.17 0.15 0.19 0.26 0.41 0.54 0.75 0.84 0.70 0.90 0.99 0.98 0.90 0.81 0.76 0.81 0.75 0.77 0.71 0.65 0.65 0.58 0.52 0.48 0.48 0.47 0.47 0.43 0.47 0.50 0.50 0.52 0.57 0.61 0.63 0.67 0.69 0.65 0.64 0.70 0.75 0.78 0.81 0.86 0.90
0.08 0.18 0.24 0.16 0.11 0.12 0.19 0.25 0.43 0.61 0.76 0.98 0.95 1.06 1.11 1.27 1.17 1.06 1.04 1.10 1.16 1.12 1.04 0.85 0.72 0.67 0.62 0.66 0.63 0.56 0.52 0.50 0.51 0.57 0.54 0.52 0.55 0.55 0.56 0.65 0.71 0.65 0.68 0.71 0.75 0.76 0.83 0.83 0.85
0.05 0.09 0.14 0.09 0.06 0.09 0.17 0.25 0.39 0.59 0.83 0.97 0.98 1.07 1.12 1.14 1.15 1.23 1.33 1.46 1.66 1.52 1.34 1.02 0.83 0.87 0.75 0.69 0.71 0.66 0.60 0.58 0.59 0.63 0.61 0.63 0.67 0.66 0.71 0.75 0.84 0.77 0.75 0.75 0.82 0.88 0.86 0.88 0.90
0.03 0.06 0.08 0.07 0.03 0.06 0.16 0.32 0.45 0.50 0.67 1.00 1.22 1.06 0.92 1.01 1.33 1.56 1.89 1.95 2.07 1.93 1.51 1.13 1.05 1.13 1.02 0.84 0.76 0.92 0.84 0.81 0.83 0.90 0.92 1.10 1.37 1.15 1.14 0.96 1.07 1.00 0.99 1.01 1.10 1.15 1.17 1.12 0.99
0.03 0.06 0.06 0.03 0.02 0.04 0.15 0.38 0.54 0.64 0.99 1.32 1.49 1.28 1.07 1.06 1.50 1.87 2.03 2.15 1.85 1.89 1.84 1.51 1.27 1.20 1.23 1.07 1.08 1.47 1.42 1.35 1.49 1.55 1.50 1.83 1.84 1.64 1.19 1.17 1.46 1.43 1.50 1.58 1.80 1.94 1.72 1.41 1.22
0.02 0.03 0.02 0.03 0.02 0.06 0.19 0.23 0.31 0.58 1.20 1.59 1.78 1.40 1.16 1.22 1.56 2.07 2.25 2.17 1.90 1.89 1.79 1.82 1.65 1.49 1.46 1.56 1.47 1.61 1.80 1.85 1.96 1.87 1.90 2.12 1.80 1.54 1.36 1.54 1.88 1.90 1.97 2.04 2.26 2.42 1.89 1.88 2.17
0.02 0.02 0.01 0.02 0.02 0.04 0.11 0.20 0.35 0.66 1.15 1.41 1.31 1.15 1.16 1.37 1.59 2.13 2.47 2.36 2.22 2.15 2.04 2.27 2.19 2.08 2.08 1.94 1.92 1.73 1.67 1.69 1.81 1.89 1.86 2.01 2.00 1.88 1.86 1.99 2.04 2.20 2.36 2.59 2.46 2.62 2.59 2.64 2.49
0.01 0.01 0.01 0.01 0.02 0.04 0.09 0.20 0.33 0.56 0.84 0.91 0.81 0.97 1.38 1.49 1.74 2.26 2.82 2.84 2.74 2.58 2.64 2.80 2.85 2.93 2.74 2.48 2.25 1.85 1.80 1.71 1.67 1.73 1.73 1.94 2.19 2.23 2.35 2.15 2.16 1.96 2.09 2.43 2.70 2.73 2.93 3.07 2.93
0.01 0.01 0.02 0.03 0.05 0.06 0.10 0.21 0.38 0.75 0.76 0.69 0.81 1.12 1.47 1.85 1.97 2.35 3.03 3.32 3.26 3.22 3.39 3.40 3.43 3.45 3.24 2.83 2.57 2.25 1.95 1.96 1.77 1.73 1.81 2.26 2.47 2.43 2.51 2.39 2.34 2.03 2.04 2.35 2.71 2.78 3.07 3.06 3.07
0.01 0.04 0.10 0.10 0.08 0.10 0.15 0.45 0.65 0.82 0.78 0.77 0.98 1.22 1.68 2.23 2.44 2.70 3.12 3.46 3.68 3.92 4.08 4.27 4.18 3.87 3.81 3.44 2.79 2.31 2.04 1.87 1.91 2.01 2.08 2.34 2.50 2.65 2.79 2.71 2.36 2.13 2.22 2.41 2.43 2.57 3.03 2.88 2.84
0.02 0.07 0.24 0.20 0.10 0.12 0.22 0.68 0.82 0.84 0.88 0.95 1.17 1.49 1.83 2.30 2.36 2.61 2.98 3.54 4.12 4.50 4.89 5.08 4.73 4.58 4.51 4.14 3.54 3.01 2.71 2.48 2.43 2.40 2.22 2.05 2.26 2.37 2.57 2.34 1.99 2.06 2.29 2.44 2.42 2.43 2.81 2.92 2.93
0.06 0.10 0.20 0.20 0.13 0.14 0.24 0.64 0.65 0.56 0.92 1.30 1.53 1.70 1.84 2.00 2.09 2.32 2.69 3.43 4.24 4.83 5.53 5.91 6.06 5.54 5.09 4.50 4.02 3.52 3.18 2.95 2.69 2.40 2.14 1.86 1.69 1.62 1.80 1.78 1.71 1.73 1.99 2.05 1.81 2.04 2.33 2.50 2.65
0.05 0.09 0.16 0.20 0.17 0.17 0.30 0.57 0.68 0.60 0.89 1.25 1.30 1.57 1.68 1.68 1.87 2.27 2.80 3.33 4.18 4.97 5.66 6.04 6.21 5.67 4.92 4.57 4.45 4.06 3.50 3.08 2.70 2.31 2.05 1.70 1.53 1.36 1.51 1.52 1.41 1.40 1.52 1.58 1.76 2.04 2.11 2.03 2.10
0.04 0.09 0.16 0.18 0.18 0.24 0.41 0.66 0.78 0.78 0.84 0.99 1.11 1.30 1.34 1.39 1.65 2.12 2.77 3.43 4.23 5.33 5.98 6.08 5.75 5.03 4.47 4.01 3.73 3.42 3.13 2.84 2.38 1.97 1.72 1.58 1.50 1.41 1.52 1.36 1.38 1.32 1.35 1.35 1.47 1.67 1.74 1.54 1.70
0.05 0.09 0.17 0.17 0.14 0.16 0.38 0.72 0.82 0.88 0.95 0.95 1.01 1.10 1.02 1.17 1.52 2.12 2.91 3.72 4.38 4.92 5.26 5.30 4.88 4.11 3.61 3.28 3.18 2.89 2.65 2.30 2.08 1.81 1.72 1.49 1.41 1.36 1.27 1.36 1.19 1.15 1.26 1.23 1.33 1.53 1.53 1.35 1.47
0.08 0.09 0.15 0.18 0.15 0.17 0.38 0.86 1.03 0.98 0.97 0.97 0.87 0.86 0.94 1.14 1.70 2.47 3.30 4.06 4.39 4.40 4.16 3.85 3.63 3.22 3.07 2.98 2.77 2.52 2.43 2.14 1.94 1.70 1.56 1.33 1.19 1.11 1.08 1.08 1.03 1.06 0.98 1.09 1.25 1.37 1.50 1.46 1.28
0.09 0.07 0.05 0.07 0.13 0.34 0.47 0.94 1.09 1.11 1.07 0.95 0.91 0.93 1.04 1.30 1.85 2.57 3.12 3.36 3.51 3.43 3.13 2.91 2.80 2.70 2.62 2.52 2.37 2.05 1.83 1.77 1.63 1.52 1.46 1.35 1.21 1.14 1.09 0.99 1.03 1.02 0.92 1.13 0.99 1.09 1.33 1.42 1.24
0.06 0.04 0.04 0.08 0.19 0.35 0.49 0.79 1.14 1.13 1.20 0.81 0.69 0.80 0.89 1.11 1.41 1.65 1.87 2.02 2.15 2.18 2.32 2.35 2.41 2.51 2.41 2.35 2.29 2.15 1.87 1.80 1.77 1.73 1.74 1.62 1.44 1.26 1.04 1.02 1.10 1.11 0.97 1.00 1.03 1.18 1.22 1.26 1.21
0.04 0.06 0.13 0.22 0.37 0.71 0.70 0.83 1.17 1.16 1.00 0.62 0.44 0.49 0.69 0.81 0.87 0.98 1.08 1.20 1.43 1.48 1.67 1.83 1.89 2.03 2.16 2.16 2.02 1.97 1.89 1.90 1.89 1.80 1.63 1.43 1.32 1.23 1.12 1.12 1.25 1.21 1.14 1.08 1.07 1.10 1.15 1.26 1.34
0.05 0.09 0.31 0.64 0.99 1.05 0.62 0.73 1.12 1.04 0.72 0.46 0.37 0.33 0.38 0.54 0.69 0.84 0.97 1.08 1.27 1.20 1.25 1.43 1.49 1.52 1.65 1.66 1.62 1.68 1.80 1.84 1.69 1.56 1.47 1.33 1.11 1.08 1.14 1.14 1.24 1.21 1.22 1.17 1.24 1.25 1.17 1.24 1.32
0.06 0.07 0.18 0.35 0.46 0.62 0.65 1.13 1.36 0.80 0.50 0.35 0.31 0.27 0.28 0.43 0.60 0.71 0.71 0.78 0.90 0.86 0.94 1.06 1.19 1.26 1.31 1.37 1.43 1.42 1.54 1.54 1.47 1.52 1.43 1.29 1.07 0.99 0.99 1.04 1.07 1.10 1.13 1.12 1.38 1.29 1.30 1.35 1.29
0.06 0.05 0.07 0.10 0.17 0.44 0.81 1.16 1.13 0.68 0.51 0.34 0.29 0.26 0.27 0.33 0.48 0.53 0.46 0.47 0.60 0.70 0.76 0.81 0.99 1.11 1.12 1.23 1.30 1.25 1.32 1.40 1.46 1.48 1.38 1.21 1.19 1.08 1.08 1.09 1.19 1.25 1.27 1.29 1.45 1.42 1.38 1.47 1.31
0.07 0.07 0.08 0.10 0.19 0.40 0.73 1.17 1.38 1.00 0.57 0.39 0.38 0.37 0.35 0.32 0.37 0.39 0.37 0.35 0.43 0.56 0.72 0.81 0.92 1.03 1.05 1.14 1.13 0.99 1.15 1.27 1.41 1.39 1.31 1.27 1.29 1.21 1.25 1.26 1.32 1.37 1.34 1.34 1.49 1.50 1.54 1.58 1.48
0.09 0.09 0.10 0.11 0.12 0.23 0.56 0.84 0.73 0.72 0.55 0.53 0.50 0.44 0.40 0.35 0.37 0.36 0.32 0.30 0.32 0.42 0.61 0.74 0.86 0.95 0.98 1.05 1.13 1.17 1.17 1.10 1.21 1.26 1.26 1.31 1.35 1.27 1.29 1.36 1.42 1.39 1.44 1.53 1.62 1.51 1.55 1.64 1.76
0.11 0.11 0.12 0.14 0.12 0.13 0.27 0.44 0.44 0.62 0.61 0.59 0.58 0.53 0.49 0.36 0.32 0.33 0.33 0.35 0.35 0.37 0.48 0.60 0.72 0.84 0.91 1.00 1.13 1.18 1.26 1.18 1.15 1.19 1.26 1.32 1.42 1.46 1.42 1.45 1.47 1.36 1.38 1.56 1.63 1.61 1.63 1.64 1.65

GEFSSGP_prec_meanprecacc_210.txt.gz
Total_Precipitation_Accumulation
0.05 0.11 0.29 0.57 1.26 1.56 1.32 0.75 0.55 0.43 0.44 0.46 0.47 0.46 0.51 0.60 0.93 1.35 0.99 0.62 0.23 0.13 0.20 0.41 0.61 0.52 0.49 0.51 0.51 0.54 0.50 0.47 0.48 0.48 0.48 0.52 0.51 0.52 0.56 0.64 0.68 0.78 0.89 0.89 0.82 0.86 0.78 0.78 0.84
0.08 0.15 0.36 0.85 1.54 1.53 1.15 0.64 0.48 0.37 0.41 0.40 0.36 0.41 0.54 0.61 0.48 0.55 0.71 0.57 0.21 0.10 0.11 0.15 0.38 0.46 0.45 0.48 0.48 0.50 0.49 0.47 0.47 0.54 0.49 0.50 0.56 0.61 0.63 0.59 0.61 0.71 0.80 0.76 0.74 0.68 0.72 0.75 0.82
0.10 0.18 0.39 0.86 1.01 1.01 0.82 0.52 0.43 0.34 0.44 0.59 0.50 0.42 0.55 0.73 0.55 0.51 0.54 0.33 0.18 0.12 0.10 0.18 0.34 0.36 0.40 0.46 0.46 0.46 0.47 0.48 0.47 0.53 0.47 0.52 0.56 0.66 0.72 0.67 0.66 0.72 0.75 0.75 0.75 0.71 0.76 0.73 0.81
0.10 0.23 0.43 0.55 0.44 0.41 0.43 0.42 0.43 0.46 0.66 0.80 0.66 0.56 0.62 0.59 0.54 0.47 0.39 0.26 0.19 0.18 0.15 0.23 0.36 0.37 0.39 0.44 0.45 0.44 0.44 0.46 0.49 0.55 0.53 0.56 0.58 0.69 0.69 0.69 0.71 0.71 0.75 0.83 0.86 0.80 0.79 0.78 0.78
0.10 0.29 0.55 0.41 0.25 0.25 0.26 0.31 0.47 0.53 0.77 0.86 0.63 0.70 0.81 0.73 0.63 0.57 0.43 0.39 0.35 0.39 0.38 0.36 0.45 0.45 0.44 0.44 0.46 0.44 0.44 0.46 0.51 0.56 0.56 0.60 0.62 0.69 0.70 0.72 0.73 0.67 0.70 0.81 0.93 0.88 0.85 0.88 0.93
0.10 0.22 0.37 0.29 0.19 0.15 0.19 0.27 0.41 0.54 0.75 0.84 0.70 0.96 1.03 1.00 0.90 0.82 0.76 0.81 0.76 0.78 0.72 0.65 0.66 0.61 0.56 0.53 0.54 0.53 0.51 0.47 0.51 0.57 0.58 0.59 0.63 0.65 0.67 0.70 0.72 0.69 0.68 0.78 0.87 0.89 0.88 0.91 0.96
0.09 0.18 0.24 0.17 0.11 0.13 0.19 0.26 0.43 0.61 0.76 0.98 0.96 1.11 1.16 1.30 1.18 1.07 1.05 1.11 1.16 1.13 1.07 0.89 0.75 0.68 0.65 0.71 0.67 0.61 0.56 0.54 0.55 0.61 0.58 0.56 0.60 0.58 0.58 0.67 0.74 0.70 0.72 0.78 0.84 0.85 0.91 0.90 0.90
0.05 0.09 0.14 0.09 0.06 0.10 0.17 0.25 0.39 0.59 0.83 0.97 0.98 1.09 1.15 1.17 1.17 1.27 1.37 1.48 1.67 1.54 1.36 1.07 0.89 0.91 0.77 0.72 0.74 0.70 0.63 0.62 0.62 0.66 0.64 0.68 0.72 0.71 0.75 0.78 0.87 0.82 0.80 0.81 0.89 0.95 0.93 0.94 0.94
0.04 0.06 0.08 0.07 0.03 0.07 0.16 0.32 0.46 0.51 0.67 1.00 1.22 1.07 0.94 1.02 1.34 1.59 1.93 1.99 2.09 1.95 1.53 1.15 1.08 1.16 1.05 0.87 0.79 0.96 0.88 0.84 0.87 0.95 0.96 1.18 1.49 1.24 1.21 1.01 1.11 1.06 1.05 1.07 1.16 1.21 1.22 1.17 1.06
0.03 0.06 0.06 0.03 0.02 0.04 0.15 0.38 0.54 0.65 0.99 1.32 1.49 1.29 1.07 1.07 1.52 1.88 2.06 2.17 1.88 1.91 1.85 1.53 1.29 1.23 1.26 1.10 1.11 1.52 1.48 1.42 1.57 1.64 1.59 1.94 1.96 1.74 1.25 1.21 1.50 1.48 1.55 1.64 1.85 1.99 1.77 1.48 1.30
0.02 0.03 0.02 0.03 0.02 0.06 0.19 0.23 0.31 0.58 1.20 1.59 1.79 1.41 1.17 1.25 1.60 2.10 2.26 2.19 1.91 1.90 1.81 1.85 1.68 1.52 1.49 1.59 1.50 1.66 1.88 1.94 2.04 1.96 1.97 2.20 1.85 1.59 1.42 1.60 1.95 1.97 2.03 2.10 2.31 2.47 1.94 1.95 2.26
0.02 0.02 0.01 0.02 0.02 0.04 0.11 0.20 0.35 0.66 1.15 1.42 1.31 1.16 1.18 1.38 1.60 2.15 2.50 2.38 2.24 2.16 2.06 2.32 2.23 2.12 2.12 1.98 1.95 1.77 1.73 1.76 1.86 1.96 1.91 2.06 2.06 1.95 1.94 2.07 2.12 2.27 2.42 2.66 2.52 2.67 2.63 2.69 2.54
0.01 0.01 0.01 0.01 0.02 0.04 0.09 0.20 0.33 0.56 0.84 0.91 0.81 0.98 1.43 1.52 1.76 2.27 2.84 2.85 2.76 2.60 2.67 2.83 2.88 2.97 2.78 2.52 2.30 1.89 1.86 1.77 1.72 1.79 1.79 1.99 2.24 2.29 2.40 2.20 2.24 2.02 2.14 2.49 2.78 2.79 2.99 3.13 2.99
0.01 0.01 0.02 0.03 0.05 0.06 0.11 0.23 0.38 0.76 0.76 0.69 0.81 1.13 1.50 1.88 2.00 2.37 3.04 3.34 3.29 3.25 3.43 3.43 3.46 3.49 3.29 2.89 2.62 2.31 2.01 2.00 1.80 1.78 1.86 2.31 2.54 2.49 2.57 2.46 2.41 2.10 2.09 2.41 2.78 2.85 3.13 3.15 3.16
0.01 0.04 0.10 0.10 0.08 0.10 0.16 0.50 0.66 0.82 0.78 0.77 0.99 1.22 1.69 2.26 2.46 2.72 3.15 3.50 3.73 3.95 4.10 4.29 4.21 3.90 3.88 3.54 2.86 2.35 2.08 1.90 1.95 2.06 2.13 2.37 2.54 2.71 2.86 2.78 2.42 2.18 2.25 2.46 2.50 2.63 3.09 2.97 2.92
0.02 0.07 0.25 0.21 0.10 0.12 0.23 0.72 0.82 0.85 0.88 0.95 1.17 1.49 1.83 2.31 2.37 2.61 3.01 3.59 4.17 4.55 4.93 5.11 4.75 4.62 4.59 4.23 3.63 3.07 2.75 2.52 2.48 2.44 2.26 2.10 2.31 2.43 2.63 2.41 2.04 2.11 2.32 2.48 2.48 2.49 2.87 2.99 3.00
0.06 0.10 0.21 0.21 0.14 0.14 0.25 0.65 0.66 0.58 0.92 1.31 1.54 1.70 1.84 2.00 2.10 2.33 2.71 3.45 4.27 4.87 5.57 5.95 6.10 5.59 5.17 4.57 4.11 3.59 3.24 3.02 2.76 2.45 2.18 1.91 1.73 1.66 1.88 1.85 1.77 1.78 2.03 2.08 1.85 2.09 2.39 2.57 2.71
0.06 0.09 0.16 0.20 0.17 0.17 0.31 0.57 0.68 0.60 0.89 1.25 1.30 1.57 1.69 1.69 1.88 2.28 2.82 3.34 4.20 4.99 5.69 6.08 6.27 5.73 4.98 4.63 4.54 4.15 3.58 3.16 2.78 2.38 2.11 1.75 1.58 1.41 1.59 1.58 1.45 1.45 1.58 1.64 1.83 2.12 2.19 2.09 2.14
0.04 0.09 0.17 0.18 0.18 0.24 0.41 0.67 0.79 0.78 0.84 0.99 1.11 1.30 1.35 1.39 1.65 2.13 2.78 3.44 4.23 5.34 6.00 6.11 5.81 5.09 4.54 4.10 3.82 3.51 3.22 2.93 2.45 2.03 1.78 1.66 1.55 1.47 1.61 1.45 1.46 1.38 1.43 1.44 1.53 1.74 1.82 1.60 1.75
0.05 0.10 0.17 0.17 0.14 0.16 0.38 0.73 0.83 0.88 0.95 0.95 1.01 1.10 1.02 1.17 1.52 2.13 2.91 3.73 4.38 4.93 5.28 5.33 4.93 4.16 3.66 3.35 3.25 2.97 2.72 2.37 2.15 1.88 1.81 1.57 1.47 1.44 1.34 1.44 1.26 1.22 1.37 1.34 1.43 1.64 1.65 1.45 1.56
0.08 0.09 0.15 0.18 0.15 0.17 0.38 0.88 1.08 1.00 0.98 0.97 0.87 0.86 0.94 1.14 1.70 2.48 3.31 4.06 4.40 4.41 4.18 3.88 3.67 3.26 3.11 3.02 2.81 2.58 2.50 2.19 2.00 1.78 1.65 1.40 1.24 1.17 1.16 1.17 1.09 1.14 1.04 1.20 1.38 1.48 1.64 1.60 1.41
0.09 0.07 0.06 0.08 0.13 0.34 0.47 0.96 1.14 1.13 1.08 0.95 0.91 0.93 1.04 1.30 1.85 2.58 3.13 3.37 3.51 3.43 3.13 2.92 2.83 2.73 2.66 2.55 2.40 2.09 1.89 1.85 1.72 1.60 1.57 1.44 1.28 1.21 1.16 1.07 1.12 1.12 0.99 1.22 1.05 1.18 1.46 1.56 1.38
0.06 0.04 0.04 0.08 0.19 0.35 0.49 0.80 1.16 1.15 1.22 0.83 0.69 0.80 0.89 1.11 1.42 1.66 1.87 2.03 2.15 2.18 2.33 2.36 2.43 2.54 2.44 2.38 2.33 2.18 1.91 1.87 1.84 1.82 1.87 1.72 1.53 1.33 1.11 1.11 1.21 1.24 1.08 1.12 1.14 1.30 1.33 1.36 1.35
0.04 0.06 0.13 0.22 0.37 0.72 0.70 0.83 1.19 1.18 1.04 0.64 0.45 0.49 0.69 0.81 0.88 0.98 1.08 1.21 1.44 1.49 1.67 1.83 1.90 2.05 2.18 2.17 2.04 1.99 1.92 1.95 1.95 1.89 1.73 1.53 1.41 1.32 1.19 1.23 1.38 1.32 1.26 1.23 1.19 1.22 1.26 1.40 1.48
0.05 0.10 0.32 0.65 1.00 1.06 0.63 0.73 1.13 1.04 0.73 0.46 0.37 0.34 0.38 0.54 0.69 0.84 0.97 1.08 1.27 1.20 1.25 1.44 1.50 1.53 1.67 1.68 1.64 1.70 1.83 1.88 1.74 1.62 1.54 1.41 1.20 1.17 1.23 1.25 1.37 1.33 1.36 1.28 1.37 1.38 1.32 1.39 1.45
0.06 0.07 0.19 0.37 0.48 0.64 0.66 1.14 1.37 0.80 0.50 0.35 0.31 0.27 0.28 0.43 0.60 0.71 0.71 0.78 0.90 0.86 0.94 1.06 1.20 1.28 1.32 1.40 1.45 1.45 1.57 1.59 1.52 1.57 1.48 1.36 1.14 1.05 1.07 1.14 1.18 1.21 1.25 1.23 1.53 1.42 1.42 1.47 1.40
0.06 0.05 0.07 0.10 0.18 0.46 0.83 1.18 1.14 0.68 0.51 0.34 0.29 0.27 0.27 0.33 0.48 0.54 0.46 0.47 0.60 0.70 0.76 0.82 1.00 1.13 1.13 1.25 1.33 1.28 1.35 1.44 1.50 1.52 1.44 1.27 1.26 1.13 1.14 1.15 1.29 1.38 1.40 1.42 1.59 1.55 1.50 1.61 1.45
0.07 0.07 0.08 0.11 0.19 0.40 0.75 1.21 1.43 1.02 0.57 0.39 0.38 0.37 0.35 0.32 0.38 0.40 0.38 0.36 0.43 0.56 0.72 0.81 0.93 1.04 1.06 1.16 1.16 1.03 1.18 1.30 1.45 1.43 1.37 1.33 1.35 1.27 1.31 1.33 1.40 1.47 1.44 1.45 1.59 1.58 1.63 1.69 1.59
0.10 0.09 0.10 0.12 0.13 0.23 0.57 0.87 0.76 0.74 0.56 0.54 0.50 0.44 0.40 0.35 0.37 0.37 0.33 0.31 0.32 0.42 0.61 0.74 0.87 0.96 0.99 1.07 1.15 1.20 1.20 1.14 1.25 1.29 1.29 1.34 1.38 1.30 1.33 1.40 1.48 1.46 1.51 1.62 1.71 1.58 1.62 1.71 1.84
0.11 0.12 0.12 0.14 0.13 0.13 0.28 0.47 0.47 0.64 0.62 0.59 0.59 0.55 0.51 0.36 0.32 0.33 0.34 0.36 0.36 0.38 0.49 0.62 0.75 0.86 0.93 1.02 1.14 1.21 1.31 1.24 1.22 1.24 1.30 1.35 1.46 1.50 1.46 1.49 1.52 1.42 1.45 1.62 1.70 1.68 1.70 1.71 1.73

GEFSSGP_prec_meanprecacc_216.txt.gz
Total_Precipitation_Accumulation
0.06 0.13 0.32 0.62 1.31 1.59 1.33 0.76 0.56 0.43 0.45 0.47 0.48 0.46 0.51 0.61 0.95 1.40 1.10 0.70 0.29 0.19 0.27 0.50 0.70 0.59 0.55 0.57 0.57 0.61 0.56 0.53 0.54 0.55 0.55 0.58 0.58 0.57 0.61 0.68 0.72 0.82 0.95 0.95 0.89 0.95 0.90 0.88 0.96
0.10 0.18 0.40 0.91 1.60 1.55 1.16 0.64 0.48 0.37 0.41 0.41 0.36 0.41 0.55 0.61 0.50 0.62 0.82 0.63 0.24 0.15 0.15 0.19 0.44 0.53 0.51 0.53 0.53 0.55 0.55 0.54 0.54 0.62 0.56 0.54 0.60 0.66 0.69 0.64 0.66 0.76 0.85 0.82 0.84 0.77 0.84 0.85 0.91
0.13 0.21 0.43 0.92 1.04 1.02 0.83 0.53 0.44 0.34 0.44 0.60 0.50 0.43 0.58 0.74 0.57 0.56 0.60 0.37 0.20 0.16 0.13 0.21 0.37 0.41 0.44 0.51 0.51 0.51 0.57 0.64 0.64 0.64 0.53 0.56 0.60 0.71 0.77 0.71 0.73 0.78 0.81 0.82 0.86 0.80 0.91 0.84 0.89
0.12 0.25 0.46 0.58 0.45 0.42 0.44 0.43 0.44 0.46 0.66 0.80 0.67 0.58 0.65 0.62 0.57 0.51 0.43 0.29 0.22 0.26 0.19 0.25 0.38 0.40 0.41 0.47 0.48 0.49 0.58 0.68 0.65 0.64 0.59 0.60 0.61 0.72 0.72 0.73 0.80 0.79 0.85 0.93 0.98 0.91 0.93 0.88 0.86
0.11 0.30 0.58 0.43 0.26 0.25 0.26 0.31 0.47 0.53 0.77 0.86 0.63 0.74 0.88 0.78 0.66 0.61 0.46 0.41 0.37 0.41 0.42 0.40 0.48 0.47 0.45 0.45 0.49 0.49 0.55 0.63 0.68 0.66 0.61 0.62 0.64 0.72 0.74 0.75 0.78 0.76 0.87 0.99 1.06 1.01 0.95 0.95 0.99
0.10 0.23 0.40 0.32 0.20 0.16 0.20 0.27 0.42 0.54 0.76 0.84 0.71 0.99 1.12 1.08 0.95 0.87 0.79 0.84 0.78 0.80 0.77 0.75 0.70 0.62 0.58 0.54 0.57 0.57 0.58 0.57 0.63 0.67 0.64 0.62 0.66 0.68 0.69 0.73 0.76 0.76 0.81 0.92 0.99 0.98 0.94 0.96 1.00
0.10 0.19 0.26 0.18 0.12 0.14 0.20 0.26 0.43 0.61 0.76 0.99 0.96 1.13 1.23 1.39 1.24 1.11 1.08 1.14 1.20 1.15 1.08 0.92 0.78 0.70 0.66 0.72 0.69 0.64 0.60 0.59 0.61 0.67 0.63 0.60 0.63 0.60 0.60 0.70 0.77 0.75 0.80 0.89 0.93 0.90 0.95 0.92 0.92
0.06 0.10 0.15 0.10 0.06 0.11 0.17 0.25 0.40 0.59 0.84 0.98 0.99 1.10 1.18 1.24 1.23 1.31 1.40 1.51 1.69 1.57 1.39 1.10 0.92 0.93 0.78 0.73 0.76 0.72 0.65 0.65 0.67 0.70 0.68 0.72 0.75 0.73 0.77 0.80 0.90 0.86 0.85 0.87 0.94 0.99 0.97 0.97 0.97
0.04 0.07 0.08 0.07 0.04 0.07 0.16 0.32 0.46 0.51 0.68 1.01 1.23 1.07 0.95 1.05 1.38 1.62 1.96 2.03 2.12 1.98 1.57 1.19 1.10 1.18 1.06 0.88 0.80 0.97 0.90 0.86 0.90 0.98 0.99 1.21 1.52 1.26 1.23 1.02 1.13 1.09 1.09 1.13 1.22 1.27 1.27 1.22 1.11
0.03 0.06 0.06 0.03 0.03 0.05 0.15 0.38 0.54 0.65 0.99 1.33 1.50 1.30 1.09 1.09 1.55 1.90 2.09 2.21 1.92 1.94 1.90 1.57 1.34 1.27 1.29 1.13 1.13 1.53 1.49 1.43 1.58 1.66 1.61 1.97 1.98 1.76 1.27 1.23 1.54 1.53 1.60 1.69 1.91 2.04 1.82 1.51 1.33
0.02 0.03 0.03 0.03 0.03 0.06 0.19 0.23 0.31 0.59 1.21 1.60 1.79 1.43 1.18 1.26 1.62 2.12 2.28 2.21 1.94 1.92 1.84 1.90 1.73 1.56 1.53 1.64 1.53 1.67 1.89 1.95 2.06 1.99 2.00 2.23 1.89 1.62 1.44 1.63 1.99 2.02 2.06 2.12 2.34 2.49 1.96 1.97 2.28
0.02 0.02 0.01 0.02 0.03 0.05 0.11 0.20 0.35 0.66 1.16 1.42 1.31 1.17 1.19 1.39 1.62 2.17 2.52 2.41 2.26 2.17 2.07 2.33 2.26 2.15 2.15 2.01 1.97 1.79 1.75 1.78 1.88 1.98 1.93 2.08 2.10 1.98 1.97 2.10 2.16 2.30 2.44 2.69 2.55 2.69 2.65 2.72 2.57
0.01 0.01 0.01 0.02 0.03 0.04 0.09 0.21 0.33 0.57 0.85 0.91 0.81 0.99 1.44 1.53 1.78 2.29 2.85 2.87 2.78 2.61 2.68 2.85 2.89 2.98 2.79 2.54 2.32 1.92 1.90 1.80 1.75 1.81 1.81 2.02 2.27 2.32 2.43 2.23 2.26 2.05 2.17 2.52 2.82 2.84 3.03 3.16 3.02
0.01 0.02 0.02 0.04 0.06 0.07 0.12 0.23 0.39 0.76 0.77 0.70 0.82 1.13 1.51 1.90 2.04 2.39 3.09 3.37 3.32 3.27 3.45 3.45 3.47 3.50 3.31 2.90 2.64 2.34 2.03 2.03 1.83 1.80 1.88 2.34 2.56 2.52 2.60 2.48 2.43 2.12 2.12 2.44 2.81 2.88 3.17 3.19 3.20
0.02 0.04 0.10 0.11 0.09 0.11 0.17 0.51 0.67 0.83 0.79 0.78 0.99 1.23 1.71 2.29 2.51 2.75 3.22 3.56 3.76 3.99 4.15 4.33 4.23 3.94 3.91 3.56 2.88 2.38 2.10 1.92 1.98 2.09 2.15 2.39 2.56 2.74 2.90 2.81 2.45 2.21 2.28 2.48 2.52 2.66 3.14 3.01 2.96
0.04 0.08 0.26 0.22 0.11 0.13 0.24 0.73 0.84 0.86 0.89 0.96 1.19 1.51 1.87 2.33 2.41 2.66 3.04 3.62 4.19 4.57 4.97 5.16 4.78 4.66 4.62 4.26 3.65 3.09 2.77 2.54 2.51 2.49 2.31 2.12 2.34 2.46 2.68 2.45 2.07 2.15 2.35 2.50 2.51 2.53 2.91 3.03 3.04
0.07 0.11 0.23 0.22 0.15 0.15 0.26 0.65 0.67 0.59 0.94 1.33 1.57 1.73 1.88 2.03 2.15 2.37 2.73 3.47 4.28 4.88 5.59 5.97 6.12 5.61 5.20 4.60 4.13 3.61 3.26 3.04 2.79 2.49 2.22 1.94 1.77 1.69 1.91 1.88 1.80 1.81 2.06 2.11 1.87 2.11 2.42 2.62 2.74
0.07 0.11 0.17 0.22 0.18 0.19 0.32 0.58 0.69 0.61 0.90 1.27 1.32 1.60 1.70 1.71 1.91 2.31 2.83 3.36 4.21 5.00 5.70 6.10 6.30 5.75 5.01 4.66 4.57 4.17 3.60 3.18 2.81 2.42 2.15 1.78 1.63 1.45 1.63 1.64 1.50 1.49 1.62 1.67 1.85 2.14 2.21 2.13 2.18
0.06 0.11 0.18 0.20 0.19 0.28 0.44 0.69 0.82 0.80 0.85 1.01 1.13 1.33 1.36 1.40 1.66 2.14 2.79 3.46 4.24 5.35 6.01 6.12 5.83 5.10 4.56 4.12 3.85 3.54 3.25 2.96 2.48 2.08 1.82 1.69 1.59 1.51 1.66 1.50 1.51 1.43 1.47 1.47 1.56 1.77 1.84 1.62 1.79
0.06 0.10 0.18 0.18 0.16 0.18 0.41 0.75 0.87 0.90 0.96 0.96 1.04 1.12 1.03 1.19 1.53 2.14 2.92 3.73 4.39 4.94 5.29 5.35 4.94 4.17 3.67 3.37 3.27 2.99 2.74 2.39 2.17 1.92 1.86 1.62 1.53 1.49 1.38 1.48 1.32 1.28 1.43 1.40 1.48 1.68 1.69 1.48 1.61
0.08 0.10 0.16 0.19 0.17 0.19 0.40 0.90 1.10 1.02 0.99 0.99 0.89 0.87 0.96 1.15 1.71 2.49 3.31 4.07 4.41 4.42 4.18 3.89 3.69 3.27 3.12 3.03 2.83 2.59 2.52 2.22 2.03 1.82 1.71 1.46 1.29 1.23 1.23 1.23 1.14 1.19 1.10 1.25 1.42 1.54 1.69 1.65 1.48
0.10 0.08 0.06 0.09 0.14 0.35 0.48 0.99 1.17 1.17 1.11 0.97 0.92 0.94 1.06 1.32 1.86 2.58 3.13 3.37 3.52 3.44 3.14 2.93 2.84 2.75 2.68 2.57 2.43 2.11 1.91 1.88 1.74 1.64 1.63 1.51 1.33 1.25 1.21 1.13 1.19 1.19 1.05 1.28 1.10 1.24 1.51 1.62 1.44
0.06 0.05 0.05 0.09 0.19 0.36 0.51 0.84 1.20 1.20 1.27 0.85 0.71 0.82 0.91 1.12 1.43 1.66 1.87 2.03 2.15 2.18 2.33 2.37 2.44 2.56 2.46 2.40 2.36 2.23 1.95 1.89 1.86 1.85 1.92 1.78 1.58 1.37 1.15 1.15 1.28 1.32 1.17 1.19 1.20 1.37 1.38 1.41 1.41
0.05 0.07 0.13 0.22 0.37 0.73 0.73 0.86 1.22 1.22 1.10 0.68 0.48 0.53 0.72 0.82 0.88 0.98 1.08 1.21 1.44 1.49 1.67 1.84 1.91 2.07 2.20 2.21 2.09 2.03 1.95 1.97 1.97 1.91 1.76 1.56 1.44 1.35 1.23 1.28 1.43 1.39 1.34 1.29 1.25 1.27 1.31 1.45 1.55
0.06 0.11 0.33 0.66 1.00 1.07 0.64 0.75 1.15 1.06 0.75 0.48 0.41 0.39 0.41 0.55 0.70 0.85 0.98 1.08 1.27 1.20 1.25 1.44 1.52 1.55 1.69 1.72 1.67 1.72 1.84 1.90 1.77 1.66 1.58 1.44 1.22 1.19 1.26 1.28 1.42 1.40 1.42 1.34 1.44 1.45 1.39 1.46 1.54
0.07 0.08 0.20 0.37 0.49 0.66 0.69 1.18 1.40 0.82 0.53 0.38 0.35 0.31 0.31 0.44 0.61 0.71 0.71 0.78 0.91 0.87 0.94 1.07 1.21 1.29 1.34 1.42 1.47 1.47 1.59 1.61 1.56 1.61 1.52 1.38 1.17 1.07 1.09 1.16 1.21 1.25 1.30 1.28 1.58 1.48 1.48 1.54 1.48
0.07 0.06 0.08 0.11 0.19 0.49 0.88 1.22 1.18 0.72 0.55 0.37 0.33 0.32 0.31 0.35 0.49 0.55 0.47 0.48 0.61 0.70 0.76 0.82 1.01 1.14 1.15 1.27 1.35 1.31 1.39 1.48 1.54 1.56 1.47 1.29 1.29 1.16 1.17 1.18 1.32 1.42 1.44 1.47 1.65 1.60 1.56 1.67 1.51
0.08 0.08 0.09 0.12 0.20 0.42 0.78 1.26 1.50 1.09 0.61 0.44 0.42 0.41 0.39 0.35 0.40 0.42 0.40 0.37 0.43 0.56 0.72 0.82 0.95 1.07 1.09 1.20 1.20 1.08 1.23 1.35 1.49 1.46 1.39 1.35 1.37 1.29 1.34 1.35 1.43 1.50 1.48 1.48 1.63 1.63 1.69 1.75 1.65
0.10 0.10 0.11 0.13 0.15 0.25 0.60 0.92 0.80 0.79 0.59 0.57 0.55 0.50 0.46 0.40 0.42 0.40 0.34 0.32 0.33 0.42 0.63 0.76 0.91 1.02 1.08 1.15 1.23 1.27 1.28 1.22 1.31 1.32 1.32 1.36 1.39 1.32 1.35 1.42 1.50 1.47 1.53 1.65 1.74 1.62 1.66 1.76 1.91
0.12 0.13 0.13 0.15 0.14 0.15 0.30 0.49 0.49 0.66 0.64 0.61 0.64 0.61 0.57 0.41 0.35 0.36 0.37 0.37 0.37 0.39 0.52 0.66 0.82 0.97 1.03 1.10 1.22 1.30 1.44 1.39 1.31 1.29 1.33 1.38 1.47 1.51 1.47 1.51 1.54 1.44 1.47 1.66 1.74 1.72 1.74 1.77 1.79

GEFSSGP_prec_meanprecacc_222.txt.gz
Total_Precipitation_Accumulation
0.06 0.13 0.33 0.62 1.32 1.60 1.34 0.77 0.56 0.44 0.45 0.48 0.49 0.48 0.54 0.64 0.98 1.47 1.17 0.74 0.33 0.24 0.36 0.60 0.80 0.68 0.62 0.63 0.65 0.69 0.63 0.60 0.61 0.62 0.63 0.64 0.64 0.64 0.69 0.77 0.81 0.93 1.06 1.04 0.99 1.04 1.00 1.00 1.07
0.11 0.19 0.41 0.91 1.60 1.55 1.17 0.66 0.50 0.38 0.41 0.41 0.37 0.43 0.58 0.65 0.54 0.67 0.88 0.69 0.31 0.25 0.24 0.26 0.53 0.61 0.58 0.60 0.61 0.64 0.62 0.61 0.61 0.69 0.63 0.62 0.68 0.74 0.79 0.73 0.76 0.87 0.97 0.94 0.95 0.86 0.94 0.95 1.00
0.14 0.22 0.43 0.92 1.04 1.03 0.84 0.55 0.46 0.35 0.45 0.60 0.51 0.45 0.61 0.77 0.61 0.59 0.64 0.42 0.27 0.24 0.19 0.27 0.45 0.49 0.51 0.59 0.58 0.58 0.64 0.71 0.72 0.70 0.59 0.63 0.67 0.77 0.84 0.77 0.80 0.86 0.91 0.92 0.95 0.90 1.00 0.93 0.97
0.13 0.26 0.46 0.58 0.45 0.42 0.45 0.45 0.45 0.47 0.66 0.80 0.67 0.59 0.68 0.66 0.61 0.55 0.45 0.31 0.25 0.30 0.23 0.29 0.44 0.45 0.47 0.52 0.56 0.60 0.74 0.82 0.77 0.71 0.65 0.67 0.68 0.79 0.79 0.79 0.86 0.84 0.93 1.03 1.10 1.03 1.05 1.02 0.98
0.12 0.31 0.58 0.43 0.26 0.26 0.27 0.32 0.47 0.53 0.78 0.87 0.64 0.77 0.93 0.83 0.68 0.62 0.47 0.42 0.39 0.44 0.44 0.43 0.54 0.52 0.52 0.53 0.59 0.67 0.74 0.77 0.79 0.74 0.68 0.68 0.69 0.78 0.80 0.81 0.84 0.82 0.96 1.08 1.18 1.15 1.12 1.10 1.13
0.11 0.24 0.40 0.32 0.21 0.17 0.20 0.27 0.42 0.54 0.76 0.84 0.72 1.02 1.17 1.14 0.99 0.88 0.80 0.85 0.80 0.81 0.78 0.77 0.74 0.67 0.63 0.61 0.66 0.72 0.68 0.65 0.72 0.74 0.70 0.67 0.71 0.74 0.75 0.79 0.82 0.82 0.94 1.05 1.15 1.19 1.13 1.10 1.13
0.10 0.19 0.26 0.19 0.13 0.14 0.20 0.26 0.44 0.61 0.76 0.99 0.97 1.16 1.28 1.46 1.30 1.14 1.11 1.16 1.21 1.18 1.11 0.94 0.82 0.73 0.71 0.77 0.78 0.73 0.66 0.64 0.67 0.72 0.68 0.65 0.68 0.65 0.64 0.74 0.82 0.83 0.92 1.02 1.13 1.12 1.12 1.05 1.04
0.06 0.10 0.15 0.10 0.06 0.11 0.17 0.26 0.40 0.59 0.84 0.98 1.00 1.13 1.26 1.31 1.28 1.35 1.44 1.54 1.71 1.60 1.43 1.13 0.94 0.96 0.82 0.77 0.82 0.80 0.71 0.70 0.71 0.74 0.72 0.75 0.79 0.77 0.82 0.85 0.96 0.95 0.98 1.01 1.10 1.12 1.10 1.06 1.06
0.04 0.07 0.08 0.07 0.04 0.08 0.16 0.32 0.46 0.51 0.68 1.01 1.23 1.08 0.97 1.08 1.40 1.65 2.00 2.06 2.15 2.01 1.59 1.22 1.12 1.20 1.09 0.91 0.84 1.03 0.95 0.90 0.94 1.01 1.04 1.25 1.54 1.28 1.26 1.07 1.20 1.17 1.19 1.22 1.31 1.37 1.36 1.30 1.18
0.03 0.06 0.06 0.03 0.03 0.05 0.16 0.39 0.55 0.66 1.00 1.34 1.51 1.31 1.09 1.10 1.57 1.93 2.13 2.26 1.95 1.97 1.93 1.60 1.36 1.28 1.31 1.16 1.16 1.56 1.51 1.44 1.60 1.69 1.64 1.98 1.99 1.77 1.28 1.27 1.61 1.60 1.67 1.76 1.98 2.12 1.89 1.56 1.36
0.02 0.03 0.03 0.03 0.03 0.07 0.20 0.23 0.32 0.59 1.21 1.60 1.79 1.43 1.18 1.27 1.63 2.15 2.32 2.24 1.97 1.95 1.87 1.92 1.75 1.59 1.56 1.66 1.55 1.69 1.90 1.96 2.07 2.01 2.02 2.24 1.91 1.63 1.46 1.65 2.04 2.07 2.11 2.17 2.38 2.53 1.99 1.99 2.30
0.02 0.02 0.01 0.02 0.03 0.05 0.11 0.20 0.35 0.66 1.16 1.42 1.31 1.17 1.19 1.39 1.62 2.18 2.55 2.44 2.28 2.20 2.10 2.35 2.27 2.18 2.20 2.04 2.00 1.82 1.78 1.80 1.89 2.00 1.94 2.10 2.11 1.99 1.98 2.11 2.16 2.32 2.46 2.70 2.56 2.70 2.67 2.74 2.59
0.01 0.01 0.02 0.02 0.03 0.05 0.10 0.21 0.33 0.57 0.85 0.91 0.82 0.99 1.45 1.54 1.79 2.30 2.88 2.90 2.80 2.64 2.71 2.88 2.93 3.02 2.83 2.57 2.35 1.95 1.93 1.83 1.78 1.84 1.84 2.04 2.28 2.33 2.45 2.24 2.27 2.06 2.18 2.54 2.84 2.86 3.05 3.19 3.04
0.01 0.02 0.03 0.04 0.06 0.07 0.12 0.23 0.39 0.76 0.77 0.70 0.83 1.14 1.52 1.92 2.06 2.41 3.12 3.41 3.34 3.29 3.47 3.48 3.51 3.54 3.34 2.93 2.66 2.36 2.06 2.06 1.86 1.83 1.92 2.36 2.58 2.54 2.64 2.50 2.45 2.14 2.14 2.45 2.82 2.89 3.19 3.22 3.23
0.02 0.05 0.10 0.11 0.09 0.11 0.17 0.51 0.67 0.83 0.79 0.78 1.00 1.24 1.72 2.31 2.54 2.79 3.28 3.62 3.78 4.00 4.18 4.38 4.27 3.98 3.97 3.61 2.91 2.40 2.12 1.94 2.01 2.14 2.20 2.44 2.60 2.77 2.94 2.84 2.47 2.23 2.30 2.50 2.54 2.69 3.17 3.04 2.99
0.04 0.08 0.26 0.22 0.11 0.13 0.24 0.73 0.84 0.86 0.89 0.97 1.19 1.52 1.88 2.35 2.46 2.71 3.17 3.70 4.22 4.60 5.01 5.20 4.81 4.69 4.66 4.29 3.68 3.12 2.79 2.56 2.53 2.53 2.34 2.15 2.37 2.51 2.72 2.49 2.10 2.17 2.37 2.52 2.54 2.55 2.94 3.05 3.07
0.07 0.11 0.23 0.23 0.15 0.15 0.26 0.66 0.67 0.60 0.94 1.34 1.58 1.73 1.89 2.05 2.21 2.40 2.79 3.51 4.31 4.90 5.61 5.99 6.15 5.64 5.21 4.61 4.15 3.64 3.29 3.06 2.81 2.52 2.24 1.96 1.80 1.73 1.96 1.92 1.83 1.85 2.10 2.15 1.89 2.13 2.44 2.64 2.76
0.07 0.11 0.17 0.22 0.19 0.19 0.32 0.59 0.70 0.61 0.90 1.27 1.33 1.61 1.71 1.73 1.93 2.32 2.85 3.38 4.24 5.01 5.72 6.12 6.32 5.77 5.02 4.68 4.59 4.21 3.63 3.21 2.83 2.45 2.18 1.81 1.66 1.49 1.68 1.68 1.52 1.52 1.66 1.71 1.87 2.15 2.24 2.16 2.20
0.06 0.11 0.18 0.20 0.19 0.28 0.44 0.69 0.82 0.80 0.86 1.01 1.14 1.34 1.38 1.42 1.68 2.16 2.81 3.47 4.25 5.37 6.02 6.14 5.84 5.12 4.57 4.14 3.88 3.57 3.27 2.98 2.51 2.11 1.85 1.72 1.63 1.56 1.72 1.56 1.57 1.48 1.51 1.51 1.59 1.80 1.88 1.67 1.84
0.06 0.11 0.19 0.18 0.16 0.19 0.41 0.76 0.87 0.91 0.96 0.97 1.05 1.13 1.05 1.20 1.54 2.15 2.93 3.74 4.39 4.95 5.30 5.36 4.96 4.19 3.69 3.40 3.30 3.01 2.77 2.42 2.20 1.95 1.90 1.65 1.56 1.54 1.44 1.55 1.38 1.33 1.48 1.45 1.52 1.72 1.72 1.52 1.65
0.09 0.10 0.16 0.19 0.17 0.19 0.41 0.91 1.11 1.02 1.00 1.00 0.90 0.88 0.97 1.17 1.72 2.50 3.32 4.07 4.41 4.42 4.19 3.89 3.70 3.29 3.15 3.07 2.87 2.62 2.56 2.27 2.07 1.86 1.75 1.49 1.31 1.27 1.29 1.29 1.19 1.26 1.15 1.30 1.47 1.59 1.73 1.69 1.52
0.10 0.08 0.06 0.09 0.15 0.36 0.49 1.00 1.17 1.17 1.11 0.97 0.93 0.95 1.07 1.34 1.87 2.59 3.13 3.37 3.52 3.44 3.14 2.93 2.85 2.76 2.70 2.59 2.45 2.14 2.00 1.94 1.77 1.67 1.66 1.54 1.36 1.28 1.26 1.18 1.25 1.24 1.10 1.32 1.14 1.29 1.55 1.66 1.50
0.06 0.05 0.05 0.09 0.20 0.37 0.52 0.85 1.21 1.20 1.27 0.85 0.71 0.82 0.92 1.13 1.44 1.67 1.88 2.03 2.16 2.19 2.33 2.37 2.45 2.58 2.48 2.42 2.39 2.28 2.01 1.93 1.87 1.86 1.93 1.80 1.62 1.41 1.20 1.21 1.35 1.38 1.24 1.25 1.25 1.41 1.43 1.47 1.48
0.05 0.07 0.13 0.22 0.38 0.74 0.74 0.86 1.22 1.22 1.10 0.68 0.48 0.54 0.73 0.82 0.89 1.00 1.09 1.21 1.44 1.49 1.68 1.85 1.92 2.09 2.23 2.22 2.12 2.05 1.97 1.99 1.99 1.93 1.77 1.58 1.46 1.38 1.26 1.32 1.50 1.46 1.41 1.37 1.31 1.34 1.39 1.54 1.64
0.06 0.11 0.33 0.66 1.00 1.07 0.65 0.75 1.15 1.07 0.76 0.48 0.41 0.40 0.41 0.55 0.71 0.85 0.98 1.09 1.27 1.20 1.26 1.45 1.53 1.56 1.71 1.74 1.70 1.75 1.86 1.92 1.79 1.69 1.61 1.45 1.23 1.20 1.28 1.32 1.46 1.43 1.45 1.38 1.50 1.52 1.47 1.55 1.62
0.07 0.08 0.20 0.38 0.49 0.66 0.69 1.19 1.40 0.82 0.53 0.39 0.35 0.31 0.31 0.44 0.62 0.72 0.72 0.80 0.92 0.88 0.95 1.08 1.22 1.31 1.36 1.45 1.50 1.50 1.62 1.63 1.58 1.64 1.55 1.40 1.19 1.09 1.10 1.18 1.24 1.28 1.32 1.32 1.62 1.52 1.54 1.61 1.55
0.07 0.06 0.08 0.11 0.19 0.49 0.88 1.22 1.18 0.72 0.55 0.37 0.33 0.32 0.31 0.35 0.50 0.56 0.50 0.50 0.62 0.72 0.78 0.85 1.04 1.18 1.19 1.31 1.38 1.34 1.41 1.50 1.56 1.58 1.49 1.31 1.31 1.17 1.18 1.20 1.35 1.44 1.46 1.51 1.70 1.63 1.60 1.72 1.57
0.08 0.08 0.09 0.12 0.20 0.42 0.78 1.26 1.50 1.10 0.62 0.44 0.42 0.42 0.40 0.36 0.41 0.44 0.43 0.39 0.45 0.58 0.75 0.85 0.98 1.10 1.13 1.23 1.23 1.09 1.24 1.36 1.50 1.48 1.40 1.36 1.38 1.30 1.36 1.37 1.46 1.52 1.50 1.51 1.67 1.66 1.72 1.78 1.69
0.10 0.10 0.12 0.14 0.15 0.25 0.60 0.92 0.81 0.79 0.60 0.57 0.56 0.50 0.47 0.41 0.45 0.43 0.37 0.37 0.36 0.45 0.65 0.78 0.92 1.04 1.10 1.17 1.25 1.28 1.29 1.24 1.36 1.39 1.36 1.38 1.41 1.33 1.36 1.43 1.52 1.50 1.56 1.68 1.76 1.64 1.69 1.79 1.94
0.12 0.13 0.13 0.15 0.14 0.15 0.30 0.50 0.49 0.66 0.64 0.62 0.65 0.62 0.58 0.42 0.37 0.39 0.43 0.47 0.43 0.44 0.55 0.68 0.84 0.99 1.05 1.12 1.24 1.33 1.46 1.42 1.37 1.36 1.39 1.41 1.49 1.52 1.48 1.52 1.55 1.46 1.50 1.69 1.77 1.75 1.77 1.81 1.85

GEFSSGP_prec_meanprecacc_228.txt.gz
Total_Precipitation_Accumulation
0.06 0.13 0.33 0.62 1.32 1.60 1.34 0.77 0.57 0.45 0.47 0.49 0.50 0.50 0.58 0.70 1.04 1.52 1.21 0.77 0.35 0.28 0.41 0.66 0.91 0.80 0.77 0.77 0.77 0.79 0.71 0.68 0.69 0.70 0.73 0.76 0.76 0.77 0.82 0.89 0.94 1.07 1.19 1.16 1.13 1.17 1.13 1.11 1.16
0.11 0.19 0.41 0.92 1.60 1.56 1.18 0.67 0.51 0.39 0.42 0.42 0.38 0.45 0.62 0.72 0.61 0.72 0.91 0.72 0.34 0.30 0.30 0.32 0.62 0.74 0.77 0.76 0.74 0.74 0.70 0.68 0.69 0.79 0.75 0.75 0.82 0.92 0.95 0.88 0.89 0.99 1.09 1.09 1.08 0.98 1.07 1.06 1.10
0.14 0.22 0.43 0.92 1.04 1.03 0.86 0.56 0.46 0.35 0.45 0.60 0.52 0.47 0.64 0.82 0.66 0.66 0.71 0.46 0.32 0.29 0.25 0.36 0.56 0.61 0.67 0.73 0.70 0.66 0.72 0.80 0.82 0.81 0.69 0.74 0.78 0.92 0.98 0.90 0.91 0.94 1.02 1.07 1.11 1.02 1.12 1.06 1.11
0.13 0.26 0.46 0.58 0.45 0.42 0.46 0.46 0.45 0.48 0.67 0.80 0.68 0.61 0.70 0.69 0.66 0.65 0.57 0.41 0.34 0.38 0.32 0.40 0.59 0.58 0.60 0.65 0.67 0.69 0.81 0.90 0.87 0.82 0.74 0.77 0.80 0.91 0.91 0.89 0.96 0.93 1.02 1.14 1.24 1.17 1.19 1.18 1.15
0.12 0.31 0.58 0.43 0.26 0.26 0.28 0.32 0.47 0.54 0.78 0.87 0.65 0.79 0.95 0.85 0.70 0.66 0.53 0.49 0.45 0.50 0.50 0.54 0.70 0.67 0.63 0.61 0.69 0.78 0.87 0.90 0.92 0.86 0.78 0.78 0.79 0.88 0.90 0.89 0.93 0.91 1.05 1.18 1.28 1.26 1.23 1.26 1.31
0.11 0.24 0.40 0.32 0.21 0.17 0.20 0.27 0.42 0.54 0.76 0.84 0.72 1.04 1.21 1.17 1.01 0.90 0.83 0.88 0.84 0.87 0.85 0.87 0.90 0.84 0.78 0.71 0.78 0.92 0.90 0.84 0.87 0.86 0.79 0.76 0.81 0.87 0.86 0.86 0.89 0.89 1.01 1.13 1.23 1.26 1.22 1.23 1.29
0.10 0.19 0.26 0.19 0.13 0.14 0.20 0.26 0.44 0.61 0.77 0.99 0.97 1.18 1.33 1.49 1.32 1.15 1.12 1.18 1.24 1.23 1.19 1.03 0.93 0.87 0.86 0.93 0.99 0.95 0.83 0.82 0.84 0.87 0.80 0.74 0.78 0.76 0.73 0.81 0.90 0.88 0.99 1.10 1.22 1.21 1.21 1.17 1.19
0.06 0.10 0.15 0.10 0.06 0.11 0.17 0.26 0.40 0.59 0.84 0.98 1.00 1.14 1.28 1.33 1.29 1.36 1.45 1.56 1.73 1.62 1.46 1.19 1.00 1.02 0.90 0.90 0.98 0.93 0.82 0.84 0.87 0.87 0.83 0.84 0.86 0.84 0.88 0.89 1.02 1.01 1.04 1.08 1.18 1.21 1.17 1.17 1.19
0.04 0.07 0.08 0.07 0.04 0.08 0.17 0.32 0.46 0.51 0.68 1.01 1.23 1.08 0.97 1.08 1.41 1.66 2.03 2.09 2.17 2.03 1.62 1.25 1.15 1.23 1.13 0.97 0.92 1.13 1.04 1.01 1.04 1.08 1.09 1.30 1.59 1.34 1.31 1.10 1.25 1.24 1.28 1.32 1.41 1.47 1.44 1.40 1.29
0.03 0.06 0.06 0.03 0.03 0.05 0.16 0.39 0.55 0.66 1.00 1.34 1.51 1.32 1.10 1.11 1.59 1.95 2.16 2.31 1.99 2.02 1.98 1.64 1.39 1.31 1.34 1.20 1.24 1.67 1.60 1.53 1.68 1.75 1.69 2.04 2.05 1.83 1.31 1.30 1.65 1.66 1.75 1.87 2.12 2.26 2.00 1.67 1.44
0.02 0.03 0.03 0.03 0.03 0.07 0.20 0.23 0.32 0.59 1.21 1.61 1.80 1.44 1.19 1.28 1.65 2.16 2.34 2.26 1.99 1.99 1.91 1.96 1.78 1.62 1.61 1.72 1.61 1.78 1.99 2.04 2.12 2.05 2.06 2.30 1.96 1.67 1.51 1.72 2.11 2.15 2.21 2.30 2.53 2.65 2.09 2.08 2.37
0.02 0.02 0.01 0.02 0.03 0.05 0.11 0.20 0.35 0.66 1.16 1.42 1.31 1.17 1.19 1.40 1.63 2.19 2.56 2.46 2.30 2.22 2.13 2.39 2.31 2.21 2.24 2.07 2.03 1.87 1.83 1.86 1.95 2.05 1.97 2.13 2.16 2.04 2.03 2.17 2.24 2.41 2.59 2.85 2.69 2.82 2.77 2.81 2.63
0.01 0.01 0.02 0.02 0.03 0.05 0.10 0.21 0.33 0.57 0.85 0.91 0.82 0.99 1.45 1.55 1.80 2.31 2.89 2.93 2.83 2.67 2.74 2.91 2.96 3.06 2.87 2.61 2.38 1.99 1.98 1.90 1.84 1.89 1.87 2.07 2.33 2.37 2.49 2.29 2.34 2.13 2.27 2.63 2.93 2.94 3.13 3.25 3.09
0.01 0.02 0.03 0.04 0.06 0.07 0.12 0.23 0.39 0.77 0.77 0.70 0.83 1.14 1.53 1.93 2.07 2.43 3.14 3.44 3.37 3.33 3.52 3.52 3.54 3.56 3.37 2.96 2.70 2.39 2.09 2.11 1.91 1.88 1.95 2.40 2.63 2.59 2.68 2.53 2.48 2.19 2.19 2.51 2.89 2.95 3.25 3.28 3.28
0.02 0.05 0.10 0.11 0.09 0.11 0.17 0.51 0.67 0.83 0.79 0.79 1.01 1.25 1.73 2.33 2.55 2.80 3.30 3.65 3.80 4.03 4.22 4.41 4.30 4.00 4.01 3.66 2.94 2.41 2.13 1.98 2.07 2.19 2.24 2.48 2.63 2.81 2.98 2.88 2.50 2.26 2.35 2.56 2.59 2.74 3.23 3.09 3.04
0.04 0.08 0.26 0.22 0.11 0.13 0.24 0.73 0.84 0.86 0.89 0.97 1.20 1.53 1.88 2.36 2.46 2.71 3.18 3.72 4.23 4.61 5.03 5.23 4.83 4.71 4.70 4.34 3.72 3.15 2.81 2.61 2.60 2.59 2.39 2.20 2.41 2.55 2.77 2.54 2.15 2.21 2.42 2.59 2.60 2.61 3.00 3.13 3.15
0.07 0.11 0.23 0.23 0.15 0.15 0.26 0.66 0.67 0.60 0.94 1.34 1.58 1.74 1.89 2.06 2.22 2.40 2.79 3.51 4.32 4.91 5.62 6.01 6.17 5.67 5.25 4.65 4.19 3.68 3.32 3.11 2.86 2.57 2.30 2.01 1.83 1.76 2.00 1.97 1.90 1.90 2.16 2.20 1.94 2.19 2.51 2.71 2.85
0.07 0.11 0.17 0.22 0.19 0.19 0.32 0.59 0.70 0.61 0.90 1.27 1.33 1.61 1.71 1.73 1.93 2.32 2.85 3.38 4.25 5.02 5.72 6.13 6.34 5.79 5.05 4.70 4.63 4.25 3.67 3.26 2.88 2.49 2.23 1.86 1.71 1.53 1.73 1.73 1.58 1.56 1.72 1.78 1.94 2.24 2.33 2.24 2.29
0.06 0.11 0.18 0.20 0.19 0.28 0.44 0.69 0.82 0.80 0.86 1.01 1.14 1.34 1.38 1.42 1.68 2.16 2.81 3.47 4.25 5.37 6.03 6.15 5.85 5.14 4.60 4.16 3.91 3.60 3.32 3.04 2.56 2.14 1.88 1.76 1.68 1.61 1.78 1.61 1.63 1.54 1.56 1.59 1.68 1.89 1.98 1.75 1.91
0.06 0.11 0.19 0.18 0.16 0.19 0.41 0.76 0.87 0.91 0.97 0.97 1.05 1.13 1.05 1.20 1.54 2.15 2.93 3.74 4.39 4.95 5.31 5.37 4.97 4.21 3.71 3.42 3.33 3.03 2.81 2.47 2.25 2.00 1.93 1.68 1.61 1.61 1.49 1.62 1.44 1.39 1.56 1.54 1.60 1.81 1.82 1.60 1.72
0.09 0.10 0.16 0.19 0.17 0.19 0.41 0.91 1.11 1.03 1.00 1.00 0.90 0.88 0.97 1.17 1.72 2.50 3.32 4.07 4.41 4.43 4.20 3.90 3.71 3.30 3.16 3.09 2.88 2.64 2.58 2.29 2.11 1.90 1.80 1.55 1.39 1.36 1.38 1.36 1.26 1.33 1.23 1.39 1.56 1.68 1.84 1.80 1.62
0.10 0.08 0.06 0.09 0.15 0.36 0.49 1.00 1.18 1.18 1.11 0.98 0.93 0.95 1.07 1.34 1.87 2.59 3.14 3.37 3.52 3.44 3.14 2.94 2.86 2.77 2.71 2.60 2.47 2.17 2.03 1.97 1.79 1.69 1.70 1.59 1.41 1.35 1.34 1.26 1.32 1.31 1.17 1.42 1.22 1.36 1.64 1.78 1.61
0.06 0.05 0.05 0.09 0.20 0.37 0.52 0.85 1.21 1.20 1.27 0.85 0.71 0.82 0.92 1.13 1.44 1.67 1.88 2.04 2.16 2.19 2.33 2.38 2.47 2.59 2.49 2.43 2.40 2.29 2.03 1.95 1.89 1.88 1.96 1.84 1.65 1.45 1.23 1.26 1.41 1.46 1.31 1.33 1.31 1.48 1.51 1.55 1.57
0.05 0.07 0.13 0.22 0.38 0.74 0.74 0.86 1.22 1.22 1.10 0.69 0.48 0.54 0.73 0.82 0.89 1.00 1.09 1.21 1.44 1.49 1.68 1.85 1.93 2.10 2.24 2.23 2.13 2.06 1.99 2.01 2.02 1.96 1.80 1.61 1.50 1.41 1.29 1.36 1.57 1.56 1.51 1.47 1.40 1.41 1.46 1.62 1.72
0.06 0.11 0.33 0.67 1.00 1.07 0.65 0.75 1.15 1.07 0.76 0.48 0.41 0.40 0.41 0.55 0.71 0.85 0.98 1.09 1.27 1.21 1.26 1.45 1.53 1.57 1.72 1.75 1.71 1.76 1.88 1.93 1.81 1.70 1.63 1.47 1.25 1.22 1.31 1.36 1.51 1.50 1.52 1.46 1.58 1.60 1.53 1.62 1.70
0.07 0.08 0.20 0.38 0.49 0.66 0.69 1.19 1.40 0.82 0.53 0.39 0.35 0.31 0.31 0.44 0.62 0.72 0.72 0.80 0.92 0.88 0.96 1.08 1.23 1.31 1.37 1.45 1.51 1.51 1.63 1.65 1.59 1.65 1.56 1.42 1.21 1.11 1.13 1.22 1.27 1.32 1.37 1.36 1.68 1.58 1.60 1.68 1.62
0.07 0.06 0.08 0.11 0.19 0.50 0.88 1.22 1.18 0.72 0.55 0.37 0.33 0.32 0.31 0.35 0.50 0.56 0.50 0.51 0.62 0.72 0.79 0.86 1.04 1.18 1.20 1.32 1.40 1.36 1.43 1.53 1.59 1.60 1.50 1.33 1.33 1.19 1.21 1.23 1.38 1.49 1.51 1.55 1.74 1.67 1.65 1.77 1.63
0.08 0.08 0.09 0.12 0.20 0.42 0.78 1.26 1.51 1.10 0.62 0.44 0.43 0.42 0.40 0.36 0.42 0.45 0.44 0.40 0.46 0.59 0.75 0.86 0.99 1.11 1.14 1.24 1.24 1.11 1.27 1.39 1.52 1.49 1.41 1.37 1.40 1.32 1.38 1.40 1.50 1.56 1.54 1.54 1.70 1.69 1.76 1.83 1.73
0.10 0.10 0.12 0.14 0.15 0.25 0.60 0.92 0.81 0.79 0.60 0.57 0.56 0.51 0.48 0.42 0.45 0.44 0.38 0.38 0.37 0.47 0.65 0.78 0.93 1.04 1.11 1.18 1.27 1.30 1.30 1.25 1.37 1.40 1.37 1.40 1.44 1.36 1.39 1.47 1.55 1.54 1.59 1.71 1.80 1.68 1.74 1.84 2.00
0.12 0.13 0.13 0.15 0.14 0.15 0.30 0.50 0.49 0.66 0.64 0.62 0.65 0.63 0.59 0.43 0.37 0.39 0.44 0.48 0.44 0.45 0.55 0.69 0.85 0.99 1.05 1.12 1.25 1.33 1.47 1.44 1.39 1.38 1.41 1.43 1.52 1.55 1.52 1.55 1.59 1.49 1.53 1.72 1.79 1.78 1.81 1.85 1.91

GEFSSGP_prec_meanprecacc_234.txt.gz
Total_Precipitation_Accumulation
0.06 0.13 0.34 0.66 1.41 1.67 1.38 0.80 0.60 0.47 0.48 0.50 0.52 0.52 0.60 0.73 1.09 1.59 1.27 0.82 0.40 0.33 0.47 0.73 0.98 0.87 0.85 0.87 0.85 0.88 0.79 0.76 0.77 0.79 0.83 0.88 0.89 0.90 0.93 1.00 1.06 1.21 1.32 1.28 1.25 1.30 1.28 1.28 1.32
0.11 0.19 0.42 0.96 1.68 1.60 1.23 0.69 0.52 0.39 0.42 0.42 0.39 0.46 0.63 0.74 0.63 0.76 0.97 0.77 0.40 0.35 0.35 0.37 0.69 0.83 0.84 0.85 0.84 0.83 0.79 0.77 0.77 0.88 0.86 0.89 0.97 1.03 1.07 0.99 1.01 1.11 1.19 1.20 1.22 1.13 1.23 1.21 1.25
0.14 0.22 0.45 0.96 1.06 1.05 0.88 0.57 0.46 0.35 0.45 0.61 0.53 0.47 0.67 0.86 0.70 0.70 0.75 0.51 0.37 0.34 0.30 0.40 0.62 0.70 0.73 0.81 0.81 0.76 0.79 0.89 0.92 0.91 0.80 0.86 0.90 1.04 1.09 1.05 1.07 1.07 1.15 1.21 1.28 1.17 1.27 1.21 1.26
0.14 0.26 0.47 0.58 0.46 0.43 0.47 0.47 0.45 0.48 0.67 0.80 0.69 0.62 0.72 0.72 0.71 0.68 0.60 0.46 0.38 0.42 0.35 0.44 0.65 0.65 0.68 0.75 0.77 0.77 0.89 1.00 0.97 0.91 0.86 0.90 0.93 1.05 1.03 1.02 1.09 1.06 1.17 1.28 1.38 1.29 1.32 1.31 1.30
0.13 0.32 0.59 0.43 0.26 0.27 0.28 0.32 0.48 0.54 0.78 0.87 0.66 0.80 0.97 0.89 0.75 0.69 0.56 0.52 0.49 0.53 0.54 0.58 0.75 0.73 0.71 0.72 0.81 0.87 0.93 0.99 1.03 0.96 0.87 0.91 0.93 1.01 0.99 0.99 1.02 1.01 1.15 1.26 1.38 1.39 1.38 1.42 1.51
0.15 0.26 0.41 0.32 0.21 0.17 0.21 0.27 0.42 0.54 0.76 0.85 0.73 1.05 1.27 1.21 1.04 0.93 0.85 0.91 0.87 0.91 0.91 0.93 0.96 0.91 0.87 0.85 0.94 1.04 0.98 0.93 0.98 0.96 0.89 0.87 0.92 0.96 0.92 0.93 0.96 0.95 1.09 1.21 1.32 1.42 1.39 1.42 1.53
0.11 0.21 0.27 0.19 0.13 0.14 0.20 0.26 0.44 0.61 0.77 0.99 0.97 1.20 1.41 1.55 1.35 1.18 1.15 1.23 1.30 1.30 1.27 1.13 1.03 0.97 0.99 1.09 1.17 1.10 0.95 0.93 0.97 0.98 0.90 0.87 0.92 0.84 0.79 0.86 0.96 0.95 1.07 1.18 1.32 1.37 1.38 1.37 1.43
0.07 0.11 0.15 0.10 0.06 0.11 0.17 0.26 0.40 0.59 0.84 0.98 1.00 1.15 1.33 1.38 1.30 1.38 1.48 1.59 1.78 1.68 1.52 1.26 1.07 1.08 0.97 0.99 1.09 1.05 0.93 0.96 1.01 1.00 0.98 1.02 1.00 0.91 0.94 0.94 1.07 1.05 1.11 1.16 1.25 1.32 1.32 1.33 1.37
0.04 0.07 0.09 0.07 0.04 0.08 0.17 0.32 0.46 0.51 0.68 1.01 1.23 1.08 0.98 1.09 1.42 1.68 2.06 2.12 2.21 2.07 1.66 1.27 1.17 1.25 1.16 1.02 0.97 1.20 1.12 1.09 1.13 1.20 1.22 1.44 1.69 1.43 1.38 1.14 1.29 1.29 1.36 1.40 1.48 1.54 1.51 1.50 1.43
0.03 0.06 0.06 0.03 0.03 0.05 0.16 0.39 0.55 0.66 1.00 1.35 1.51 1.32 1.10 1.12 1.59 1.96 2.20 2.36 2.04 2.06 2.01 1.67 1.41 1.32 1.36 1.24 1.30 1.76 1.70 1.62 1.78 1.85 1.81 2.19 2.16 1.93 1.39 1.35 1.69 1.69 1.81 1.94 2.18 2.32 2.05 1.75 1.58
0.02 0.03 0.03 0.03 0.03 0.07 0.20 0.23 0.32 0.59 1.21 1.61 1.80 1.44 1.19 1.28 1.65 2.19 2.39 2.31 2.04 2.02 1.94 1.99 1.80 1.63 1.63 1.77 1.69 1.89 2.11 2.13 2.19 2.13 2.19 2.44 2.07 1.76 1.57 1.80 2.17 2.20 2.27 2.37 2.58 2.71 2.17 2.18 2.54
0.02 0.02 0.01 0.02 0.03 0.05 0.11 0.20 0.35 0.67 1.16 1.42 1.31 1.17 1.19 1.40 1.64 2.24 2.62 2.49 2.36 2.29 2.18 2.44 2.35 2.24 2.27 2.11 2.09 1.94 1.90 1.93 2.01 2.13 2.06 2.21 2.27 2.14 2.13 2.27 2.34 2.48 2.68 2.95 2.77 2.91 2.86 2.94 2.78
0.01 0.01 0.02 0.02 0.03 0.05 0.10 0.21 0.33 0.57 0.85 0.91 0.82 0.99 1.45 1.55 1.83 2.43 2.95 2.98 2.88 2.75 2.82 2.97 3.00 3.10 2.91 2.66 2.44 2.02 2.02 1.94 1.88 1.94 1.91 2.12 2.41 2.46 2.59 2.38 2.46 2.24 2.37 2.73 3.04 3.06 3.25 3.41 3.24
0.01 0.02 0.03 0.04 0.06 0.07 0.12 0.23 0.39 0.77 0.77 0.70 0.83 1.14 1.53 1.94 2.09 2.52 3.22 3.48 3.41 3.38 3.58 3.57 3.59 3.61 3.41 3.01 2.74 2.43 2.11 2.14 1.95 1.91 1.98 2.44 2.69 2.67 2.75 2.60 2.58 2.29 2.32 2.64 3.00 3.06 3.38 3.43 3.42
0.03 0.05 0.11 0.11 0.09 0.11 0.17 0.54 0.70 0.84 0.79 0.79 1.01 1.25 1.74 2.34 2.56 2.82 3.33 3.70 3.84 4.07 4.26 4.45 4.34 4.04 4.06 3.71 2.97 2.44 2.16 2.00 2.10 2.22 2.28 2.51 2.67 2.89 3.05 2.96 2.59 2.37 2.48 2.69 2.71 2.86 3.36 3.22 3.14
0.05 0.09 0.27 0.23 0.11 0.13 0.26 0.76 0.86 0.87 0.90 0.97 1.20 1.53 1.89 2.36 2.47 2.72 3.19 3.75 4.26 4.64 5.06 5.25 4.85 4.74 4.73 4.38 3.77 3.19 2.85 2.64 2.64 2.63 2.43 2.23 2.44 2.59 2.83 2.60 2.22 2.30 2.51 2.68 2.70 2.72 3.12 3.26 3.26
0.09 0.12 0.24 0.23 0.15 0.15 0.26 0.67 0.67 0.60 0.94 1.34 1.58 1.74 1.89 2.06 2.22 2.41 2.80 3.52 4.33 4.93 5.64 6.04 6.21 5.72 5.31 4.71 4.25 3.73 3.40 3.18 2.91 2.62 2.35 2.05 1.86 1.78 2.06 2.05 1.98 1.97 2.23 2.28 2.01 2.29 2.63 2.85 2.97
0.08 0.12 0.18 0.23 0.19 0.19 0.33 0.59 0.71 0.62 0.91 1.27 1.33 1.61 1.71 1.73 1.93 2.32 2.85 3.38 4.26 5.03 5.74 6.16 6.37 5.83 5.09 4.76 4.70 4.34 3.75 3.34 2.94 2.55 2.29 1.91 1.75 1.55 1.80 1.83 1.66 1.62 1.79 1.86 2.02 2.35 2.44 2.36 2.41
0.06 0.11 0.19 0.20 0.20 0.28 0.45 0.70 0.83 0.81 0.86 1.01 1.14 1.35 1.38 1.42 1.68 2.16 2.81 3.47 4.26 5.38 6.05 6.18 5.89 5.17 4.65 4.24 3.99 3.68 3.40 3.13 2.64 2.21 1.93 1.81 1.73 1.65 1.86 1.70 1.72 1.61 1.63 1.66 1.75 1.98 2.08 1.85 2.01
0.06 0.11 0.19 0.19 0.16 0.19 0.42 0.77 0.88 0.91 0.97 0.97 1.05 1.13 1.05 1.20 1.54 2.15 2.93 3.74 4.39 4.95 5.32 5.40 5.00 4.23 3.74 3.48 3.39 3.10 2.88 2.54 2.33 2.07 2.00 1.72 1.65 1.65 1.55 1.71 1.54 1.47 1.65 1.62 1.68 1.90 1.91 1.68 1.80
0.09 0.10 0.16 0.19 0.17 0.20 0.42 0.92 1.12 1.03 1.00 1.00 0.90 0.88 0.97 1.17 1.72 2.50 3.32 4.07 4.41 4.43 4.20 3.91 3.72 3.32 3.18 3.13 2.94 2.71 2.66 2.36 2.17 1.97 1.87 1.59 1.41 1.39 1.43 1.42 1.34 1.41 1.33 1.49 1.64 1.76 1.93 1.89 1.71
0.10 0.08 0.06 0.09 0.15 0.36 0.50 1.03 1.21 1.19 1.12 0.98 0.93 0.96 1.08 1.34 1.87 2.59 3.14 3.37 3.52 3.44 3.14 2.95 2.87 2.79 2.73 2.62 2.50 2.21 2.08 2.03 1.86 1.76 1.77 1.64 1.44 1.37 1.37 1.30 1.38 1.39 1.27 1.53 1.31 1.46 1.76 1.90 1.74
0.06 0.05 0.05 0.10 0.21 0.38 0.53 0.88 1.24 1.21 1.28 0.87 0.72 0.82 0.92 1.13 1.44 1.67 1.88 2.04 2.16 2.19 2.33 2.38 2.48 2.61 2.51 2.44 2.43 2.34 2.07 2.01 1.95 1.95 2.03 1.89 1.70 1.48 1.25 1.29 1.47 1.53 1.40 1.42 1.41 1.60 1.63 1.67 1.69
0.05 0.07 0.13 0.23 0.40 0.76 0.75 0.87 1.23 1.25 1.14 0.74 0.50 0.54 0.73 0.83 0.89 1.00 1.09 1.21 1.44 1.49 1.68 1.86 1.96 2.13 2.26 2.26 2.15 2.09 2.03 2.06 2.09 2.04 1.88 1.69 1.56 1.46 1.34 1.40 1.62 1.63 1.59 1.55 1.49 1.50 1.56 1.72 1.82
0.06 0.11 0.34 0.68 1.03 1.09 0.65 0.76 1.17 1.09 0.79 0.51 0.42 0.40 0.41 0.55 0.71 0.86 0.98 1.09 1.28 1.22 1.27 1.47 1.56 1.61 1.75 1.78 1.74 1.79 1.92 1.98 1.86 1.76 1.70 1.55 1.31 1.27 1.36 1.41 1.58 1.57 1.59 1.52 1.65 1.68 1.62 1.71 1.78
0.07 0.08 0.21 0.41 0.53 0.69 0.72 1.21 1.41 0.83 0.55 0.41 0.36 0.32 0.31 0.44 0.62 0.73 0.73 0.81 0.93 0.89 0.97 1.10 1.25 1.34 1.40 1.49 1.56 1.55 1.68 1.70 1.64 1.70 1.61 1.47 1.25 1.15 1.17 1.27 1.33 1.37 1.41 1.40 1.74 1.64 1.66 1.75 1.68
0.07 0.06 0.09 0.13 0.22 0.51 0.90 1.25 1.21 0.74 0.56 0.38 0.34 0.33 0.31 0.35 0.50 0.57 0.51 0.52 0.64 0.74 0.84 0.89 1.06 1.20 1.22 1.34 1.43 1.40 1.47 1.56 1.62 1.63 1.53 1.36 1.36 1.22 1.25 1.29 1.45 1.54 1.56 1.58 1.78 1.73 1.71 1.84 1.69
0.08 0.08 0.10 0.12 0.22 0.44 0.79 1.28 1.54 1.13 0.63 0.45 0.43 0.43 0.40 0.36 0.42 0.45 0.45 0.41 0.48 0.63 0.88 0.94 1.01 1.13 1.16 1.25 1.26 1.13 1.29 1.41 1.54 1.50 1.43 1.40 1.43 1.36 1.43 1.46 1.56 1.62 1.58 1.57 1.73 1.74 1.83 1.90 1.80
0.10 0.10 0.12 0.14 0.16 0.26 0.62 0.96 0.86 0.85 0.61 0.58 0.57 0.52 0.49 0.42 0.46 0.44 0.40 0.40 0.39 0.51 0.74 0.82 0.95 1.06 1.12 1.19 1.29 1.33 1.33 1.28 1.39 1.41 1.39 1.42 1.46 1.39 1.44 1.53 1.60 1.58 1.64 1.75 1.85 1.72 1.78 1.90 2.06
0.12 0.13 0.13 0.15 0.14 0.15 0.31 0.52 0.51 0.68 0.64 0.62 0.65 0.63 0.59 0.43 0.38 0.40 0.45 0.49 0.45 0.45 0.56 0.71 0.87 1.01 1.07 1.14 1.28 1.36 1.49 1.46 1.41 1.39 1.42 1.45 1.55 1.58 1.56 1.59 1.62 1.52 1.56 1.76 1.83 1.82 1.85 1.90 1.95

GEFSSGP_prec_meanprecacc_240.txt.gz
Total_Precipitation_Accumulation
0.08 0.19 0.49 0.85 1.57 1.76 1.42 0.82 0.61 0.49 0.49 0.52 0.53 0.53 0.61 0.76 1.12 1.68 1.44 0.94 0.50 0.41 0.52 0.76 1.01 0.90 0.91 0.95 0.93 0.93 0.84 0.82 0.82 0.84 0.89 0.94 0.96 0.98 1.02 1.08 1.13 1.30 1.41 1.37 1.33 1.40 1.42 1.44 1.55
0.17 0.32 0.59 1.12 1.77 1.65 1.25 0.70 0.52 0.40 0.42 0.43 0.40 0.47 0.64 0.76 0.66 0.83 1.07 0.86 0.46 0.40 0.37 0.40 0.73 0.86 0.90 0.92 0.89 0.88 0.84 0.83 0.82 0.92 0.92 0.95 1.04 1.12 1.16 1.08 1.08 1.17 1.25 1.27 1.30 1.21 1.35 1.36 1.40
0.23 0.37 0.60 1.11 1.13 1.08 0.90 0.58 0.47 0.35 0.45 0.61 0.53 0.48 0.68 0.89 0.73 0.79 0.86 0.56 0.42 0.38 0.32 0.43 0.66 0.74 0.78 0.87 0.86 0.80 0.84 0.94 0.98 0.97 0.86 0.93 0.97 1.12 1.18 1.14 1.15 1.17 1.24 1.29 1.36 1.25 1.35 1.31 1.38
0.23 0.40 0.61 0.67 0.49 0.44 0.48 0.47 0.46 0.48 0.67 0.81 0.69 0.65 0.75 0.76 0.75 0.77 0.68 0.51 0.43 0.48 0.39 0.48 0.70 0.70 0.73 0.81 0.82 0.82 0.92 1.04 1.03 0.98 0.92 0.96 0.99 1.10 1.07 1.07 1.15 1.14 1.27 1.35 1.43 1.35 1.38 1.38 1.40
0.19 0.43 0.70 0.47 0.28 0.27 0.28 0.33 0.48 0.55 0.79 0.87 0.66 0.83 1.04 0.96 0.78 0.73 0.59 0.55 0.51 0.59 0.61 0.65 0.81 0.77 0.75 0.78 0.87 0.93 0.98 1.05 1.10 1.02 0.93 0.95 0.96 1.04 1.02 1.02 1.06 1.06 1.23 1.33 1.42 1.44 1.44 1.47 1.59
0.19 0.33 0.46 0.33 0.21 0.18 0.21 0.28 0.42 0.55 0.76 0.85 0.73 1.06 1.35 1.32 1.11 0.97 0.88 0.94 0.90 0.95 0.97 0.99 1.02 0.95 0.92 0.90 1.02 1.11 1.03 1.01 1.06 1.01 0.95 0.91 0.96 0.98 0.94 0.96 0.98 0.98 1.13 1.25 1.36 1.49 1.46 1.48 1.60
0.16 0.25 0.29 0.19 0.14 0.15 0.20 0.27 0.44 0.61 0.77 0.99 0.97 1.21 1.46 1.65 1.44 1.24 1.19 1.26 1.33 1.33 1.32 1.17 1.06 1.01 1.05 1.17 1.25 1.16 1.02 1.02 1.06 1.05 0.96 0.92 0.94 0.86 0.80 0.88 0.99 0.98 1.09 1.21 1.36 1.45 1.45 1.43 1.54
0.12 0.13 0.17 0.11 0.07 0.12 0.17 0.26 0.40 0.59 0.85 0.99 1.00 1.15 1.35 1.44 1.37 1.44 1.52 1.62 1.80 1.71 1.55 1.30 1.12 1.11 1.01 1.04 1.15 1.11 1.01 1.07 1.09 1.08 1.05 1.07 1.02 0.93 0.95 0.95 1.10 1.08 1.15 1.18 1.28 1.40 1.43 1.44 1.53
0.07 0.08 0.10 0.08 0.05 0.09 0.17 0.33 0.46 0.51 0.68 1.01 1.23 1.08 0.98 1.12 1.45 1.71 2.09 2.16 2.25 2.10 1.69 1.33 1.23 1.29 1.21 1.09 1.04 1.29 1.23 1.24 1.26 1.33 1.34 1.50 1.71 1.44 1.40 1.16 1.33 1.34 1.41 1.43 1.51 1.60 1.67 1.75 1.68
0.04 0.07 0.07 0.04 0.03 0.05 0.16 0.39 0.55 0.66 1.00 1.35 1.52 1.32 1.11 1.13 1.61 1.98 2.22 2.40 2.08 2.10 2.05 1.71 1.45 1.36 1.39 1.27 1.35 1.82 1.78 1.71 1.87 1.93 1.87 2.23 2.19 1.95 1.41 1.38 1.74 1.75 1.86 1.99 2.22 2.38 2.13 1.93 1.83
0.03 0.03 0.03 0.03 0.03 0.07 0.20 0.23 0.32 0.59 1.22 1.61 1.81 1.45 1.20 1.31 1.70 2.24 2.46 2.37 2.08 2.06 1.97 2.02 1.84 1.66 1.65 1.79 1.72 1.92 2.17 2.19 2.23 2.16 2.22 2.46 2.09 1.78 1.60 1.82 2.21 2.25 2.31 2.42 2.63 2.76 2.22 2.25 2.65
0.02 0.02 0.02 0.02 0.03 0.05 0.12 0.20 0.36 0.67 1.16 1.42 1.31 1.18 1.20 1.41 1.67 2.28 2.69 2.54 2.40 2.32 2.21 2.47 2.39 2.28 2.29 2.13 2.11 1.96 1.95 1.97 2.04 2.15 2.09 2.24 2.28 2.17 2.17 2.29 2.37 2.51 2.71 3.00 2.81 2.94 2.92 3.00 2.86
0.02 0.02 0.02 0.02 0.03 0.05 0.10 0.21 0.34 0.57 0.85 0.91 0.82 0.99 1.45 1.56 1.84 2.46 3.03 3.01 2.92 2.78 2.85 2.99 3.03 3.13 2.95 2.68 2.47 2.05 2.05 1.97 1.91 1.96 1.94 2.14 2.43 2.48 2.62 2.41 2.50 2.28 2.41 2.79 3.09 3.10 3.30 3.47 3.33
0.02 0.03 0.03 0.05 0.07 0.08 0.12 0.24 0.39 0.77 0.78 0.70 0.83 1.15 1.53 1.94 2.09 2.53 3.25 3.50 3.42 3.40 3.62 3.59 3.61 3.64 3.46 3.04 2.77 2.45 2.13 2.17 1.97 1.94 2.00 2.45 2.70 2.69 2.78 2.64 2.61 2.34 2.36 2.69 3.06 3.11 3.43 3.50 3.51
0.04 0.06 0.12 0.13 0.10 0.12 0.18 0.56 0.71 0.84 0.80 0.79 1.01 1.25 1.74 2.34 2.56 2.83 3.33 3.70 3.84 4.09 4.28 4.47 4.36 4.05 4.11 3.74 2.99 2.46 2.18 2.02 2.12 2.24 2.29 2.53 2.68 2.90 3.07 2.98 2.62 2.40 2.51 2.73 2.77 2.92 3.42 3.30 3.25
0.07 0.10 0.29 0.25 0.12 0.14 0.27 0.79 0.88 0.87 0.90 0.98 1.21 1.53 1.89 2.37 2.47 2.72 3.20 3.75 4.26 4.64 5.07 5.27 4.87 4.76 4.76 4.40 3.78 3.20 2.86 2.68 2.69 2.66 2.45 2.25 2.46 2.61 2.85 2.62 2.26 2.33 2.55 2.74 2.75 2.78 3.18 3.34 3.36
0.11 0.15 0.26 0.25 0.16 0.16 0.27 0.69 0.70 0.61 0.95 1.34 1.59 1.75 1.90 2.06 2.22 2.41 2.80 3.52 4.34 4.94 5.65 6.05 6.23 5.74 5.33 4.74 4.27 3.74 3.42 3.21 2.94 2.65 2.37 2.07 1.87 1.80 2.09 2.08 2.03 2.03 2.29 2.35 2.07 2.34 2.69 2.93 3.05
0.09 0.15 0.21 0.25 0.21 0.21 0.34 0.60 0.71 0.63 0.92 1.29 1.35 1.62 1.72 1.74 1.94 2.33 2.86 3.39 4.27 5.04 5.75 6.17 6.38 5.84 5.11 4.77 4.73 4.37 3.78 3.36 2.97 2.57 2.31 1.94 1.78 1.58 1.83 1.87 1.72 1.69 1.86 1.94 2.09 2.41 2.51 2.43 2.48
0.07 0.12 0.20 0.21 0.21 0.30 0.47 0.71 0.85 0.83 0.88 1.03 1.15 1.35 1.39 1.43 1.70 2.16 2.81 3.48 4.26 5.38 6.05 6.19 5.90 5.18 4.66 4.25 4.00 3.70 3.43 3.15 2.67 2.24 1.97 1.85 1.77 1.70 1.90 1.74 1.76 1.66 1.68 1.72 1.80 2.05 2.14 1.93 2.09
0.06 0.11 0.20 0.20 0.17 0.20 0.44 0.79 0.91 0.94 1.00 1.00 1.07 1.15 1.09 1.24 1.57 2.17 2.94 3.74 4.40 4.96 5.32 5.41 5.01 4.25 3.75 3.48 3.41 3.12 2.90 2.56 2.35 2.11 2.06 1.76 1.70 1.69 1.59 1.75 1.57 1.51 1.69 1.66 1.72 1.95 1.97 1.74 1.87
0.09 0.11 0.17 0.20 0.18 0.21 0.44 0.95 1.16 1.07 1.05 1.03 0.93 0.92 1.02 1.25 1.78 2.52 3.33 4.07 4.42 4.44 4.21 3.92 3.73 3.33 3.20 3.14 2.95 2.73 2.67 2.37 2.19 1.99 1.90 1.62 1.45 1.43 1.46 1.45 1.36 1.45 1.37 1.53 1.68 1.80 1.97 1.95 1.76
0.10 0.08 0.07 0.09 0.15 0.38 0.53 1.07 1.24 1.22 1.15 1.01 0.98 0.98 1.10 1.38 1.92 2.61 3.14 3.38 3.53 3.45 3.15 2.95 2.88 2.80 2.74 2.64 2.52 2.23 2.10 2.05 1.88 1.78 1.79 1.68 1.47 1.40 1.39 1.33 1.42 1.42 1.30 1.56 1.35 1.50 1.82 1.96 1.77
0.06 0.05 0.05 0.10 0.22 0.42 0.57 0.93 1.28 1.26 1.32 0.91 0.75 0.84 0.94 1.17 1.49 1.69 1.89 2.04 2.16 2.20 2.35 2.42 2.53 2.65 2.55 2.48 2.47 2.37 2.10 2.04 1.99 1.98 2.06 1.92 1.72 1.50 1.27 1.32 1.50 1.56 1.42 1.43 1.44 1.64 1.67 1.71 1.73
0.05 0.07 0.14 0.24 0.42 0.78 0.80 0.96 1.30 1.30 1.18 0.78 0.55 0.56 0.75 0.85 0.92 1.02 1.11 1.23 1.45 1.51 1.71 1.92 2.05 2.20 2.35 2.38 2.23 2.14 2.07 2.10 2.13 2.08 1.91 1.72 1.58 1.48 1.36 1.41 1.64 1.65 1.61 1.56 1.52 1.53 1.60 1.76 1.86
0.06 0.11 0.35 0.69 1.05 1.12 0.69 0.79 1.21 1.15 0.83 0.54 0.44 0.42 0.43 0.57 0.73 0.87 1.00 1.11 1.30 1.25 1.32 1.56 1.63 1.65 1.79 1.84 1.80 1.86 1.98 2.02 1.90 1.79 1.73 1.57 1.33 1.30 1.38 1.43 1.61 1.59 1.61 1.54 1.67 1.70 1.64 1.74 1.81
0.07 0.08 0.22 0.42 0.54 0.72 0.76 1.24 1.46 0.87 0.58 0.44 0.39 0.35 0.34 0.47 0.65 0.75 0.76 0.84 0.96 0.93 1.05 1.21 1.31 1.37 1.43 1.55 1.65 1.61 1.74 1.76 1.67 1.74 1.63 1.49 1.27 1.17 1.19 1.29 1.35 1.40 1.44 1.42 1.76 1.66 1.68 1.77 1.70
0.08 0.06 0.09 0.14 0.23 0.54 0.95 1.31 1.29 0.78 0.59 0.41 0.36 0.39 0.42 0.39 0.53 0.59 0.54 0.55 0.67 0.77 0.91 1.02 1.10 1.23 1.26 1.40 1.47 1.43 1.52 1.60 1.65 1.65 1.54 1.38 1.38 1.24 1.26 1.31 1.47 1.56 1.58 1.61 1.81 1.76 1.73 1.86 1.70
0.08 0.09 0.10 0.14 0.24 0.48 0.85 1.34 1.61 1.17 0.66 0.48 0.46 0.47 0.50 0.42 0.45 0.48 0.48 0.44 0.51 0.66 0.92 1.01 1.02 1.14 1.18 1.28 1.28 1.16 1.32 1.44 1.57 1.52 1.44 1.41 1.43 1.36 1.45 1.48 1.58 1.64 1.60 1.60 1.76 1.76 1.85 1.92 1.82
0.10 0.10 0.12 0.14 0.17 0.28 0.66 1.00 0.90 0.89 0.65 0.62 0.61 0.55 0.53 0.48 0.50 0.47 0.46 0.46 0.43 0.54 0.76 0.83 0.96 1.08 1.13 1.21 1.31 1.35 1.35 1.29 1.40 1.42 1.39 1.43 1.47 1.40 1.45 1.54 1.61 1.59 1.65 1.76 1.86 1.74 1.81 1.92 2.09
0.13 0.13 0.14 0.16 0.15 0.16 0.32 0.55 0.55 0.71 0.67 0.67 0.73 0.67 0.62 0.46 0.41 0.43 0.47 0.51 0.47 0.48 0.58 0.72 0.89 1.04 1.09 1.16 1.28 1.37 1.50 1.46 1.42 1.40 1.43 1.46 1.55 1.60 1.57 1.61 1.64 1.53 1.57 1.77 1.85 1.83 1.87 1.93 1.98

GEFSSGP_prec_meanprecacc_246.txt.gz
Total_Precipitation_Accumulation
0.08 0.20 0.51 0.87 1.59 1.77 1.44 0.84 0.63 0.49 0.50 0.54 0.55 0.54 0.62 0.77 1.14 1.72 1.47 0.97 0.53 0.44 0.55 0.80 1.05 0.96 1.00 1.06 1.01 1.01 0.94 0.92 0.92 0.93 0.98 1.03 1.08 1.08 1.14 1.19 1.25 1.42 1.52 1.45 1.41 1.49 1.53 1.56 1.71
0.18 0.33 0.61 1.15 1.78 1.66 1.26 0.71 0.53 0.41 0.43 0.44 0.40 0.47 0.65 0.78 0.68 0.89 1.13 0.90 0.48 0.42 0.39 0.43 0.78 0.93 0.98 1.00 0.96 0.94 0.89 0.89 0.88 0.98 0.99 1.02 1.13 1.21 1.26 1.17 1.18 1.28 1.34 1.35 1.38 1.30 1.48 1.56 1.60
0.25 0.40 0.63 1.13 1.14 1.08 0.91 0.59 0.47 0.36 0.46 0.61 0.54 0.48 0.69 0.91 0.75 0.85 0.92 0.60 0.43 0.40 0.35 0.47 0.74 0.84 0.89 0.94 0.91 0.85 0.88 0.98 1.03 1.01 0.91 0.99 1.05 1.21 1.26 1.22 1.25 1.29 1.36 1.39 1.45 1.34 1.53 1.54 1.54
0.25 0.42 0.63 0.69 0.50 0.45 0.48 0.48 0.46 0.49 0.68 0.81 0.70 0.67 0.77 0.78 0.78 0.80 0.70 0.53 0.44 0.52 0.43 0.55 0.82 0.81 0.83 0.87 0.87 0.86 0.96 1.09 1.07 1.03 0.98 1.05 1.08 1.19 1.14 1.14 1.21 1.21 1.36 1.44 1.51 1.46 1.52 1.52 1.50
0.20 0.44 0.71 0.47 0.28 0.29 0.29 0.34 0.49 0.55 0.79 0.88 0.66 0.84 1.08 1.01 0.81 0.75 0.61 0.57 0.54 0.64 0.66 0.73 0.92 0.86 0.83 0.85 0.94 0.98 1.03 1.11 1.16 1.07 0.99 1.03 1.05 1.12 1.10 1.09 1.11 1.10 1.29 1.41 1.50 1.53 1.56 1.60 1.72
0.20 0.34 0.47 0.34 0.22 0.19 0.22 0.29 0.43 0.55 0.76 0.85 0.73 1.09 1.42 1.39 1.16 1.00 0.90 0.96 0.93 0.99 1.00 1.04 1.09 1.03 0.98 0.97 1.10 1.18 1.10 1.08 1.15 1.09 1.02 0.97 1.02 1.05 1.01 1.03 1.04 1.02 1.18 1.31 1.43 1.57 1.57 1.64 1.77
0.18 0.26 0.30 0.19 0.14 0.15 0.21 0.27 0.45 0.62 0.77 0.99 0.98 1.23 1.54 1.76 1.51 1.28 1.22 1.28 1.36 1.36 1.35 1.20 1.11 1.07 1.11 1.23 1.31 1.24 1.10 1.12 1.19 1.15 1.06 0.97 0.99 0.92 0.86 0.94 1.06 1.03 1.15 1.27 1.42 1.51 1.54 1.57 1.71
0.14 0.13 0.17 0.11 0.07 0.12 0.18 0.26 0.40 0.60 0.85 0.99 1.00 1.16 1.38 1.49 1.42 1.47 1.56 1.66 1.84 1.74 1.59 1.34 1.16 1.14 1.03 1.08 1.21 1.19 1.15 1.23 1.25 1.20 1.16 1.15 1.09 1.01 1.04 1.05 1.18 1.14 1.21 1.24 1.34 1.45 1.49 1.52 1.66
0.08 0.08 0.10 0.08 0.05 0.09 0.17 0.33 0.46 0.51 0.68 1.01 1.23 1.09 0.99 1.13 1.47 1.74 2.13 2.20 2.30 2.13 1.72 1.36 1.27 1.33 1.23 1.11 1.08 1.39 1.43 1.43 1.42 1.45 1.43 1.57 1.75 1.48 1.44 1.23 1.42 1.44 1.50 1.51 1.59 1.68 1.74 1.89 1.83
0.04 0.07 0.07 0.04 0.04 0.06 0.17 0.40 0.55 0.67 1.01 1.35 1.52 1.33 1.12 1.14 1.63 2.00 2.26 2.44 2.12 2.14 2.08 1.74 1.49 1.40 1.41 1.30 1.39 1.91 1.92 1.86 1.96 1.99 1.91 2.26 2.22 1.97 1.42 1.42 1.83 1.85 1.98 2.09 2.32 2.48 2.21 2.13 2.09
0.03 0.03 0.03 0.04 0.04 0.07 0.20 0.23 0.32 0.60 1.22 1.62 1.82 1.46 1.22 1.34 1.74 2.26 2.48 2.40 2.11 2.09 1.99 2.04 1.87 1.69 1.67 1.82 1.76 1.98 2.24 2.26 2.26 2.19 2.24 2.48 2.11 1.79 1.61 1.84 2.26 2.30 2.38 2.50 2.71 2.84 2.28 2.39 3.00
0.02 0.02 0.02 0.02 0.03 0.05 0.12 0.21 0.36 0.67 1.16 1.42 1.31 1.18 1.20 1.42 1.69 2.30 2.70 2.56 2.42 2.35 2.23 2.48 2.41 2.30 2.30 2.14 2.12 1.98 1.97 2.00 2.06 2.17 2.10 2.25 2.29 2.18 2.18 2.30 2.38 2.54 2.73 3.03 2.85 2.99 2.95 3.13 3.11
0.02 0.02 0.03 0.03 0.04 0.06 0.10 0.22 0.34 0.58 0.85 0.91 0.82 0.99 1.45 1.56 1.84 2.48 3.05 3.03 2.94 2.80 2.87 3.00 3.04 3.15 2.97 2.70 2.48 2.06 2.07 2.00 1.93 1.98 1.95 2.15 2.43 2.49 2.63 2.42 2.51 2.30 2.43 2.80 3.12 3.13 3.34 3.58 3.51
0.02 0.03 0.04 0.05 0.07 0.08 0.13 0.24 0.40 0.77 0.78 0.71 0.83 1.15 1.53 1.94 2.09 2.54 3.26 3.51 3.43 3.41 3.63 3.61 3.62 3.64 3.47 3.05 2.78 2.47 2.16 2.20 2.00 1.96 2.02 2.47 2.71 2.70 2.79 2.65 2.63 2.36 2.39 2.71 3.08 3.14 3.47 3.55 3.60
0.04 0.06 0.12 0.13 0.10 0.12 0.19 0.56 0.71 0.84 0.80 0.79 1.02 1.26 1.74 2.34 2.57 2.83 3.35 3.72 3.86 4.10 4.30 4.50 4.37 4.06 4.12 3.74 3.00 2.48 2.20 2.06 2.15 2.27 2.32 2.57 2.71 2.92 3.08 3.00 2.64 2.42 2.54 2.77 2.80 2.95 3.45 3.35 3.31
0.07 0.11 0.29 0.25 0.12 0.14 0.28 0.79 0.88 0.88 0.90 0.98 1.21 1.54 1.90 2.37 2.48 2.73 3.20 3.76 4.27 4.66 5.09 5.30 4.89 4.77 4.77 4.41 3.80 3.22 2.89 2.71 2.71 2.68 2.48 2.31 2.51 2.63 2.87 2.65 2.28 2.36 2.59 2.78 2.79 2.81 3.21 3.38 3.41
0.11 0.15 0.26 0.25 0.17 0.16 0.28 0.69 0.71 0.61 0.95 1.35 1.59 1.75 1.91 2.07 2.23 2.41 2.80 3.53 4.35 4.94 5.66 6.07 6.26 5.76 5.35 4.75 4.29 3.76 3.45 3.25 2.98 2.68 2.39 2.09 1.90 1.83 2.11 2.10 2.05 2.06 2.33 2.38 2.10 2.36 2.71 2.96 3.09
0.09 0.15 0.21 0.26 0.21 0.21 0.35 0.61 0.72 0.63 0.93 1.30 1.35 1.62 1.72 1.75 1.95 2.33 2.86 3.41 4.27 5.04 5.75 6.17 6.40 5.86 5.13 4.80 4.75 4.40 3.82 3.38 3.00 2.60 2.34 1.96 1.80 1.61 1.85 1.89 1.74 1.71 1.89 1.97 2.11 2.44 2.53 2.46 2.52
0.07 0.12 0.20 0.22 0.21 0.30 0.48 0.73 0.86 0.83 0.89 1.04 1.15 1.35 1.39 1.43 1.70 2.17 2.81 3.48 4.26 5.38 6.06 6.20 5.92 5.20 4.68 4.27 4.01 3.72 3.45 3.17 2.69 2.27 2.01 1.88 1.79 1.73 1.92 1.77 1.80 1.69 1.72 1.76 1.84 2.08 2.17 1.96 2.13
0.06 0.12 0.20 0.20 0.17 0.20 0.44 0.80 0.92 0.94 1.00 1.00 1.07 1.16 1.09 1.24 1.58 2.17 2.94 3.74 4.40 4.96 5.33 5.41 5.03 4.26 3.77 3.50 3.43 3.15 2.94 2.59 2.39 2.16 2.10 1.82 1.74 1.73 1.62 1.79 1.61 1.54 1.73 1.70 1.78 2.00 2.01 1.79 1.93
0.09 0.11 0.17 0.21 0.18 0.22 0.44 0.96 1.16 1.08 1.05 1.03 0.93 0.92 1.03 1.25 1.78 2.53 3.33 4.07 4.42 4.45 4.22 3.94 3.75 3.35 3.22 3.16 2.98 2.76 2.70 2.40 2.24 2.05 1.95 1.67 1.50 1.47 1.50 1.49 1.40 1.49 1.42 1.58 1.74 1.85 2.02 2.00 1.81
0.10 0.08 0.07 0.09 0.16 0.39 0.54 1.07 1.24 1.23 1.15 1.01 0.98 0.98 1.10 1.38 1.92 2.62 3.15 3.38 3.54 3.47 3.18 2.99 2.90 2.82 2.76 2.67 2.54 2.25 2.12 2.07 1.93 1.84 1.85 1.73 1.53 1.45 1.43 1.37 1.46 1.48 1.36 1.61 1.41 1.56 1.86 2.00 1.81
0.06 0.05 0.05 0.10 0.22 0.42 0.58 0.93 1.29 1.26 1.33 0.91 0.76 0.84 0.95 1.18 1.49 1.69 1.89 2.05 2.18 2.22 2.37 2.45 2.57 2.68 2.59 2.51 2.48 2.37 2.11 2.06 2.03 2.02 2.10 1.97 1.77 1.55 1.32 1.36 1.55 1.59 1.46 1.49 1.50 1.68 1.70 1.74 1.76
0.05 0.07 0.14 0.24 0.42 0.79 0.80 0.96 1.30 1.30 1.18 0.78 0.55 0.57 0.76 0.86 0.94 1.03 1.13 1.25 1.48 1.53 1.73 1.94 2.07 2.23 2.39 2.41 2.24 2.15 2.09 2.12 2.16 2.10 1.93 1.74 1.61 1.51 1.40 1.47 1.70 1.69 1.64 1.59 1.55 1.57 1.62 1.78 1.89
0.06 0.11 0.35 0.70 1.06 1.12 0.69 0.79 1.22 1.16 0.84 0.54 0.44 0.42 0.44 0.59 0.76 0.90 1.02 1.12 1.32 1.27 1.34 1.57 1.65 1.67 1.82 1.86 1.82 1.88 2.00 2.05 1.93 1.82 1.74 1.58 1.34 1.32 1.40 1.45 1.65 1.64 1.64 1.56 1.70 1.72 1.66 1.77 1.84
0.07 0.08 0.22 0.42 0.54 0.72 0.76 1.25 1.47 0.87 0.59 0.44 0.39 0.36 0.36 0.49 0.67 0.77 0.77 0.86 0.98 0.95 1.07 1.23 1.32 1.38 1.44 1.56 1.66 1.62 1.76 1.78 1.70 1.75 1.63 1.49 1.28 1.18 1.20 1.30 1.37 1.43 1.48 1.44 1.78 1.68 1.70 1.78 1.72
0.08 0.06 0.09 0.14 0.23 0.55 0.95 1.31 1.29 0.78 0.60 0.42 0.37 0.40 0.43 0.41 0.54 0.61 0.55 0.56 0.68 0.79 0.92 1.04 1.11 1.23 1.26 1.41 1.48 1.44 1.54 1.61 1.66 1.66 1.55 1.38 1.38 1.24 1.27 1.32 1.49 1.59 1.61 1.63 1.84 1.78 1.75 1.88 1.71
0.08 0.09 0.10 0.14 0.24 0.48 0.85 1.35 1.61 1.18 0.67 0.49 0.46 0.47 0.51 0.43 0.47 0.50 0.50 0.46 0.52 0.68 0.93 1.01 1.03 1.15 1.19 1.28 1.29 1.17 1.33 1.45 1.57 1.52 1.44 1.41 1.43 1.37 1.45 1.49 1.60 1.67 1.62 1.62 1.77 1.78 1.87 1.94 1.83
0.11 0.10 0.12 0.15 0.17 0.28 0.66 1.00 0.90 0.89 0.65 0.63 0.62 0.56 0.54 0.49 0.51 0.49 0.49 0.48 0.45 0.56 0.77 0.84 0.97 1.09 1.15 1.21 1.31 1.36 1.36 1.30 1.41 1.42 1.40 1.43 1.47 1.41 1.46 1.56 1.65 1.64 1.68 1.78 1.88 1.75 1.83 1.94 2.11
0.13 0.13 0.14 0.16 0.15 0.16 0.32 0.56 0.56 0.72 0.68 0.67 0.73 0.67 0.62 0.46 0.42 0.44 0.49 0.53 0.48 0.49 0.60 0.74 0.91 1.06 1.11 1.18 1.30 1.38 1.51 1.47 1.42 1.40 1.44 1.47 1.56 1.61 1.60 1.68 1.71 1.57 1.59 1.78 1.86 1.85 1.89 1.94 2.00